GFSSW_925_thetae_000.txt.gz
Theta_e
313 313 314 315 316 316 316 317 318 318 317 318 318 318 319 318 318 317 317 315 316 326 331 329 330 328 325 325 318 313 320 321 320 317 317 316 320 318 318 319 317 320 322 323 327
312 312 313 313 314 315 315 315 316 317 317 316 316 317 316 318 317 316 314 315 318 320 327 327 326 323 322 325 319 319 321 322 319 315 317 318 320 320 319 318 319 319 324 327 325
312 312 312 312 313 313 315 315 315 316 316 315 316 316 316 317 314 313 313 314 317 319 325 328 325 323 324 320 320 319 322 320 321 318 317 321 321 320 320 319 319 319 318 321 326
311 311 312 312 312 313 313 314 315 315 315 314 314 315 314 315 316 317 318 316 317 319 323 329 328 323 325 325 321 324 321 321 322 322 323 323 320 320 318 319 317 316 316 316 324
311 312 312 312 312 312 312 313 314 314 314 315 313 312 313 314 312 315 314 314 318 319 322 327 324 322 326 323 324 325 325 324 322 322 322 320 319 318 318 316 315 313 313 314 320
312 312 311 312 312 312 312 312 312 312 314 314 313 312 312 314 310 311 311 311 317 319 322 326 325 320 323 324 325 324 325 325 322 321 318 320 319 318 318 316 314 313 312 312 316
312 312 312 311 311 311 312 312 312 312 311 311 311 311 312 312 310 311 312 311 311 319 321 326 329 323 323 327 323 325 327 323 320 320 321 317 321 319 317 315 314 311 309 312 311
313 311 310 310 309 311 311 312 312 312 310 310 310 311 311 310 309 310 311 314 312 319 320 328 328 323 324 322 319 322 321 325 322 319 318 319 320 317 315 316 315 311 309 312 313
312 311 311 311 311 312 311 310 311 310 312 309 310 310 312 310 311 310 310 311 317 319 323 327 325 325 326 326 324 320 325 320 320 316 318 319 319 316 315 314 313 313 313 313 313
313 311 309 309 311 311 312 310 309 309 309 309 309 310 308 311 311 310 309 310 316 318 322 329 328 328 327 327 335 327 324 321 320 319 317 317 316 317 315 315 313 311 313 313 313
310 309 308 308 309 312 313 311 308 309 309 310 310 310 311 309 312 311 311 311 315 319 326 330 332 334 329 330 326 322 321 323 318 315 316 315 314 315 315 314 312 311 313 313 313
310 311 309 309 312 314 312 309 307 309 310 309 311 309 310 311 315 312 311 316 319 316 324 331 331 329 325 326 328 321 321 320 319 317 315 316 316 314 313 312 310 311 313 314 313
310 309 309 311 313 314 310 308 308 310 312 311 310 312 311 311 314 314 313 316 319 314 324 329 331 327 328 324 326 322 322 323 323 317 316 315 317 316 313 313 311 312 312 313 313
307 308 309 312 313 313 312 309 310 308 313 313 311 311 312 312 315 314 313 318 320 316 324 329 327 330 330 330 327 331 319 320 319 319 321 316 321 316 313 314 313 312 312 312 312
307 308 309 312 313 314 313 310 309 310 313 311 312 311 312 313 315 317 313 317 321 320 325 329 329 331 332 330 326 330 319 320 319 318 316 317 318 316 312 315 314 311 311 311 311
307 307 309 311 312 313 313 310 310 315 316 313 314 313 314 313 317 317 318 319 320 321 323 324 324 327 330 327 323 320 318 316 314 314 320 317 318 317 314 313 314 312 309 311 311
308 309 309 311 314 313 311 311 314 318 313 316 315 314 315 316 318 319 319 320 323 325 326 321 327 320 323 321 316 318 320 326 324 322 323 315 316 317 314 311 313 313 309 310 310
310 310 311 311 314 310 311 312 320 318 314 315 316 315 317 317 319 319 323 326 323 319 325 327 330 318 314 324 323 320 319 321 327 324 321 314 318 317 313 310 309 312 309 309 310
310 311 311 312 313 311 311 316 320 320 318 319 317 316 319 318 322 324 322 324 324 319 323 326 326 312 313 312 321 316 319 316 319 317 321 320 316 314 313 312 311 310 309 310 309
310 309 311 312 314 312 313 317 322 321 318 317 318 318 323 320 324 322 324 324 325 320 315 317 316 315 312 311 310 314 313 320 317 327 326 320 316 319 315 316 312 310 310 309 309
309 312 314 313 314 316 318 316 323 319 318 320 321 321 321 320 323 322 322 323 321 317 315 313 314 318 312 314 314 313 314 312 315 316 321 320 318 311 313 313 312 310 309 309 309
308 316 314 314 320 321 321 326 321 323 324 324 321 321 321 319 323 324 325 322 319 320 321 317 314 316 317 315 311 311 312 313 318 317 312 313 317 310 309 309 311 311 310 308 308
309 318 314 315 325 324 324 323 323 324 325 325 320 320 317 318 325 324 325 320 320 321 322 318 318 322 324 320 317 316 313 311 311 311 313 316 317 310 307 310 311 312 311 309 308
311 319 318 317 317 320 324 324 326 323 324 323 320 319 320 322 321 322 323 320 319 320 321 319 318 318 323 321 317 319 315 311 314 315 314 313 316 314 311 313 313 313 313 310 307
307 315 315 318 317 316 320 324 326 325 322 321 323 320 321 323 321 322 319 318 317 319 316 317 320 317 313 316 317 317 317 312 314 315 318 317 313 314 312 312 310 309 309 309 307
310 310 309 310 311 315 315 319 319 318 320 323 323 320 320 322 321 322 319 320 319 316 316 314 316 313 312 311 312 315 316 312 314 313 313 314 315 310 311 310 313 312 311 310 307
306 307 309 310 310 313 316 317 317 315 315 316 318 319 315 313 311 312 310 310 314 316 314 312 311 313 316 312 313 313 310 314 313 312 313 315 311 310 313 313 313 313 311 310 307

GFSSW_925_thetae_003.txt.gz
Theta_e
312 312 313 314 315 316 316 316 317 318 318 319 319 319 317 319 319 318 317 314 313 321 322 325 329 330 325 325 318 315 324 325 323 319 322 316 322 320 319 320 319 318 321 323 325
312 313 312 312 313 314 315 316 315 316 317 317 317 317 318 318 319 317 316 315 317 313 320 327 327 325 325 326 321 322 325 325 321 318 318 318 321 323 323 321 321 320 319 323 323
312 312 312 312 312 313 313 315 315 316 316 316 316 315 317 318 316 315 316 315 317 319 320 325 328 325 326 322 322 321 326 322 322 320 318 321 323 322 321 324 321 322 321 318 322
311 311 311 312 312 312 313 314 314 313 314 314 315 315 316 316 318 316 318 319 320 320 319 324 328 326 328 327 321 325 321 322 323 322 324 324 322 324 320 324 320 319 316 315 316
312 311 312 311 312 312 312 312 313 314 314 314 313 313 314 316 314 316 313 312 317 320 319 323 328 324 330 327 323 324 325 324 322 323 323 323 324 323 321 319 318 315 315 315 314
313 312 312 311 311 312 312 312 312 314 314 313 313 312 313 315 311 312 313 311 312 319 319 322 326 322 325 326 328 325 326 326 324 325 321 322 324 320 325 317 317 315 314 312 312
313 313 313 311 312 311 311 312 312 313 312 311 311 312 312 312 310 310 310 311 311 316 319 321 325 323 324 327 323 325 328 326 324 323 325 320 324 321 322 316 317 315 311 314 315
313 313 313 311 311 311 312 312 313 312 310 310 310 311 311 310 310 310 311 312 313 311 318 320 323 325 325 322 323 328 324 332 326 319 319 320 327 320 314 316 317 313 313 315 315
313 313 313 311 311 310 311 312 312 312 311 309 309 310 311 309 311 309 309 310 313 316 319 319 324 328 325 326 326 324 333 328 327 320 321 320 322 319 314 315 315 314 315 315 315
312 312 312 309 310 310 312 313 310 311 310 309 309 310 310 311 311 310 310 310 312 318 320 323 328 330 329 331 337 326 329 323 324 320 317 318 319 317 315 315 316 314 315 315 315
311 311 311 309 309 309 311 314 311 311 309 309 309 309 311 309 311 311 310 310 311 319 320 323 330 333 330 330 326 322 325 326 323 317 317 318 316 318 316 314 314 313 315 315 315
310 310 311 310 309 311 313 310 308 307 309 308 309 309 309 311 314 312 310 312 315 319 318 325 332 329 326 327 325 322 324 324 320 317 317 319 319 318 315 315 312 313 315 315 314
309 310 311 308 310 312 313 311 308 309 309 310 308 310 311 309 313 314 311 313 318 315 319 325 328 327 328 328 331 324 325 323 326 319 316 316 320 317 314 312 311 313 314 314 314
309 309 309 308 312 314 312 309 308 307 311 312 310 309 311 312 313 312 311 314 318 315 316 326 326 328 329 329 328 332 320 323 321 324 328 317 325 318 316 313 313 314 315 314 314
307 308 308 308 312 313 311 308 307 306 315 312 311 309 311 312 313 314 312 314 319 315 319 327 328 328 330 329 326 329 323 325 322 321 316 317 321 320 311 314 314 313 313 313 313
310 307 308 309 311 311 312 309 309 312 315 314 312 313 313 313 314 315 314 314 318 316 317 325 323 329 329 325 326 315 320 320 316 316 322 318 321 322 317 314 313 312 312 313 313
311 309 308 308 314 312 310 309 313 316 311 315 314 313 312 312 313 315 315 316 321 320 320 324 329 325 327 324 319 320 327 332 329 324 326 314 317 320 315 311 314 315 312 313 313
313 310 309 309 311 310 310 311 317 316 311 313 313 313 314 313 316 316 316 316 320 319 319 327 332 323 323 325 324 326 327 329 331 326 323 313 321 319 312 312 310 313 311 312 312
311 309 308 309 311 311 309 314 316 316 311 315 313 313 314 314 317 317 317 316 318 319 319 323 326 316 319 317 322 320 327 318 319 316 323 322 319 317 313 312 310 311 312 314 312
309 308 311 311 311 309 309 316 317 314 315 312 313 313 313 315 316 317 319 317 320 319 316 321 319 317 311 314 311 320 317 325 318 326 327 322 318 322 316 314 311 311 313 312 311
310 309 313 313 310 313 314 314 317 319 314 314 317 318 316 316 316 319 317 323 322 320 315 312 316 317 312 315 314 316 320 316 316 318 324 323 321 312 313 311 314 311 312 312 311
306 315 314 312 316 315 318 316 317 318 318 317 317 320 319 315 315 320 322 322 322 321 317 312 314 316 315 314 312 312 316 317 320 318 313 316 320 311 309 309 311 311 310 310 310
308 316 315 314 321 320 320 320 321 322 323 322 319 319 316 318 324 323 324 320 320 321 319 316 317 321 322 318 316 315 311 312 312 312 314 320 320 310 309 312 310 311 311 310 309
308 319 318 315 317 321 325 323 325 323 324 324 318 317 318 320 320 322 324 321 320 320 320 317 316 320 324 320 316 317 313 310 315 316 315 314 316 314 312 313 311 312 311 310 309
305 312 315 318 319 319 321 323 324 325 323 322 322 317 320 322 321 322 322 318 318 321 317 318 320 316 313 317 316 316 316 312 314 316 319 317 314 313 311 311 310 309 308 309 308
309 308 307 311 310 318 319 324 323 321 322 324 323 317 319 322 321 321 319 320 321 315 317 314 317 313 312 312 314 317 315 314 313 312 313 313 314 310 310 309 312 311 309 310 308
305 305 307 311 310 314 317 320 320 318 318 313 318 317 320 316 314 315 315 314 317 314 312 316 312 315 318 312 311 315 311 313 314 311 314 316 316 308 312 312 311 310 309 309 308

GFSSW_925_thetae_006.txt.gz
Theta_e
312 313 313 313 314 314 314 315 316 318 318 318 320 320 319 320 319 319 319 318 316 317 322 323 328 330 330 329 326 322 328 329 328 327 327 322 325 327 325 326 324 324 324 324 327
312 313 313 312 313 313 314 315 316 315 315 317 318 319 319 318 320 319 318 318 317 318 317 323 328 330 332 330 329 328 330 328 326 326 326 325 327 328 328 327 326 324 323 323 322
312 312 312 312 312 313 314 314 314 315 316 315 315 316 316 318 318 318 318 319 320 321 319 320 329 331 332 329 329 329 330 327 326 325 324 327 328 327 329 329 326 325 324 324 322
312 312 311 312 312 313 312 313 314 314 314 315 314 315 315 317 319 317 318 319 321 322 320 318 325 331 333 333 328 329 328 327 327 326 327 328 328 329 330 330 328 327 326 322 322
313 313 312 312 311 311 311 311 312 314 313 314 314 314 316 317 317 316 313 312 315 320 321 318 325 328 333 332 329 329 328 327 327 327 326 327 329 330 329 328 328 327 323 322 321
313 313 312 312 312 309 309 309 312 313 314 313 313 313 314 316 313 313 314 313 312 318 320 318 324 325 326 330 331 328 328 328 327 328 328 328 329 326 328 327 327 325 324 320 320
313 313 312 312 312 313 309 310 312 313 313 313 312 313 313 313 311 311 310 312 312 314 319 319 319 327 326 330 329 329 330 329 329 328 329 328 329 328 327 321 321 322 320 320 321
313 314 313 312 311 311 310 311 312 312 312 311 311 312 312 311 311 311 311 312 312 312 316 318 318 323 329 327 330 332 332 333 329 329 328 326 330 327 322 321 321 320 321 321 320
312 313 312 313 311 309 308 310 312 311 312 311 311 311 312 310 311 311 311 311 313 313 313 317 318 324 328 329 333 333 335 332 329 328 328 327 328 324 320 321 322 321 321 321 321
312 312 312 312 311 310 309 310 313 311 311 310 310 311 310 311 311 310 310 310 313 316 317 319 320 328 331 331 337 333 333 330 331 328 324 325 328 324 323 321 322 321 321 321 321
311 311 311 311 311 309 309 311 310 312 310 310 310 309 311 310 311 311 311 310 312 316 319 319 321 327 329 330 329 326 330 331 328 325 325 328 329 324 326 323 322 321 321 321 320
310 310 310 310 311 310 310 313 311 310 313 309 309 309 311 310 313 312 311 312 313 316 319 319 323 325 328 329 330 329 329 330 328 323 324 328 329 328 326 323 322 321 321 321 319
310 310 310 311 310 309 312 313 311 308 310 310 309 310 310 309 313 313 312 311 313 315 319 320 322 324 329 330 330 329 329 328 329 325 324 324 329 328 319 317 316 318 321 320 319
309 309 309 310 309 312 314 311 309 307 310 311 311 309 310 311 312 310 311 311 315 315 318 317 320 327 329 331 330 331 328 328 329 332 335 324 333 328 324 320 318 320 320 320 319
309 309 310 308 312 312 310 309 307 307 317 311 311 308 309 311 311 312 312 311 315 317 316 318 324 324 331 330 328 329 327 329 329 331 330 330 329 328 319 320 319 320 320 319 319
313 309 307 310 311 311 310 307 306 311 316 315 312 312 312 311 312 313 314 311 314 317 315 317 323 322 327 327 327 324 326 325 324 327 334 330 328 328 323 321 319 320 320 319 319
315 311 309 309 311 312 308 307 313 317 312 316 314 314 312 311 311 313 315 314 317 322 320 316 316 328 327 329 322 327 330 336 338 334 334 320 323 326 322 317 319 320 320 319 318
315 312 310 309 310 311 308 311 318 315 315 312 314 313 313 312 312 314 314 314 314 319 318 321 330 330 328 328 327 327 330 331 334 333 330 319 326 323 318 317 316 319 320 319 318
314 310 310 310 310 309 309 315 317 317 312 314 313 314 313 313 312 315 314 313 316 315 319 322 324 324 327 323 325 327 331 324 324 322 326 326 325 323 318 318 316 317 319 320 318
310 309 310 309 310 309 309 316 315 314 311 313 312 312 313 313 318 317 314 311 314 316 319 319 326 322 319 324 318 327 326 328 325 330 330 326 326 326 321 319 317 317 319 320 318
310 312 312 310 310 309 313 315 316 315 313 311 312 312 313 313 316 316 314 316 314 317 318 320 323 319 322 324 327 327 328 327 325 323 329 328 326 320 320 318 318 317 319 319 318
311 319 313 311 313 312 315 313 315 318 315 310 312 312 311 313 314 317 316 319 313 319 321 321 321 327 322 316 321 325 326 326 330 325 322 323 324 317 317 316 316 317 318 318 317
313 316 312 311 318 315 316 316 315 319 316 313 317 315 313 314 316 317 318 315 317 320 323 320 322 326 325 321 316 323 323 327 324 319 324 327 325 315 317 318 317 317 317 317 316
313 320 317 315 316 319 320 319 321 319 317 320 319 319 317 315 315 318 320 321 322 319 321 318 322 322 325 325 323 324 322 324 326 327 325 323 323 318 318 319 317 317 317 316 316
311 318 317 318 317 318 319 321 320 325 322 323 321 320 317 319 321 321 321 322 321 322 322 321 323 322 321 320 321 322 322 320 322 324 325 325 322 321 319 320 319 318 317 316 315
313 314 313 318 317 320 319 322 320 323 321 321 325 320 320 321 322 324 324 324 324 322 323 321 323 317 319 319 320 321 321 322 323 323 322 322 322 319 316 317 315 316 315 315 315
308 307 311 315 314 320 320 322 321 319 319 319 322 320 321 321 320 321 321 322 322 323 324 322 321 321 323 316 317 322 321 320 320 319 320 322 321 316 315 315 316 316 315 315 314

GFSSW_925_thetae_009.txt.gz
Theta_e
313 313 314 313 313 313 314 314 315 317 319 320 320 321 321 320 321 320 320 320 319 317 323 322 322 327 329 331 329 328 330 330 329 329 327 326 326 326 327 327 326 326 326 326 325
313 313 313 313 313 313 313 312 313 314 314 316 317 318 319 319 320 321 321 320 320 321 320 321 323 324 332 331 330 330 330 329 327 327 328 327 327 329 329 328 328 328 326 325 325
313 313 313 313 313 313 314 313 313 313 315 315 315 317 318 319 320 320 319 321 322 322 321 320 321 329 330 331 330 331 330 328 328 327 327 326 327 328 330 330 329 328 327 327 326
313 313 313 312 313 313 312 312 312 313 313 315 314 315 315 317 319 319 319 319 321 322 322 321 319 327 331 332 330 331 328 328 328 327 327 328 327 328 329 330 329 329 329 328 326
314 314 314 313 313 313 313 312 311 311 314 314 314 314 315 317 317 317 313 314 317 321 322 322 319 323 330 329 330 330 329 328 327 327 327 327 327 328 329 329 329 328 328 328 326
313 314 314 313 313 313 311 311 312 312 311 314 314 313 315 316 314 315 316 316 315 319 321 322 320 320 323 326 329 329 329 328 327 328 327 328 328 328 328 329 328 327 325 326 325
313 313 313 312 313 313 313 312 312 311 310 313 313 314 314 314 312 313 313 313 314 314 318 320 320 321 323 327 324 328 330 329 328 328 328 328 330 329 328 328 323 322 323 323 323
313 313 314 312 312 312 312 313 312 311 311 311 311 313 315 312 312 312 312 312 312 313 314 317 319 319 322 326 327 327 331 334 329 328 328 329 332 327 327 324 323 322 323 324 323
314 313 313 313 312 312 310 310 311 312 312 311 312 313 314 311 311 311 311 312 312 313 313 314 318 320 322 328 332 332 335 333 331 328 328 330 330 327 326 323 324 323 323 324 323
315 312 310 311 311 311 310 309 312 312 312 312 311 313 312 312 311 311 311 311 312 313 314 315 319 322 323 327 334 333 334 331 333 328 329 330 329 328 326 325 324 323 323 324 323
313 312 310 310 311 313 311 309 312 312 311 312 312 312 312 310 312 312 311 311 312 313 316 316 321 323 323 325 327 329 332 331 331 328 330 330 328 326 326 326 326 324 324 324 323
313 311 310 310 310 311 312 311 312 311 314 311 311 311 310 311 313 312 311 313 312 315 314 318 321 319 319 323 326 330 330 331 329 327 327 327 328 327 327 328 328 324 323 324 322
311 310 309 309 310 312 312 309 312 309 312 310 311 311 311 310 312 313 312 313 313 314 314 318 319 318 318 320 330 331 333 330 330 328 326 327 330 330 329 328 323 323 323 324 322
310 310 308 310 311 310 311 312 312 310 311 313 312 311 310 310 312 310 312 313 312 314 313 316 315 319 319 322 327 333 329 328 329 331 332 329 331 328 328 323 321 321 323 323 321
313 308 309 309 312 313 311 310 309 308 319 313 312 309 310 311 311 311 310 313 314 313 314 314 317 319 321 325 326 332 329 328 330 332 334 333 333 330 328 325 323 322 323 322 321
315 311 309 311 311 311 310 308 307 313 318 315 311 312 312 312 311 312 311 312 312 313 316 314 316 319 320 324 328 329 330 331 330 330 333 331 332 329 328 325 324 322 322 322 320
316 314 309 310 311 311 307 308 313 318 313 316 314 313 313 314 313 313 314 314 316 316 318 316 314 316 321 324 326 330 332 338 335 335 332 328 330 329 322 321 322 322 322 321 320
316 316 311 309 311 310 307 310 317 316 314 313 313 313 314 313 313 313 314 315 314 314 318 322 323 318 317 327 328 330 332 331 333 332 330 324 328 327 322 321 321 322 322 321 320
315 315 311 310 311 308 310 314 317 318 314 315 316 316 316 313 310 310 314 316 314 313 321 321 323 319 321 327 326 329 334 325 329 327 330 328 326 322 321 320 319 321 322 321 320
313 309 310 311 310 309 311 315 316 315 312 313 315 314 315 314 313 313 315 315 314 312 312 318 324 318 325 326 324 328 327 330 327 330 331 329 327 327 322 322 320 320 322 322 321
310 312 313 310 310 310 312 313 315 314 312 315 314 312 312 312 313 314 315 313 312 313 314 318 318 320 322 329 328 330 330 329 328 328 330 331 328 324 321 321 321 320 322 322 321
312 316 312 310 312 311 313 311 312 315 314 315 311 312 312 312 314 316 315 313 312 313 319 320 321 323 324 318 325 328 329 328 330 328 326 326 326 320 320 320 320 320 320 321 320
314 316 311 310 316 314 312 313 313 314 317 315 313 312 311 313 314 316 316 314 314 313 323 322 324 330 329 323 324 327 326 328 328 326 328 327 327 319 320 321 320 320 320 321 320
313 319 313 313 314 317 315 317 317 315 317 314 314 313 313 314 314 316 317 316 317 314 321 321 322 325 327 326 326 329 328 326 326 328 327 327 324 320 321 321 320 319 320 320 319
312 318 316 316 315 316 317 319 318 320 318 315 320 316 315 314 315 318 316 319 317 318 319 322 325 323 322 323 324 325 327 326 328 327 328 326 325 323 321 321 321 320 320 320 319
313 313 316 319 316 318 317 319 319 318 321 321 323 320 317 317 314 315 318 320 322 321 319 321 326 322 324 322 323 324 324 325 326 327 326 325 326 323 322 321 320 320 319 319 318
311 312 313 318 320 320 321 319 320 318 320 320 322 322 321 317 317 320 318 320 322 322 324 323 325 324 324 321 323 325 323 323 324 323 324 326 324 324 319 319 320 319 319 318 318

GFSSW_925_thetae_012.txt.gz
Theta_e
313 313 314 314 314 314 314 315 316 316 318 321 322 322 322 321 321 321 321 321 322 319 316 319 321 322 327 331 330 329 332 332 330 329 329 326 325 325 326 326 325 325 324 325 324
313 314 313 314 314 314 314 314 315 315 315 316 318 318 319 320 320 321 321 322 323 321 320 319 321 322 324 331 331 331 332 331 327 326 326 327 326 326 328 327 326 326 325 325 324
314 314 313 313 313 313 314 314 314 315 314 316 314 315 318 319 320 319 320 322 324 323 322 321 320 322 328 328 331 331 333 329 326 325 326 326 326 325 326 329 327 327 327 326 327
314 314 314 314 313 313 313 313 314 314 315 315 315 314 314 318 320 320 319 319 322 323 323 322 321 322 329 330 329 332 330 328 328 327 327 327 326 326 325 326 327 326 327 326 326
314 314 315 314 313 314 313 313 313 313 314 315 314 314 315 316 316 317 315 314 316 320 322 322 323 320 325 327 328 330 330 328 327 326 326 326 326 326 325 325 325 326 326 325 325
316 314 314 314 314 313 313 312 313 313 314 313 314 314 315 316 313 314 316 316 316 317 320 321 322 320 320 323 327 328 329 330 328 327 326 327 326 325 325 324 325 326 325 323 324
316 315 313 313 312 313 314 313 313 313 313 314 314 314 314 313 312 313 315 316 315 315 316 320 320 323 320 321 323 325 327 330 329 328 328 326 327 327 326 324 325 325 319 321 323
315 315 313 312 313 312 313 312 312 312 311 313 311 314 314 313 313 312 312 312 313 312 313 314 317 320 322 320 324 329 327 330 329 329 327 326 329 327 326 325 325 321 321 322 322
313 314 314 312 313 313 312 310 309 309 312 312 312 313 313 312 313 312 312 312 312 312 313 313 314 319 321 322 326 328 331 330 331 328 327 327 328 327 326 324 323 321 319 321 321
314 314 314 311 312 312 312 310 309 310 312 313 311 312 312 312 312 312 312 312 312 312 313 315 316 320 322 323 326 328 332 328 331 329 328 328 328 327 326 323 321 320 319 320 320
314 312 314 310 311 312 312 311 312 312 312 311 312 311 312 312 312 311 312 312 312 313 314 315 318 320 320 320 322 325 327 331 327 329 328 329 328 328 325 324 323 322 320 320 319
313 312 313 310 310 310 312 311 312 311 314 312 312 312 311 311 312 312 311 313 313 315 313 316 318 316 317 318 321 322 327 330 329 328 328 328 329 327 325 324 323 323 320 319 318
314 311 311 309 310 310 312 311 310 311 313 313 312 312 312 311 313 313 312 312 313 314 314 316 316 315 316 317 321 321 325 329 331 329 328 327 328 325 324 323 323 324 320 320 318
314 311 310 309 310 311 313 312 312 310 313 312 312 313 312 311 312 311 312 313 313 313 313 315 314 314 317 317 318 322 323 326 331 334 335 326 329 326 325 326 325 320 320 319 318
315 312 310 308 313 312 312 311 311 309 319 312 312 310 311 312 312 311 311 313 314 313 313 315 315 314 316 319 317 321 323 325 330 334 333 332 329 327 325 327 321 317 318 319 317
315 314 309 310 310 311 310 309 308 313 317 315 311 313 313 311 312 312 312 313 312 314 313 314 313 314 315 315 316 319 321 326 331 333 337 335 330 328 326 323 320 318 319 319 317
315 315 309 311 311 310 309 308 313 317 313 316 315 313 312 314 313 312 313 313 314 315 314 315 315 313 313 320 316 321 326 334 335 338 337 327 332 328 320 320 321 319 319 318 317
316 315 311 310 311 310 308 311 316 314 315 313 313 313 316 314 314 313 314 313 312 313 315 316 316 316 313 317 321 323 325 329 337 338 329 326 329 326 319 318 319 319 319 318 317
316 316 312 308 311 308 311 312 315 316 316 315 314 316 314 315 315 314 314 314 312 312 316 319 318 316 318 315 321 322 322 322 332 325 327 325 325 319 318 318 318 319 319 318 317
315 313 312 309 310 309 312 314 314 314 313 314 318 314 313 314 313 313 313 312 313 313 312 314 321 319 319 320 322 325 325 332 330 331 332 327 325 323 319 318 317 319 319 319 317
311 313 311 310 309 311 313 313 312 312 312 314 315 314 313 313 312 312 311 311 313 314 312 312 315 320 317 327 326 327 330 330 330 329 330 328 325 320 319 319 317 317 319 319 318
311 315 311 311 313 312 313 312 312 314 313 314 314 315 312 313 312 313 313 315 313 313 315 313 317 323 322 319 324 327 329 328 329 330 327 325 322 317 317 317 317 316 319 319 317
313 315 312 310 314 314 312 313 311 313 317 316 316 313 311 312 312 311 315 315 314 314 316 314 318 325 323 325 326 330 329 327 327 326 328 325 322 317 317 317 319 316 318 319 317
313 317 314 312 313 314 314 316 314 313 314 316 315 312 312 312 311 316 315 316 314 314 317 322 324 321 330 328 326 330 328 326 327 328 327 325 319 318 319 318 317 316 316 318 317
312 316 313 314 313 314 316 315 317 315 317 316 314 313 312 313 313 313 315 316 317 315 317 316 327 326 325 327 327 328 327 327 328 327 326 324 321 317 318 317 316 316 317 318 317
313 313 314 317 313 314 315 317 318 315 318 319 317 320 318 315 313 314 315 316 317 317 315 317 324 324 322 322 324 328 327 326 326 324 324 325 324 319 316 316 316 315 316 317 317
311 312 312 318 319 318 319 318 319 317 315 317 318 316 321 316 315 313 313 315 318 320 321 320 323 324 322 321 322 323 323 325 325 324 325 327 324 319 317 317 316 315 316 316 315

GFSSW_925_thetae_015.txt.gz
Theta_e
313 313 314 314 314 314 314 314 315 315 316 318 322 324 323 323 322 322 320 320 323 321 318 317 316 319 321 325 328 327 329 332 329 327 326 324 324 323 323 325 324 323 323 324 328
313 314 314 314 314 314 314 314 315 315 314 315 317 319 320 321 320 321 320 320 323 324 321 320 320 319 319 325 328 328 330 331 326 324 324 324 324 324 326 326 326 323 323 323 326
314 314 314 314 314 313 314 313 314 314 315 314 314 314 318 318 320 319 318 322 324 324 322 322 321 320 322 321 327 330 333 328 327 326 324 323 324 324 325 326 325 326 324 325 325
315 314 314 315 314 313 314 313 313 313 314 314 315 313 314 317 320 319 318 321 323 324 324 322 321 320 324 328 324 330 330 329 329 328 326 325 324 324 324 323 323 323 323 324 323
316 315 315 315 315 313 313 312 313 314 313 313 314 314 314 316 316 316 314 315 317 321 322 323 322 321 321 322 324 327 328 328 328 327 326 324 324 324 324 322 322 322 322 322 322
316 316 315 314 314 313 312 312 312 312 312 311 312 313 314 316 312 313 315 315 316 320 321 321 322 320 320 318 320 322 325 327 328 328 326 326 324 324 323 322 322 322 322 321 319
316 316 314 312 313 312 312 314 313 312 312 311 312 313 314 312 312 312 313 316 316 315 315 320 320 321 322 322 319 323 326 325 326 327 329 326 327 325 322 322 322 321 320 319 320
315 315 314 312 311 312 312 313 314 313 312 311 310 313 313 311 312 311 312 314 314 314 313 313 314 316 321 320 320 324 327 328 325 325 327 327 332 325 322 322 323 321 318 318 320
315 314 314 313 310 313 312 312 310 310 310 311 310 312 312 311 312 313 312 312 312 312 312 312 313 316 319 322 323 322 326 327 327 324 327 328 330 325 322 322 321 319 315 317 318
316 314 314 314 310 311 312 313 310 309 311 313 312 311 311 311 312 312 312 312 312 311 312 314 313 316 318 322 323 322 324 325 327 326 326 328 329 323 322 322 321 318 314 317 318
315 316 314 314 310 310 312 311 310 311 312 312 313 309 311 311 311 312 312 311 312 312 314 313 315 317 316 318 319 318 320 325 325 324 327 327 328 326 324 323 320 315 315 317 317
315 315 312 314 309 310 312 311 310 310 313 312 312 311 311 311 313 312 311 312 313 314 312 313 316 314 314 316 319 320 321 322 321 324 326 328 328 326 325 325 322 320 316 317 316
315 315 312 312 309 311 311 310 310 310 311 312 312 312 313 312 313 313 312 312 313 314 313 314 314 313 315 315 318 319 320 320 322 323 325 327 330 326 324 324 322 320 317 318 318
315 314 313 310 310 310 311 309 311 310 313 313 312 313 312 311 313 312 312 312 313 313 313 313 311 312 315 316 316 318 317 319 321 324 331 328 335 327 325 323 321 318 315 317 316
315 314 311 307 309 310 311 312 312 310 315 311 312 310 311 312 312 312 311 313 314 313 313 313 313 313 314 315 315 316 315 317 319 323 327 330 334 327 323 326 323 319 316 316 316
315 314 311 307 311 311 311 310 309 313 312 314 311 313 313 313 313 312 312 312 313 315 314 312 312 313 313 312 313 316 317 318 321 324 330 329 330 327 324 323 322 317 317 316 316
315 315 311 310 309 310 309 308 311 314 311 315 313 312 312 313 313 313 313 315 316 315 315 316 314 313 313 316 315 315 317 320 324 326 327 326 327 328 320 320 322 317 317 316 315
315 315 311 310 310 309 308 311 312 311 312 313 313 311 315 312 314 314 313 314 314 312 314 312 309 314 313 314 315 316 316 322 322 327 329 331 334 330 323 317 318 317 317 316 316
315 315 312 311 310 310 310 312 309 312 315 315 313 315 316 314 312 314 313 314 311 311 310 313 314 313 313 313 314 316 317 315 325 328 331 333 326 320 316 316 317 318 317 316 315
316 313 310 310 310 308 311 312 311 313 314 314 318 315 315 313 312 315 313 313 312 310 310 313 315 313 313 313 314 317 317 321 321 333 334 328 322 322 318 318 319 319 317 316 315
313 314 311 310 309 310 312 312 312 312 313 314 316 317 315 312 312 312 311 312 312 312 310 312 314 315 310 318 317 319 323 321 324 325 333 332 325 317 317 317 319 318 317 316 315
312 317 311 309 313 312 313 312 312 312 312 313 313 315 315 312 312 310 311 310 313 312 313 313 316 318 317 317 319 317 322 321 325 330 328 321 320 314 315 314 317 317 317 316 315
314 314 310 310 313 314 312 312 312 313 314 315 315 314 313 313 315 311 313 313 312 314 314 313 316 318 321 322 322 322 324 323 323 326 330 322 319 315 313 313 313 316 317 316 315
314 316 314 312 312 313 314 314 315 312 313 314 316 315 314 312 312 313 312 315 313 314 314 312 318 321 327 328 327 326 323 324 324 328 326 319 318 318 316 316 313 316 317 316 315
312 315 312 314 313 314 314 315 316 314 312 314 316 316 314 311 311 313 313 314 314 315 314 312 319 318 318 319 324 326 326 322 322 327 327 318 318 317 316 314 313 315 316 316 315
311 314 312 312 312 313 314 317 317 315 315 319 317 315 314 313 311 312 315 314 316 315 314 314 320 322 327 325 326 328 328 326 325 327 325 323 325 314 314 312 313 315 317 317 315
311 311 314 317 314 315 315 315 316 316 315 314 317 317 316 316 315 316 312 312 315 315 315 317 321 326 322 327 325 328 327 325 325 324 323 325 322 314 315 315 313 313 317 316 314

GFSSW_925_thetae_018.txt.gz
Theta_e
312 313 314 314 314 314 314 314 313 313 315 317 320 323 325 324 323 323 320 320 320 322 320 319 317 318 319 320 325 325 328 329 328 326 326 323 324 322 321 322 324 323 320 321 326
313 314 314 314 314 314 314 314 315 313 311 314 315 318 321 322 321 321 322 321 323 325 323 319 320 320 318 322 325 328 331 330 325 325 324 324 323 322 324 325 325 325 323 323 328
315 314 314 315 314 313 314 313 313 313 312 312 314 314 317 318 320 319 318 321 324 325 323 320 321 320 320 320 324 329 333 327 326 325 323 323 323 322 323 324 324 326 324 322 323
316 315 315 314 315 313 313 312 312 312 312 313 314 313 312 317 319 319 318 321 324 325 324 322 321 321 321 326 323 325 328 328 329 327 327 326 323 323 322 322 322 322 322 323 322
316 315 315 315 315 313 312 311 311 313 313 312 314 313 314 316 316 315 315 316 322 324 324 322 321 321 320 320 320 322 325 326 327 328 327 326 325 324 322 321 320 320 320 320 320
316 314 315 315 314 314 311 311 310 311 311 311 312 313 313 313 311 311 315 315 317 321 322 321 321 319 320 319 319 319 320 323 325 326 326 328 327 322 323 320 320 321 321 319 319
317 316 315 314 313 313 311 312 312 312 312 312 313 312 314 312 311 312 312 313 315 317 318 320 321 321 321 322 318 319 323 322 322 324 326 326 329 329 322 320 321 320 320 318 317
317 316 316 315 312 312 312 314 314 313 311 310 311 312 311 309 311 310 311 312 314 315 314 313 315 319 319 320 319 322 322 326 323 323 324 326 332 326 322 319 321 320 318 317 317
316 316 316 314 313 310 312 313 311 309 309 312 311 312 310 310 312 310 312 312 312 313 313 313 312 315 316 323 322 320 322 322 325 323 324 326 329 325 323 320 320 319 318 316 316
316 316 315 314 313 310 312 313 312 309 309 313 312 313 310 311 312 312 312 312 311 311 311 313 313 314 317 321 324 322 321 320 321 324 324 326 327 325 322 320 321 321 317 314 316
315 316 316 314 314 311 313 312 309 311 312 313 313 311 309 311 311 312 312 311 311 311 312 312 314 315 314 316 317 318 317 319 319 321 323 325 326 324 324 321 319 319 316 313 316
315 315 316 314 314 310 312 309 309 309 311 311 312 311 310 311 312 312 312 312 312 314 311 314 315 313 312 313 317 318 320 320 318 318 321 323 325 324 323 324 322 321 317 313 316
314 314 315 312 313 311 312 311 310 310 311 312 312 312 312 312 313 313 311 311 312 314 314 313 312 311 313 314 316 316 318 318 318 317 317 319 322 323 324 323 322 322 318 315 317
313 314 315 314 311 311 311 311 310 310 311 312 312 313 312 313 314 312 312 312 313 314 312 313 312 312 314 315 315 317 316 317 318 319 320 321 328 324 324 325 322 322 314 316 316
313 315 314 311 307 310 309 310 310 310 302 309 312 310 311 313 313 312 312 313 315 313 312 313 312 313 313 313 313 315 314 316 317 319 319 319 322 324 324 325 325 323 314 316 316
313 315 313 309 310 309 310 310 310 306 306 314 311 312 312 313 314 313 312 312 314 315 313 312 312 312 312 311 313 314 315 315 316 319 322 317 321 322 326 324 323 321 316 316 316
313 315 312 309 311 310 311 309 308 303 309 315 313 312 312 314 313 313 314 315 317 317 313 314 314 312 313 314 313 313 315 316 316 318 317 317 319 319 321 320 321 322 315 315 315
312 315 312 308 311 311 309 311 306 308 312 313 312 312 313 312 314 314 315 314 312 313 315 316 315 313 312 315 316 315 315 315 314 314 315 320 324 324 320 319 319 319 317 315 315
312 314 311 310 311 309 310 313 311 309 313 313 312 313 313 313 313 314 313 313 310 313 314 314 313 312 312 312 313 314 317 313 316 318 324 325 328 325 323 317 315 319 316 316 315
312 315 312 309 310 309 311 313 310 313 313 313 314 314 314 312 312 313 311 310 311 311 309 311 310 312 313 312 312 313 312 315 315 320 321 327 331 329 323 320 316 316 316 316 316
309 315 311 310 309 310 311 312 311 313 312 314 314 316 314 312 311 311 310 311 310 310 310 310 310 313 311 313 313 314 315 315 313 316 330 328 329 322 318 318 318 316 316 316 315
313 310 310 309 311 310 312 312 311 313 312 312 313 315 316 313 311 310 311 310 310 310 311 310 313 313 313 312 312 313 313 314 317 318 318 324 324 318 316 318 319 318 317 315 315
314 313 310 310 311 311 312 312 312 313 313 314 315 314 313 313 313 310 310 310 312 312 312 312 316 317 316 314 314 318 315 316 317 319 325 328 324 313 313 316 318 316 315 314 313
312 314 312 312 311 313 313 314 314 312 313 313 314 314 315 314 310 312 312 314 313 313 314 313 316 317 318 324 321 321 317 318 318 320 321 321 321 319 314 314 314 315 314 314 313
314 313 311 312 313 313 313 315 315 316 313 313 313 315 317 314 311 311 311 313 314 315 315 312 316 316 316 317 319 321 319 321 323 321 323 322 323 319 316 314 315 315 314 314 314
314 313 312 311 312 314 314 315 316 316 315 316 315 316 315 315 310 311 313 313 315 315 315 312 315 316 322 322 321 326 322 324 322 319 318 318 319 315 311 310 313 314 315 315 314
310 310 312 313 313 314 315 315 315 315 315 314 315 316 316 314 312 310 312 311 314 316 316 316 316 320 327 326 326 330 325 323 321 318 317 319 320 313 315 313 313 313 315 315 314

GFSSW_925_thetae_021.txt.gz
Theta_e
315 314 314 314 314 314 314 314 314 314 315 317 319 321 324 324 323 323 321 320 319 319 321 319 318 319 318 319 323 321 328 328 326 324 324 322 324 321 320 320 322 321 322 322 325
316 314 314 314 314 314 314 314 314 313 313 315 316 319 322 323 323 323 322 321 324 325 324 319 319 319 318 320 323 327 329 327 324 322 322 323 322 321 322 321 324 324 322 323 327
317 315 314 314 314 314 314 314 313 313 312 312 314 313 318 318 319 318 320 323 324 326 324 320 320 320 320 319 322 326 330 326 327 325 323 323 322 322 323 322 321 324 323 323 326
318 317 315 315 313 314 314 314 313 312 312 313 313 312 314 317 319 318 318 322 324 325 324 321 320 321 320 323 322 323 324 327 328 327 327 327 323 323 321 321 319 319 321 322 320
318 318 315 315 315 314 314 314 312 313 312 312 313 313 313 314 315 314 316 318 324 325 323 322 320 320 320 319 319 321 323 323 324 326 326 326 327 324 323 320 319 318 318 319 319
317 318 316 314 315 314 314 313 312 313 312 311 312 313 313 311 309 311 315 315 319 324 323 322 321 319 320 319 319 318 318 319 320 322 323 326 326 325 323 320 319 318 319 318 317
315 317 317 314 314 312 313 313 313 313 312 311 312 312 313 311 311 311 311 313 313 319 319 322 321 321 321 322 319 319 320 319 319 321 323 324 327 327 324 321 319 318 318 318 317
314 316 317 316 315 312 312 313 313 313 311 310 313 312 310 308 310 310 311 310 312 314 313 314 319 319 321 318 319 321 319 323 319 320 321 324 326 326 323 324 322 319 316 316 316
313 315 316 316 315 312 311 311 313 312 310 312 312 311 309 309 312 309 310 311 312 313 313 313 312 315 316 321 322 321 322 321 321 320 323 324 326 323 322 321 320 318 317 317 316
315 314 315 315 315 313 309 311 313 310 309 312 312 312 310 311 311 311 310 311 311 310 311 312 314 316 318 321 321 320 320 319 319 322 321 322 324 321 321 321 320 319 319 317 315
314 314 316 315 315 312 311 312 310 310 310 313 314 312 309 310 311 312 311 311 311 310 311 311 316 317 316 314 316 317 319 320 316 317 318 319 320 320 320 320 322 318 317 316 314
310 314 315 316 315 313 312 310 308 308 311 310 311 311 311 311 312 312 311 312 312 313 311 313 314 312 311 311 313 316 318 319 316 316 317 317 317 317 316 318 321 321 319 319 313
309 313 314 315 314 313 312 310 310 310 309 310 311 312 311 311 313 313 311 310 312 313 312 313 312 311 312 312 313 314 315 315 316 315 315 315 315 312 314 317 319 321 320 320 315
308 308 314 315 314 312 311 310 310 310 303 309 311 312 312 312 313 312 311 312 313 315 313 314 313 311 311 313 313 314 313 315 315 317 317 316 317 315 317 317 320 320 320 317 313
307 306 313 315 311 310 309 310 310 307 302 308 313 310 312 313 313 312 312 313 314 313 312 313 312 312 312 313 312 314 313 315 316 317 316 316 318 313 317 317 318 319 319 315 314
304 306 310 311 309 310 308 310 310 305 304 312 311 312 314 313 314 312 312 313 313 315 313 311 310 311 312 311 311 313 313 313 315 316 318 315 316 315 311 315 319 319 319 316 314
303 307 308 310 310 308 310 309 310 305 308 313 311 311 311 313 313 314 314 316 316 317 314 314 314 312 312 313 312 313 316 318 319 318 316 312 316 315 311 314 318 319 319 315 313
306 306 306 310 309 309 310 310 302 307 310 311 311 312 311 311 313 314 314 313 314 314 315 315 314 315 312 313 313 313 316 317 316 313 312 310 313 314 313 312 312 315 315 312 314
306 306 309 310 309 310 310 312 307 307 311 312 311 313 313 312 313 313 314 312 311 312 314 314 312 312 312 312 313 316 316 313 315 315 319 317 316 320 314 317 315 315 315 314 314
305 306 310 310 310 310 311 308 309 311 311 311 312 312 313 313 313 312 310 309 311 309 310 312 309 311 311 312 312 313 312 317 316 316 315 314 320 320 320 319 316 315 316 314 314
305 307 310 310 310 311 312 311 310 312 311 312 312 314 313 312 312 311 309 309 309 309 310 312 312 310 312 314 314 314 315 314 312 313 315 319 317 319 320 320 317 313 313 314 314
306 307 310 310 313 310 312 310 310 312 312 312 312 313 315 312 312 309 309 309 308 309 311 310 312 313 312 311 311 311 312 313 315 311 311 311 313 314 313 313 317 315 315 315 315
310 311 310 310 309 311 312 312 312 313 313 313 313 313 313 315 314 309 309 309 309 309 311 311 314 314 317 312 311 315 312 312 312 314 313 314 310 314 316 316 317 318 317 315 314
309 308 311 310 310 310 313 313 313 311 312 313 314 313 315 313 312 311 310 311 309 310 312 311 314 316 316 318 314 315 314 313 313 315 314 315 316 317 318 318 316 315 316 315 313
309 310 308 311 311 310 311 314 314 316 312 313 314 314 316 316 312 313 311 311 313 314 315 312 314 314 314 314 315 317 315 314 315 314 314 313 319 318 317 317 317 315 313 313 313
312 312 310 311 311 312 312 314 315 314 314 315 315 314 314 317 312 309 310 310 314 315 315 312 312 314 315 317 317 319 317 315 314 314 314 317 319 315 316 314 313 313 314 314 313
310 310 309 313 313 314 314 315 314 315 314 314 313 314 316 316 313 312 309 310 312 316 316 313 314 318 324 322 320 323 321 316 316 316 318 321 318 316 316 316 314 314 314 314 313

GFSSW_925_thetae_024.txt.gz
Theta_e
318 316 314 314 314 314 315 314 314 315 315 316 318 320 322 324 323 322 321 320 319 319 321 321 317 318 318 319 322 319 326 327 325 323 323 321 322 320 319 319 320 320 322 321 324
320 317 315 314 314 314 314 314 314 314 314 313 315 318 320 322 324 324 322 322 324 325 324 320 318 318 317 320 321 326 327 325 322 320 322 321 322 320 322 321 321 322 321 323 324
318 318 317 314 314 315 315 314 314 314 313 313 313 313 318 319 317 317 319 324 325 326 325 320 319 319 319 318 321 325 327 323 324 324 323 323 322 321 323 324 321 321 319 321 327
319 319 318 316 314 314 314 314 314 313 311 313 314 313 313 317 316 317 320 321 324 325 324 320 319 319 319 321 320 323 322 325 326 326 326 327 324 323 321 321 319 319 319 319 320
317 317 319 317 314 314 314 314 314 313 312 311 313 313 314 313 315 315 316 317 322 325 323 321 319 318 319 318 319 321 321 322 321 319 322 324 325 326 324 321 320 319 318 317 317
316 314 316 318 316 313 313 313 313 313 312 311 312 313 313 308 308 309 314 315 323 323 322 321 319 317 320 319 318 317 318 317 318 319 319 321 322 323 323 321 319 318 318 317 316
314 316 314 317 316 314 312 314 313 312 312 312 312 312 312 311 310 311 310 312 315 322 321 321 320 320 319 321 318 319 320 318 318 318 318 321 323 324 321 321 321 319 317 317 316
311 315 314 316 316 315 313 314 311 313 311 310 312 311 308 308 308 310 311 311 312 315 313 316 320 320 321 318 318 321 320 321 317 317 318 321 323 322 320 320 322 321 318 317 317
310 311 314 315 316 315 313 312 312 313 311 311 312 310 308 308 311 309 310 310 311 312 314 313 314 315 316 318 320 320 321 320 318 317 319 322 323 321 318 320 320 318 316 316 315
308 310 313 314 315 315 312 311 313 311 310 310 312 311 309 311 311 311 310 311 310 310 311 312 314 315 315 317 318 318 320 319 319 318 316 318 320 317 316 318 318 317 317 315 315
306 309 310 314 315 315 311 312 311 311 310 309 312 312 310 310 311 311 311 311 310 309 313 311 316 318 317 313 315 316 318 320 318 317 317 317 317 316 314 316 317 318 319 316 315
306 308 309 313 315 315 311 312 310 308 310 309 310 311 311 311 312 311 311 312 312 312 310 312 314 313 312 313 315 315 316 316 314 313 315 315 316 314 313 314 315 317 318 318 316
306 307 309 311 314 314 311 310 309 309 308 309 309 310 311 311 313 313 310 310 312 311 311 312 311 310 312 311 313 313 313 312 312 312 312 313 313 310 309 311 311 312 314 316 317
304 304 306 308 313 313 311 310 310 308 299 305 311 311 311 312 313 312 311 311 312 312 311 313 311 311 311 312 311 313 311 313 314 314 314 311 315 311 310 309 309 310 313 315 316
304 304 304 307 311 312 311 310 309 304 301 308 312 310 312 311 312 311 311 312 314 313 313 314 312 312 314 312 310 312 311 313 314 315 315 314 315 310 309 311 311 313 314 315 316
303 303 304 306 311 312 310 310 308 300 305 312 311 313 314 313 313 312 313 312 312 314 313 312 309 311 310 310 310 312 312 313 314 316 317 313 314 312 309 309 308 309 311 314 315
301 304 305 306 311 310 309 308 308 305 307 311 312 311 312 313 313 314 314 316 316 316 314 315 314 312 312 312 311 312 316 317 317 318 315 311 314 313 308 308 308 309 311 314 314
305 306 306 305 306 309 309 304 306 307 309 311 309 310 311 311 312 313 314 315 314 315 315 313 311 312 312 312 312 313 314 316 318 312 310 309 312 312 310 310 310 310 312 312 312
305 306 305 303 307 309 308 309 307 306 310 312 311 311 312 312 312 313 314 313 311 313 315 315 311 311 312 311 312 315 316 312 317 316 318 314 311 311 312 309 311 310 309 310 311
304 305 306 303 309 308 308 308 308 309 310 310 311 311 313 313 313 314 312 307 311 310 308 310 313 309 310 311 312 314 312 315 315 317 318 311 310 313 313 314 314 313 311 310 311
303 306 307 309 307 310 311 308 309 311 310 311 311 311 311 313 313 312 309 307 308 308 308 310 312 310 312 314 313 316 316 316 315 316 311 311 309 311 315 314 317 315 313 311 312
305 306 309 309 308 310 312 309 311 312 311 311 311 312 312 311 312 310 309 308 307 308 311 310 313 313 310 311 311 311 312 313 314 310 311 309 311 313 315 316 316 316 312 311 311
308 308 310 307 309 311 311 311 311 312 312 312 312 312 313 314 314 311 308 308 308 309 310 310 314 314 313 312 312 313 313 312 312 312 310 310 310 306 309 314 316 315 314 312 311
306 307 310 309 309 311 311 312 312 311 312 312 313 313 312 316 313 313 310 309 308 309 310 310 315 314 315 315 312 314 313 313 313 315 312 311 311 310 310 316 317 316 316 314 311
308 306 306 308 310 310 310 311 312 314 312 312 314 314 315 318 315 314 310 310 310 310 311 312 314 313 314 314 312 314 314 315 314 312 312 310 310 309 315 315 316 314 317 315 314
309 311 310 309 310 310 312 311 312 314 314 314 315 313 314 316 313 311 311 310 311 314 315 314 313 314 315 314 316 315 316 315 313 312 312 312 312 312 314 315 316 316 316 317 313
306 310 310 311 311 312 312 312 313 313 313 313 312 314 315 315 313 314 308 309 311 314 316 315 313 317 319 317 317 321 316 316 314 313 312 314 312 311 312 316 315 313 312 314 313

GFSSW_925_thetae_027.txt.gz
Theta_e
319 318 319 316 314 314 314 315 314 315 315 313 315 319 320 322 324 322 320 320 320 321 322 320 317 317 318 319 322 319 329 329 326 323 323 321 322 321 319 320 321 321 322 321 324
317 317 320 317 314 314 314 315 314 314 314 313 312 315 319 321 323 324 322 322 321 324 322 319 318 317 317 320 322 327 329 327 323 321 323 321 322 322 323 322 323 322 321 321 324
318 318 317 319 317 314 314 315 314 313 314 313 312 313 316 319 317 317 319 325 324 325 325 320 319 318 318 319 321 325 328 323 324 324 324 325 324 322 323 325 323 324 322 320 326
315 318 319 318 318 316 313 315 314 312 313 312 313 312 312 317 314 317 320 321 323 325 323 319 318 318 319 320 319 323 322 324 325 324 325 327 325 327 323 325 321 320 319 319 321
314 315 318 317 318 317 314 313 313 313 313 311 312 313 312 312 315 315 315 317 322 324 323 320 318 317 319 318 319 322 321 321 321 318 319 321 324 325 325 323 321 323 323 322 321
311 313 314 316 316 317 314 312 313 313 313 311 310 313 312 307 307 309 312 318 323 324 323 320 319 316 318 318 318 317 318 318 318 318 318 321 321 321 321 322 323 322 323 321 320
307 310 311 314 316 317 315 313 313 311 312 310 311 311 311 310 310 311 310 313 322 322 322 322 319 319 318 320 318 319 321 319 318 318 319 319 320 321 320 320 321 322 322 323 322
305 308 310 311 315 316 315 315 313 311 312 311 312 310 307 308 309 308 310 311 313 317 318 320 320 320 321 318 318 321 320 321 317 317 318 319 319 318 318 319 321 321 321 321 322
306 306 307 310 313 315 316 314 313 312 312 312 312 308 309 308 309 309 310 310 311 313 313 316 317 316 317 320 319 319 319 320 319 317 319 321 322 320 318 317 319 320 320 320 320
305 305 306 309 311 314 316 312 313 313 311 311 312 311 308 310 310 310 309 310 310 310 312 312 313 315 315 318 318 318 319 318 318 317 316 317 318 316 315 316 317 317 317 318 318
304 305 306 308 308 314 315 313 310 311 310 308 310 310 310 310 311 310 310 310 309 310 314 312 316 316 316 314 314 316 318 318 317 316 314 316 316 315 314 314 315 315 315 316 317
303 304 306 307 308 313 313 311 310 310 310 308 309 311 311 311 312 311 310 311 311 313 310 313 315 313 313 314 315 316 317 318 315 313 313 314 315 314 314 314 314 314 314 315 316
303 304 305 305 307 309 312 311 309 309 307 307 308 309 311 311 313 312 310 309 311 311 311 313 311 310 312 312 314 314 316 315 313 312 311 312 313 310 309 310 311 312 313 313 315
302 303 304 305 307 311 312 310 310 310 300 305 310 310 311 312 312 311 310 311 311 313 311 312 311 311 311 313 312 314 311 312 313 313 313 310 314 310 310 310 309 308 309 311 312
303 303 304 304 304 308 311 309 309 304 300 306 311 310 311 311 310 311 311 312 313 313 312 313 312 312 313 312 310 312 310 311 312 314 313 313 314 312 309 310 311 310 309 309 311
302 302 303 303 304 304 309 308 306 306 302 313 311 313 314 312 313 311 312 312 312 313 313 310 309 310 311 311 310 311 312 313 314 315 318 313 314 313 311 309 308 309 310 310 313
303 304 303 303 304 305 309 307 308 304 307 312 312 313 313 313 314 314 314 315 315 316 314 313 315 312 311 312 310 312 316 317 318 319 316 311 314 313 310 310 309 309 308 308 309
304 305 305 304 304 305 307 308 305 307 309 309 310 311 312 312 312 313 314 315 314 314 316 315 311 313 312 313 313 313 314 317 317 316 313 309 315 313 310 310 310 309 309 309 309
305 305 305 305 305 304 308 311 307 307 310 311 310 311 311 310 311 313 313 313 312 314 316 313 312 310 311 311 311 314 315 312 315 314 318 315 311 309 309 309 311 313 314 312 309
305 304 305 305 303 304 306 310 307 308 310 309 312 310 311 312 312 313 312 308 311 310 312 310 311 308 310 311 311 314 311 315 315 316 317 315 313 313 309 310 315 316 317 315 311
304 306 305 304 304 306 310 308 310 309 309 310 310 311 311 312 311 313 309 307 307 308 309 309 309 308 311 312 312 315 316 315 314 315 315 312 312 306 307 316 316 316 316 315 313
304 308 305 308 305 304 311 309 311 311 310 311 310 310 310 311 312 312 310 307 306 307 311 309 310 310 309 309 310 310 313 312 316 315 315 311 311 314 314 314 316 316 316 314 312
305 308 307 305 309 310 310 311 311 312 311 311 312 312 312 311 312 310 308 307 307 308 309 309 312 311 311 311 310 313 313 313 313 314 315 314 311 307 308 312 316 316 316 314 311
305 309 306 307 308 310 311 311 313 310 312 312 313 312 312 314 312 312 310 309 307 308 310 310 312 312 314 315 314 315 314 313 313 315 314 313 311 309 308 308 311 316 316 316 312
306 306 305 308 308 310 309 311 312 312 311 312 313 313 313 315 313 313 310 309 308 309 310 311 314 313 313 313 313 313 314 314 314 313 314 311 310 309 308 308 315 315 314 316 314
310 310 307 308 310 310 311 309 311 313 312 313 313 313 313 316 313 311 310 309 310 308 310 312 315 314 315 314 315 315 317 315 314 313 313 312 312 309 312 313 313 311 312 316 315
305 307 309 309 310 311 310 309 310 312 312 312 312 313 315 313 313 312 313 309 310 313 313 315 314 316 318 317 319 322 320 316 315 313 313 315 312 310 311 312 312 311 312 313 315

GFSSW_925_thetae_030.txt.gz
Theta_e
318 319 318 319 316 315 314 314 315 315 315 315 313 317 320 321 322 323 323 322 321 321 320 321 319 319 320 321 326 326 325 325 324 324 323 323 323 323 323 324 325 324 325 325 327
315 317 319 319 319 316 315 313 314 314 314 314 314 316 318 320 324 324 322 322 322 323 322 320 320 319 321 322 325 326 326 325 324 324 323 323 324 324 324 325 325 326 325 324 327
312 315 316 318 319 318 316 314 313 314 313 313 313 313 315 319 321 321 321 325 326 325 322 320 320 319 321 322 324 325 327 323 325 324 324 325 326 325 325 325 326 326 326 325 326
309 312 314 315 317 318 317 315 313 313 312 312 312 313 312 318 321 319 320 321 324 325 324 322 320 321 322 322 321 324 323 324 324 325 326 327 325 326 325 324 323 325 325 325 326
307 308 311 313 315 317 318 316 314 313 312 312 311 312 313 315 317 315 315 316 321 324 324 322 322 321 322 321 322 322 321 321 322 322 322 322 323 323 323 324 324 325 325 326 327
305 307 307 311 312 315 316 315 315 314 311 311 310 313 312 310 308 310 313 318 322 323 324 322 322 320 321 321 321 320 321 321 321 321 320 321 321 321 321 321 321 322 322 323 325
303 306 306 307 310 313 315 316 315 314 311 310 310 312 313 313 310 311 311 315 320 323 323 322 320 320 321 322 320 321 323 321 321 320 320 320 321 321 320 320 320 321 321 322 322
302 305 306 307 308 310 315 317 314 313 312 311 312 311 313 308 310 309 311 313 318 319 321 322 320 321 321 320 320 321 321 324 320 319 320 320 321 319 319 320 321 321 321 321 321
302 304 305 306 307 309 313 316 314 313 313 313 312 311 314 308 310 310 311 314 315 314 315 320 320 319 320 322 322 321 323 322 321 318 319 320 323 321 321 320 321 321 322 323 323
303 303 305 306 307 308 311 315 314 312 313 313 311 312 311 312 310 310 310 312 314 315 315 315 316 317 317 320 323 320 321 320 320 318 318 319 320 319 319 319 319 320 321 321 321
302 303 304 305 306 307 309 316 312 312 311 313 313 311 311 311 311 311 311 311 313 315 317 316 318 318 317 315 317 317 319 319 318 317 317 317 317 317 316 317 317 317 317 318 319
303 303 304 304 305 306 306 312 312 311 313 311 312 311 311 311 312 312 311 313 315 317 315 315 316 315 314 315 315 316 318 318 316 315 315 315 316 315 314 315 315 315 315 315 316
303 303 303 303 305 305 306 311 310 310 313 311 311 311 313 312 313 313 311 312 314 315 316 316 314 312 314 315 315 315 315 315 316 315 313 314 315 315 314 313 313 313 313 314 314
302 303 303 303 304 304 308 308 310 308 315 311 311 312 311 312 313 312 311 312 314 315 314 315 313 312 314 315 314 316 313 314 315 315 316 313 319 315 314 314 313 313 313 313 314
303 302 303 303 304 304 305 311 308 307 320 309 310 310 311 311 312 313 311 312 314 314 314 315 314 315 314 314 313 314 312 313 313 314 314 315 316 314 313 314 313 314 314 314 313
302 303 304 303 303 303 304 307 306 312 316 312 311 314 313 311 312 313 313 312 312 313 313 313 312 313 313 312 312 312 313 313 314 315 319 315 316 316 315 315 314 313 313 313 313
302 304 304 304 304 304 305 305 311 318 309 312 311 314 312 312 313 313 315 315 316 317 317 314 314 313 311 313 312 313 316 316 319 319 317 313 316 316 313 312 313 313 313 312 314
305 305 306 305 303 303 306 308 316 310 312 310 312 313 314 311 313 314 315 316 313 314 316 317 318 314 313 313 313 314 314 317 316 316 314 312 315 314 313 312 312 312 314 317 318
303 303 305 305 304 305 306 312 315 310 310 311 312 313 312 312 312 313 314 313 313 313 315 317 315 311 313 313 312 315 316 314 316 316 318 314 312 312 312 312 311 314 316 317 318
302 304 305 304 304 303 306 314 309 310 310 311 313 311 311 312 313 312 313 311 312 312 313 314 315 310 311 312 312 313 313 316 316 315 315 313 313 313 312 312 317 315 316 318 318
303 304 305 304 303 304 312 312 312 310 310 312 312 312 312 313 313 313 313 310 311 311 312 312 311 311 311 312 313 313 315 316 314 315 315 314 313 311 310 311 314 315 316 318 318
303 306 304 303 306 307 313 312 311 311 311 312 311 312 313 313 313 314 313 310 308 310 313 311 311 311 312 310 310 310 312 312 317 316 315 315 316 311 314 315 316 314 314 317 317
304 307 304 305 311 312 310 313 312 312 312 312 313 313 311 313 314 313 311 309 308 310 312 311 313 314 316 314 312 312 312 312 314 315 317 318 315 310 312 314 312 312 314 315 317
307 308 306 306 309 311 313 313 313 312 312 313 313 312 314 314 312 313 312 311 309 310 310 311 313 314 315 318 316 316 315 314 314 316 316 316 315 312 311 310 310 310 311 314 316
308 306 306 309 310 311 311 312 313 313 312 312 313 314 314 315 313 314 311 311 310 310 311 312 314 313 314 313 314 315 315 315 315 315 316 315 314 313 312 311 310 310 312 313 316
308 309 308 309 309 311 311 313 313 313 313 314 314 313 313 314 313 314 312 313 312 311 312 312 314 314 315 314 315 318 318 319 318 316 316 315 316 312 312 312 311 313 312 312 316
303 305 310 309 311 311 312 311 312 313 312 312 312 313 314 314 313 313 311 311 310 313 313 314 314 316 318 316 317 323 322 320 318 315 316 317 314 313 312 311 312 312 313 315 315

GFSSW_925_thetae_033.txt.gz
Theta_e
313 316 318 318 319 319 317 316 315 315 315 315 315 314 317 320 321 323 323 323 323 322 320 322 320 320 321 323 323 326 328 326 325 323 323 323 323 324 324 324 324 325 326 328 329
310 311 314 317 318 319 318 317 316 315 315 314 315 314 317 320 323 323 323 323 322 323 323 321 321 321 322 323 323 328 326 324 322 323 323 324 324 324 324 324 324 326 326 326 329
308 309 311 313 316 317 319 317 316 316 314 313 313 313 313 318 322 323 322 324 325 325 323 321 320 321 323 322 323 325 326 323 322 325 325 324 324 324 325 326 324 324 326 326 328
305 307 308 309 312 314 317 319 316 316 315 312 311 312 311 318 324 322 322 324 326 326 324 321 321 321 322 324 323 325 323 323 323 324 326 326 324 325 325 325 324 324 326 327 327
304 303 305 307 309 311 314 317 317 316 315 312 310 312 313 318 319 318 317 317 321 325 325 323 322 322 322 321 321 323 323 321 322 323 324 324 324 324 325 324 324 324 325 327 326
303 304 304 307 307 309 311 315 317 316 315 312 309 312 314 314 311 314 314 317 320 323 325 323 324 322 323 322 322 322 322 321 322 322 322 322 322 321 321 321 321 322 323 324 325
303 304 303 305 306 308 309 312 316 315 315 314 310 313 314 315 311 312 312 317 321 322 324 323 322 322 322 323 321 322 324 323 322 322 322 321 323 322 321 321 321 321 321 321 322
303 303 304 305 306 307 308 311 315 315 314 313 311 312 314 311 312 312 312 316 319 323 323 323 321 321 322 321 321 322 322 325 322 321 321 320 322 321 320 321 321 321 321 321 321
303 303 303 304 305 307 307 309 312 316 314 313 313 314 316 310 310 310 312 317 317 319 322 322 321 322 322 324 323 323 325 325 323 321 321 322 324 322 322 322 321 322 322 322 322
303 303 303 303 305 306 307 307 312 315 313 313 313 314 312 313 312 311 312 316 317 318 321 321 321 321 320 324 327 325 325 323 322 321 320 321 321 320 320 320 321 321 322 322 322
303 303 304 303 303 304 307 306 316 316 314 315 315 313 313 312 311 311 312 316 316 317 318 316 318 320 320 321 321 319 320 321 320 319 319 319 319 318 318 317 318 318 319 320 320
303 303 303 304 304 304 305 305 310 311 314 312 313 313 312 312 313 312 312 315 316 318 317 318 320 318 317 316 317 318 319 319 318 316 316 317 317 316 316 316 316 316 317 318 318
302 301 302 303 304 304 306 304 306 310 316 314 313 313 313 313 314 313 313 314 316 317 316 319 317 314 316 316 317 317 317 317 317 316 316 316 317 317 317 316 316 316 315 316 316
301 302 303 303 303 304 306 306 304 310 314 314 314 313 313 313 315 313 312 313 314 316 316 317 315 314 315 316 316 318 315 315 315 316 319 314 320 316 315 316 316 315 314 314 315
302 303 303 301 303 305 306 305 308 308 322 314 313 311 312 313 314 314 311 313 315 315 315 317 315 316 315 315 314 316 314 314 315 316 315 316 318 316 315 316 315 315 315 315 315
303 302 304 305 303 303 305 307 307 310 323 313 312 313 313 313 314 314 313 313 313 313 314 315 313 314 315 314 314 313 313 313 314 315 319 316 316 317 316 315 316 316 316 314 314
303 302 305 304 304 303 305 305 310 317 311 314 312 313 313 312 313 315 315 314 316 318 317 315 314 313 313 314 313 314 316 318 320 320 318 314 317 316 314 314 314 314 314 314 314
302 303 306 304 304 305 303 306 317 315 313 311 313 313 313 312 313 313 314 315 314 314 316 316 320 315 313 314 314 313 314 317 318 318 317 315 315 314 314 313 313 313 313 313 316
302 303 305 306 304 303 307 311 318 313 311 313 313 315 315 312 314 314 315 315 314 314 317 318 317 313 314 313 313 314 316 313 316 314 316 313 313 313 313 313 313 313 312 313 317
303 303 305 305 304 304 309 308 313 311 311 313 314 312 314 313 314 313 314 313 313 313 313 315 317 312 313 312 312 314 314 316 317 317 317 315 315 314 313 313 313 313 316 317 317
302 306 305 304 304 306 312 313 312 310 311 313 313 312 311 313 314 314 314 312 313 313 313 312 313 313 311 313 314 314 314 315 315 317 318 317 316 313 312 312 311 316 315 316 316
303 305 304 304 308 309 313 313 311 311 312 312 312 313 313 313 315 315 315 312 311 312 313 312 311 314 313 311 311 312 313 313 318 316 317 317 317 313 311 312 314 314 314 314 315
305 305 304 305 312 313 311 313 312 312 313 314 314 313 313 314 315 315 314 311 310 312 312 312 313 315 318 315 312 313 313 312 315 316 319 318 317 312 311 311 312 314 313 312 313
307 306 305 307 310 312 314 314 314 313 314 314 314 313 314 315 314 315 313 312 310 310 311 312 312 314 317 321 317 316 315 315 316 318 317 317 316 315 313 313 312 312 312 311 312
309 308 308 312 312 313 313 314 314 314 314 314 314 315 315 316 315 314 313 313 312 311 311 312 316 313 314 314 315 316 316 317 317 317 318 317 317 316 315 314 313 313 312 311 312
307 310 309 310 311 313 312 313 314 314 314 315 315 314 314 315 314 314 312 312 313 312 312 312 315 315 315 313 315 318 317 319 320 320 320 317 318 316 314 313 312 312 312 312 313
303 305 310 309 311 312 312 313 313 313 313 313 314 314 315 314 313 313 312 312 312 313 313 313 315 316 316 316 316 324 322 321 320 320 320 321 318 316 314 313 313 314 313 314 314

GFSSW_925_thetae_036.txt.gz
Theta_e
308 310 312 314 316 318 319 319 317 317 316 316 316 316 312 316 320 322 321 322 323 323 319 324 322 321 320 323 322 324 329 327 326 324 323 321 322 323 323 322 323 324 324 327 338
306 306 308 310 312 314 317 319 318 317 316 316 315 313 313 317 320 321 320 322 324 323 322 322 322 321 321 322 323 326 329 329 324 322 323 322 322 323 323 322 322 323 325 327 331
305 305 305 307 309 311 313 316 319 317 316 315 315 311 311 316 321 320 322 323 325 324 323 321 321 321 322 321 322 324 327 323 322 321 325 325 324 323 324 324 322 321 323 324 328
305 305 305 305 306 308 311 313 316 319 317 315 314 311 311 316 323 323 324 324 325 325 325 323 320 322 323 323 321 323 323 323 323 323 325 325 324 324 322 322 322 321 322 325 325
306 306 305 304 305 306 309 311 314 317 316 315 312 311 312 318 319 320 319 324 324 325 325 326 321 321 322 320 322 322 322 322 322 322 322 324 324 324 323 321 321 321 322 323 326
306 305 305 304 304 306 307 310 312 315 316 315 313 312 314 314 314 316 315 316 318 323 325 325 322 321 322 321 320 321 321 321 321 320 321 322 321 321 320 319 320 320 320 320 322
305 305 305 304 304 305 306 308 310 313 317 315 314 312 314 315 312 312 314 316 320 321 325 325 323 322 322 323 322 321 322 322 321 321 321 320 322 321 319 319 319 318 318 319 319
305 305 304 304 304 304 306 307 309 310 316 313 314 312 314 313 314 312 312 315 319 322 322 324 322 322 322 321 322 323 323 325 321 321 321 320 322 320 319 319 319 318 318 317 318
304 304 304 304 304 304 305 307 308 309 313 313 314 313 314 311 311 313 312 315 317 322 322 323 322 322 323 324 324 322 324 323 323 321 321 321 322 321 320 320 319 318 317 318 318
304 304 304 304 304 304 304 306 305 308 313 313 313 314 313 314 311 311 312 317 317 319 323 323 321 323 323 324 325 323 324 322 322 321 320 320 320 319 318 318 317 318 318 317 318
303 304 304 303 304 303 303 306 311 313 315 314 314 313 312 313 312 311 313 316 317 319 322 323 323 324 321 321 321 324 321 320 318 318 318 317 317 317 316 316 316 316 316 317 318
303 303 302 303 303 304 304 305 305 308 315 313 314 313 313 312 313 313 314 317 318 322 318 318 319 318 318 320 321 318 318 318 317 316 315 315 315 314 314 314 314 314 314 315 315
302 302 303 303 302 302 304 304 304 303 313 313 313 313 313 313 314 314 314 315 318 318 317 318 317 317 318 317 317 317 317 317 316 314 313 314 315 315 315 314 314 314 314 313 314
302 303 303 302 303 303 304 305 305 303 311 317 315 314 313 314 314 313 313 315 316 318 316 317 315 314 315 317 316 318 315 316 316 315 317 314 317 313 313 313 313 311 311 312 312
303 303 304 305 302 302 305 304 304 305 318 314 314 312 313 314 314 313 312 313 315 316 316 317 316 316 316 315 315 315 314 314 315 315 314 314 314 313 313 313 313 312 312 312 311
303 303 304 304 304 302 302 304 304 310 317 316 313 314 315 315 315 313 313 313 313 314 314 315 313 314 315 313 314 313 313 313 314 314 315 314 315 313 313 313 312 312 312 311 311
302 303 304 305 305 303 304 303 308 313 312 315 315 314 314 315 315 314 315 315 315 316 317 314 314 313 313 315 314 314 315 315 317 318 314 313 315 313 312 312 312 312 311 311 311
303 303 305 304 304 305 304 307 314 315 316 311 314 314 314 314 315 314 316 316 314 313 317 316 317 315 313 314 315 315 314 314 317 317 316 312 315 312 312 312 311 312 311 311 312
303 303 304 304 304 304 307 308 314 314 312 314 314 314 314 313 314 314 314 314 313 313 316 317 317 314 313 313 314 314 314 312 313 312 311 312 311 310 311 311 310 310 310 309 311
306 304 305 304 304 304 309 311 312 312 312 312 314 313 313 313 314 315 315 313 313 312 312 315 316 313 314 312 312 313 312 316 314 313 314 314 313 313 312 311 310 309 312 313 314
303 306 304 304 304 306 309 310 312 311 311 314 312 312 312 313 314 314 313 313 312 313 312 312 314 313 312 313 314 313 314 314 314 316 316 316 314 312 311 310 310 310 314 314 315
302 305 303 304 305 307 312 313 311 312 312 312 312 311 311 312 314 313 314 313 312 312 313 312 312 311 312 311 311 312 312 311 313 312 314 315 315 312 311 310 310 309 314 313 312
306 306 304 304 310 312 310 312 312 313 314 314 314 313 311 313 314 315 314 311 311 312 313 312 311 311 315 313 310 312 312 312 313 314 315 316 314 311 310 311 311 310 309 310 311
308 306 307 307 309 310 313 313 314 314 315 314 313 314 313 315 314 315 314 311 310 312 312 311 313 312 313 317 316 314 314 313 314 317 315 315 314 313 313 313 314 314 311 310 310
310 308 308 311 312 312 313 313 313 315 314 314 315 315 315 315 315 314 313 312 311 311 311 312 313 311 312 311 311 312 314 315 316 316 318 316 317 316 316 316 315 313 312 311 310
308 309 310 309 312 313 312 315 315 315 315 315 315 314 314 315 314 315 312 312 313 312 311 312 313 312 310 312 312 313 314 315 318 320 321 320 320 317 316 315 313 313 314 313 312
303 305 308 310 311 312 314 313 314 314 314 314 314 314 315 314 313 313 312 312 312 312 312 314 313 315 311 314 314 319 318 321 320 320 321 321 320 317 318 318 316 314 313 312 312

GFSSW_925_thetae_039.txt.gz
Theta_e
306 306 307 307 309 312 314 316 318 319 317 317 316 316 316 313 316 320 322 319 320 325 322 324 323 321 321 319 320 319 322 324 325 325 323 319 320 321 321 321 321 321 324 332 339
307 306 306 306 307 308 310 313 315 319 318 317 316 315 315 314 317 319 320 320 324 324 325 320 322 320 318 319 320 321 324 326 322 321 320 321 322 320 321 321 321 321 325 335 338
306 306 306 306 305 306 307 310 313 315 319 317 316 314 313 313 319 319 317 322 324 325 323 320 320 319 320 319 319 320 325 324 324 321 322 323 322 321 321 321 319 320 321 324 332
307 306 307 305 306 305 305 307 310 313 316 317 316 313 312 315 319 322 324 323 324 325 321 324 322 320 321 321 319 321 321 322 322 321 322 323 323 323 322 320 318 320 320 322 323
307 306 306 306 305 305 305 305 308 312 314 318 315 314 313 316 317 319 317 325 325 323 325 325 323 319 321 319 319 320 320 320 319 320 319 320 322 322 321 319 318 317 318 320 321
306 306 305 305 305 304 304 305 306 310 312 315 314 314 314 316 315 316 318 324 324 324 324 324 322 317 319 318 318 319 319 320 319 319 319 320 319 320 319 317 316 316 316 316 317
305 304 306 305 305 305 304 305 307 308 311 313 313 314 314 314 311 314 314 315 317 321 324 324 323 321 320 321 320 319 321 320 320 320 320 319 320 319 317 317 317 316 314 315 315
304 304 305 305 305 305 304 305 306 307 309 312 313 313 314 312 312 313 312 314 319 321 322 323 322 321 322 320 321 321 321 324 320 320 319 319 321 319 316 316 317 317 317 315 316
304 304 304 304 304 304 304 305 305 307 309 311 314 312 313 312 313 313 312 313 317 321 322 323 321 322 322 323 324 321 321 322 322 319 320 319 321 319 317 317 315 315 316 316 316
304 304 302 304 304 304 304 304 304 307 308 312 312 312 312 313 311 313 312 313 317 321 323 324 322 323 322 324 325 321 321 320 320 319 319 319 318 317 316 315 314 313 313 313 314
303 303 303 303 303 304 304 303 305 308 310 314 313 313 314 313 311 312 311 316 316 319 323 324 323 325 320 320 320 321 323 318 316 316 314 316 315 314 314 313 315 315 312 313 315
303 303 303 304 304 303 303 303 304 303 308 312 313 313 312 312 313 312 312 317 318 321 317 319 320 321 321 320 322 320 319 316 314 314 313 313 313 312 312 312 313 313 311 311 313
302 302 303 304 304 302 302 303 304 303 307 313 314 314 312 313 314 313 315 316 318 320 318 317 316 316 317 318 319 316 316 316 315 313 311 311 312 311 311 311 311 312 312 312 311
302 303 304 304 303 302 304 304 304 303 309 314 315 314 313 314 314 312 314 315 317 319 318 317 315 315 316 317 315 317 313 314 315 313 314 311 314 310 310 310 310 309 308 311 311
302 303 303 304 304 303 303 304 303 302 313 313 315 313 313 314 313 313 312 314 315 317 316 316 315 316 315 315 314 315 313 313 313 312 311 311 311 310 309 311 310 309 306 306 307
302 303 304 304 304 304 303 303 303 307 312 316 314 315 314 314 314 312 314 313 313 315 314 314 312 313 314 313 313 312 312 312 312 311 309 310 311 309 309 311 311 310 309 307 308
303 304 304 305 305 304 302 303 305 309 310 315 317 315 315 316 314 313 315 314 313 315 316 315 314 312 312 313 312 314 310 306 314 316 311 310 312 310 309 309 309 309 309 309 308
304 305 303 305 304 304 303 303 305 314 314 314 315 315 316 315 314 315 315 313 313 312 310 311 311 313 311 312 313 313 312 306 313 313 313 311 312 311 309 310 308 309 308 308 307
305 303 304 304 303 304 306 304 310 313 314 316 314 316 316 314 315 315 315 314 312 312 311 311 314 313 312 312 312 313 308 309 309 309 303 309 308 308 309 307 306 307 307 306 306
304 303 304 304 304 304 306 310 307 310 313 313 316 313 316 314 315 313 314 312 312 310 311 314 316 314 314 313 312 310 310 312 305 306 311 310 310 311 310 309 308 307 307 311 312
302 305 303 304 303 305 306 309 307 312 312 314 313 313 312 314 313 314 313 312 310 310 311 312 313 313 313 312 311 312 313 313 309 310 312 314 312 308 309 310 309 307 310 312 311
301 302 303 304 304 307 311 312 306 310 312 313 309 310 310 312 313 312 312 311 310 311 312 312 311 312 310 309 309 310 310 309 305 306 308 310 313 310 310 309 309 310 311 310 310
301 301 303 304 309 310 310 309 309 315 315 314 313 311 310 312 311 312 311 310 311 311 313 311 308 304 311 310 309 311 311 310 309 311 308 314 313 308 309 310 310 311 314 314 309
301 300 302 306 308 307 311 311 312 314 314 312 311 310 313 314 312 314 312 310 309 312 314 310 310 306 308 312 311 308 312 310 311 315 313 313 312 311 311 314 315 316 314 314 312
306 304 306 306 310 311 313 312 316 316 314 314 314 313 314 315 314 314 312 310 310 311 310 309 306 309 309 311 308 308 311 312 313 313 316 314 315 315 316 317 317 316 313 313 311
306 308 306 306 311 310 312 315 316 314 314 313 314 313 312 314 313 313 313 311 311 310 310 309 308 306 306 310 311 311 311 311 312 313 314 315 318 317 317 316 317 314 313 314 312
303 304 307 307 308 310 311 312 313 313 313 312 313 314 315 313 311 310 309 309 310 309 310 311 308 304 304 310 311 316 314 313 317 319 320 322 319 317 318 318 315 312 312 313 312

GFSSW_925_thetae_042.txt.gz
Theta_e
307 306 307 307 307 307 307 310 313 315 316 319 317 317 316 316 315 315 319 319 317 324 320 323 322 320 320 318 318 315 320 323 324 322 321 319 319 317 319 319 320 320 328 333 337
307 308 307 307 307 306 306 306 310 312 315 317 318 317 316 315 315 317 316 320 321 325 325 324 322 320 318 318 318 319 320 322 320 321 321 319 322 320 318 320 320 325 328 336 338
308 307 307 307 307 306 306 305 306 309 312 315 319 317 315 313 317 318 315 321 323 324 324 325 320 319 320 318 318 319 323 321 322 322 321 322 321 321 321 320 318 320 329 329 334
308 308 307 307 307 307 305 305 305 307 310 313 316 316 314 314 316 321 325 321 324 326 324 322 321 321 320 321 318 321 319 321 322 321 320 321 322 322 321 320 319 318 318 318 326
307 306 305 306 306 306 306 304 304 305 308 312 314 315 313 314 316 316 319 323 324 325 322 323 323 320 321 319 319 319 319 319 319 319 318 318 320 321 320 318 317 315 317 318 317
306 306 305 305 306 306 305 305 304 305 307 310 313 313 313 314 313 315 318 324 324 324 324 324 323 318 319 319 319 318 318 319 319 319 318 320 318 318 318 317 316 316 315 314 315
305 305 305 304 305 305 305 305 305 306 306 309 312 313 313 312 312 316 320 323 323 323 323 323 323 320 318 321 318 319 320 319 319 319 319 319 320 318 316 315 316 315 314 314 313
304 304 305 305 305 305 305 305 305 305 306 307 310 314 312 310 312 312 314 315 319 320 323 322 323 320 320 319 319 320 319 322 319 319 318 318 321 318 315 315 315 314 313 313 314
304 304 304 303 304 304 304 305 305 305 306 307 309 313 312 310 312 312 312 313 316 319 320 323 322 322 321 320 320 320 320 321 320 318 319 318 320 317 316 315 314 314 312 312 313
303 303 304 304 304 303 304 304 301 305 306 308 309 311 311 313 312 312 312 313 317 321 322 323 324 325 324 322 324 321 321 319 320 317 317 318 318 317 315 314 315 313 312 312 312
303 303 303 303 304 304 304 302 302 305 306 311 313 312 311 312 312 313 312 312 317 320 323 323 324 325 325 322 318 318 322 323 317 314 313 313 312 311 311 310 311 313 312 312 311
302 302 303 303 304 304 303 302 303 303 305 307 310 311 312 311 313 313 312 317 318 322 320 324 325 320 320 321 321 321 321 318 314 313 313 312 312 311 311 311 311 312 312 311 311
302 303 303 304 304 303 302 302 303 303 306 308 310 312 312 312 313 313 314 316 318 320 316 321 318 318 320 320 323 318 315 315 315 312 311 310 311 310 309 309 309 310 310 310 310
301 302 303 304 304 303 303 303 303 304 306 309 312 314 313 313 313 312 315 316 318 320 316 316 314 317 318 318 314 317 313 314 313 313 313 310 314 309 309 308 307 306 306 307 308
302 302 303 304 305 303 303 303 303 302 303 312 313 313 313 314 313 314 312 314 317 318 316 316 315 314 315 315 313 314 312 312 312 311 310 310 311 309 307 310 309 309 307 305 304
304 304 304 305 303 303 303 303 303 306 307 316 315 316 315 313 313 313 314 312 314 316 314 313 312 313 313 312 312 311 310 309 310 307 306 308 310 308 308 309 310 309 306 305 305
304 304 305 304 305 304 303 304 301 307 307 313 316 315 314 315 315 315 316 314 314 318 317 315 314 312 312 312 312 310 308 307 306 304 309 309 310 309 307 308 308 307 306 305 306
305 304 304 304 303 303 302 302 305 310 314 314 314 314 316 314 315 316 315 314 313 310 313 313 312 312 311 312 312 313 309 306 309 312 311 309 313 309 307 306 305 306 305 305 304
303 303 304 303 303 303 304 302 307 310 313 315 315 318 317 314 315 315 314 312 312 310 311 308 311 312 311 311 310 312 309 308 307 305 303 308 306 304 306 306 306 306 306 307 304
302 303 303 303 303 303 305 310 308 305 313 313 315 314 316 315 315 315 313 311 311 310 310 311 312 313 313 312 312 309 308 307 299 304 308 308 308 308 308 309 307 306 308 310 310
302 304 303 304 303 304 307 310 308 309 312 313 313 312 313 313 312 313 312 311 310 310 310 312 310 313 314 312 312 313 312 310 307 306 310 311 311 306 308 309 307 306 306 308 309
299 301 303 304 303 307 309 308 304 309 312 313 308 311 312 312 312 312 311 310 308 309 312 311 309 304 313 309 308 309 310 307 302 303 305 307 312 308 307 308 308 310 310 312 312
299 302 303 304 310 307 309 309 307 314 314 313 310 309 310 310 312 311 310 309 309 311 311 310 306 303 309 308 308 310 309 308 307 309 302 310 311 307 305 310 311 314 315 315 314
299 298 303 306 307 308 308 311 314 312 313 310 309 309 312 312 310 313 310 310 310 312 314 310 307 305 308 305 305 305 310 309 310 313 308 309 310 310 310 312 314 316 316 314 312
303 302 304 306 311 311 311 313 314 315 312 311 312 313 313 314 313 313 311 310 310 311 310 307 305 306 307 309 306 308 310 310 306 310 309 311 312 312 312 313 315 317 314 314 313
305 306 305 308 310 309 310 312 314 313 313 313 313 312 311 314 312 313 310 310 310 309 309 307 303 304 306 309 309 309 309 309 309 310 311 311 312 311 312 316 318 312 311 311 312
301 304 306 306 308 309 310 311 312 311 311 312 312 313 314 313 310 308 308 307 308 308 309 309 305 304 306 308 309 312 311 311 311 310 312 317 317 316 317 318 311 309 306 303 302

GFSSW_925_thetae_045.txt.gz
Theta_e
309 309 308 308 308 308 308 306 306 308 311 314 316 319 317 316 315 315 316 316 317 322 325 324 325 322 319 318 316 314 320 322 321 320 320 318 320 319 317 316 318 318 328 329 336
309 309 309 308 309 308 308 307 307 306 307 311 314 317 317 314 314 315 312 315 320 321 323 321 321 318 318 318 317 317 318 321 319 319 321 319 321 320 320 317 318 324 330 333 334
308 308 309 308 308 308 307 307 306 306 306 309 312 314 318 314 315 314 309 314 321 322 324 324 321 319 319 316 318 318 320 318 321 321 320 320 319 321 321 321 318 318 320 324 333
307 307 307 307 307 307 307 307 306 305 305 307 310 314 316 313 315 318 324 320 323 323 324 322 319 320 320 320 317 321 319 320 320 320 320 320 319 322 321 320 319 318 316 316 326
306 306 306 306 305 306 306 306 306 305 305 305 309 313 313 313 313 314 317 323 323 324 324 321 320 320 321 319 319 319 319 319 319 319 318 317 318 319 319 317 317 316 315 315 314
305 305 305 305 305 304 306 306 305 305 306 306 308 312 313 312 309 309 312 322 323 324 322 321 321 318 319 318 319 318 318 319 318 318 318 319 318 317 317 315 316 314 315 313 313
305 305 305 305 305 305 305 305 305 305 306 306 307 310 313 312 310 314 318 322 323 324 322 322 321 318 318 320 316 318 320 319 318 318 318 317 319 317 316 315 315 315 312 313 312
304 304 304 304 304 304 305 305 305 305 305 306 307 310 315 311 311 313 314 321 321 322 322 322 322 320 319 318 318 319 318 321 318 318 317 318 320 317 314 314 314 313 314 312 312
304 304 303 304 304 304 303 305 305 305 305 306 307 309 313 311 312 312 312 313 319 321 322 321 322 321 320 320 319 318 319 321 320 317 318 317 319 317 315 314 314 313 313 311 312
303 303 303 303 304 304 304 304 302 305 305 305 307 312 311 312 311 311 312 312 316 319 322 323 324 322 321 320 323 321 320 318 319 316 315 317 317 316 315 314 313 312 312 312 311
303 303 303 303 304 305 304 302 301 302 305 305 309 310 312 311 312 312 312 311 319 320 324 323 325 326 324 320 318 317 320 320 318 315 313 312 311 311 311 309 309 310 312 312 312
303 302 303 303 304 304 304 303 301 302 303 304 306 311 312 312 313 313 312 314 320 324 321 325 325 322 323 323 323 321 321 319 314 312 313 311 311 311 310 311 311 311 311 311 311
302 302 302 303 304 303 303 302 301 302 304 305 307 312 313 312 314 314 312 316 319 321 320 321 320 321 322 322 324 321 319 316 315 312 310 309 310 310 308 308 308 308 309 309 310
304 304 303 304 304 304 302 302 302 303 297 308 308 312 313 313 314 312 314 316 318 319 317 317 313 320 320 321 319 317 313 313 313 313 315 310 314 310 308 307 307 306 304 306 306
305 304 304 304 304 304 303 303 303 303 289 307 311 312 313 314 312 313 312 314 317 317 314 316 314 317 319 318 314 315 311 312 311 310 309 310 311 310 306 308 308 308 306 305 303
306 305 303 304 302 303 303 303 302 299 307 312 312 313 313 314 314 313 315 312 314 315 313 313 312 312 312 311 312 311 309 307 307 307 307 308 309 308 307 308 305 306 305 303 302
304 304 303 304 302 303 303 303 298 297 308 313 314 315 313 316 316 316 315 314 317 319 318 314 312 311 311 312 311 309 310 306 305 304 309 308 310 309 307 307 307 306 304 302 301
303 303 303 303 304 303 302 300 302 309 310 314 315 314 318 315 317 316 314 314 312 313 314 314 316 312 311 312 313 311 309 307 309 309 309 308 312 309 306 304 305 306 306 307 307
302 303 303 303 303 302 305 305 307 308 308 316 315 317 316 315 316 316 314 313 312 310 311 309 311 311 311 310 310 311 307 307 306 303 303 308 305 303 305 305 305 305 306 306 307
302 302 303 303 303 303 305 308 307 304 308 312 316 315 315 314 317 314 314 312 311 310 309 309 313 313 312 311 310 310 307 308 299 301 308 306 306 305 307 307 307 306 305 304 305
301 300 302 303 303 301 306 309 307 308 313 313 312 312 312 312 314 313 313 311 310 310 310 309 310 315 313 312 312 311 309 307 306 305 308 309 308 304 307 308 307 306 307 306 309
297 297 302 303 299 304 310 309 305 310 311 312 309 311 311 310 311 312 311 310 308 308 311 309 307 315 314 308 308 309 309 306 302 303 308 309 309 306 305 307 306 309 313 314 315
298 299 303 304 308 309 307 309 309 313 313 312 309 309 309 310 311 310 310 309 308 309 310 308 305 303 307 308 307 310 309 306 305 302 299 305 308 306 305 308 308 311 313 316 315
298 300 300 304 307 309 310 312 313 310 311 309 308 309 309 311 309 311 310 310 309 310 312 308 305 305 305 305 305 306 309 307 306 303 306 306 307 309 308 309 310 313 316 314 313
299 303 305 303 309 310 311 313 313 313 310 309 310 311 312 313 313 311 309 309 310 313 309 307 305 305 306 308 305 307 309 308 304 309 305 309 309 309 310 311 312 316 312 311 310
304 306 304 304 306 307 308 311 312 312 312 312 312 312 311 312 312 312 309 309 311 308 309 305 304 304 304 307 308 308 308 308 308 309 309 310 311 309 310 311 317 312 309 307 304
300 303 306 304 305 307 308 311 312 311 312 312 311 312 313 312 309 307 307 306 307 308 308 307 305 303 305 306 308 311 309 308 309 308 310 311 311 311 316 316 316 309 305 301 299

GFSSW_925_thetae_048.txt.gz
Theta_e
310 309 309 310 310 310 309 310 308 306 307 308 309 312 314 318 316 316 316 315 317 320 324 319 324 326 319 317 315 313 320 321 320 319 319 317 319 318 316 317 315 317 322 327 334
308 308 308 309 309 309 309 308 309 308 305 307 307 310 314 318 316 315 312 315 318 320 320 324 323 318 318 318 317 316 318 320 318 317 318 319 320 320 320 318 318 320 322 332 341
308 307 307 307 307 308 308 308 308 307 306 305 306 309 312 316 313 312 311 314 317 320 322 322 321 318 319 316 317 317 318 317 320 319 320 320 321 319 320 321 317 318 317 322 335
307 307 306 306 306 306 307 307 307 307 307 306 305 308 312 315 317 314 321 316 317 320 323 322 319 319 319 319 316 320 319 318 319 319 320 320 318 320 319 318 317 318 317 316 322
305 305 306 306 306 306 306 305 306 306 306 306 305 307 311 312 312 314 316 323 318 321 322 320 320 318 320 318 317 319 318 318 318 318 318 317 318 318 318 316 315 315 315 316 315
305 305 305 305 305 305 305 305 306 306 306 306 306 307 310 315 311 312 309 318 319 323 323 320 320 318 319 318 318 317 318 318 317 317 317 318 317 316 316 314 315 314 315 314 313
305 304 305 304 304 304 305 305 305 306 306 306 306 308 310 313 311 312 316 321 321 323 322 321 319 319 316 318 316 317 319 318 317 317 318 316 318 317 315 314 314 313 312 313 312
304 304 304 304 304 304 305 304 305 305 305 305 305 307 311 312 313 312 311 319 321 323 322 321 320 318 318 316 316 318 318 321 318 317 317 317 318 316 314 314 314 312 311 310 312
304 304 304 303 304 304 304 305 305 305 305 305 305 307 312 311 313 313 311 318 321 321 321 320 321 320 318 318 318 318 319 320 320 316 317 317 318 316 314 313 312 311 309 310 309
304 304 303 303 304 304 305 304 302 304 305 305 305 307 311 312 312 311 311 315 317 319 322 322 321 322 318 320 321 321 320 318 319 316 316 316 315 313 312 314 313 311 310 310 310
303 303 302 302 304 304 304 303 300 301 304 303 305 308 311 312 312 312 311 314 319 320 325 322 325 325 322 319 316 316 318 318 317 315 313 314 311 310 311 309 308 308 308 309 311
304 304 303 302 304 305 304 302 301 301 302 302 303 305 306 312 313 312 311 315 320 323 322 322 326 323 320 320 319 318 319 320 315 312 312 311 310 310 311 310 310 310 310 310 309
305 305 305 304 303 304 303 302 301 302 303 305 306 309 311 312 314 313 312 316 320 322 322 322 322 321 322 323 324 322 321 318 317 312 309 308 311 308 308 307 307 306 307 307 306
305 306 306 304 303 303 302 302 302 303 291 306 307 311 311 313 313 311 312 317 318 321 318 317 319 322 322 323 322 323 315 313 312 313 315 309 315 310 309 305 305 303 303 303 303
305 304 305 302 303 303 303 303 302 300 287 305 309 311 313 314 313 313 313 315 318 318 318 316 320 322 322 321 318 315 311 311 309 309 309 310 310 309 305 306 305 304 303 302 301
303 304 303 303 301 303 303 303 301 295 302 310 311 311 314 313 314 314 315 313 314 315 314 313 311 313 313 311 312 309 308 307 305 306 307 308 308 307 307 306 305 304 304 304 303
303 303 304 303 302 302 303 301 295 298 307 312 312 313 315 316 316 316 316 314 318 317 315 314 313 311 310 311 310 309 313 317 305 305 309 307 309 307 306 306 306 305 305 305 305
302 302 303 304 303 302 302 299 299 308 309 310 313 315 317 316 316 316 315 314 311 313 313 313 319 313 310 311 312 310 310 308 308 309 309 307 311 308 305 303 305 305 305 304 304
302 302 303 303 302 302 301 300 302 306 307 311 314 316 317 316 316 315 313 313 312 310 313 310 311 311 310 310 310 311 307 306 305 302 303 306 304 301 304 306 305 304 304 304 303
302 301 302 303 303 302 298 307 306 305 308 312 315 312 314 317 316 315 314 312 312 310 308 309 313 312 311 310 309 310 306 307 299 305 308 304 305 304 306 307 305 305 306 305 305
300 298 301 302 303 300 306 308 307 307 310 311 311 312 311 314 313 312 312 310 310 309 308 308 310 314 313 312 311 309 308 306 305 305 307 307 305 302 304 307 306 305 304 306 310
297 298 302 304 302 304 310 309 308 310 310 309 309 310 310 310 311 311 312 310 308 309 311 308 309 316 313 307 307 309 308 305 302 303 307 307 307 305 305 306 304 305 307 311 315
298 298 302 304 310 310 307 309 309 312 313 309 310 309 308 309 310 309 309 308 308 309 309 307 305 304 312 310 307 309 307 305 303 300 299 304 306 304 303 305 306 307 308 313 311
298 301 301 302 306 310 312 313 313 310 310 307 308 308 309 310 308 310 310 310 308 309 312 307 305 305 306 306 305 306 309 305 304 302 304 304 306 307 306 306 307 308 313 311 310
298 304 305 308 310 309 310 312 312 312 309 308 310 310 311 312 311 310 309 310 309 312 307 307 304 304 306 307 304 307 309 307 302 306 304 306 307 307 307 308 308 310 312 309 306
304 304 305 305 305 307 307 311 312 312 311 311 311 311 310 311 311 310 308 309 310 308 309 305 307 303 303 307 307 308 307 307 307 307 307 309 309 308 308 309 313 313 309 306 302
300 301 303 305 303 306 307 310 311 310 312 311 311 311 311 311 309 306 306 305 306 307 308 308 305 303 304 306 308 310 308 308 307 307 309 310 309 308 310 313 315 310 305 301 299

GFSSW_925_thetae_051.txt.gz
Theta_e
310 309 309 309 308 309 309 310 310 309 309 307 306 309 310 312 314 317 317 315 315 322 323 318 324 326 319 317 314 314 324 322 322 320 320 316 317 318 316 318 317 317 323 328 332
309 308 308 308 308 308 308 308 309 309 308 308 307 307 308 311 313 317 315 315 316 317 320 320 323 320 319 318 317 320 323 322 318 318 318 318 319 320 321 319 319 322 319 335 339
307 307 306 307 307 307 307 307 307 308 308 308 308 306 307 311 315 315 316 317 316 319 320 322 322 321 321 317 317 317 321 318 319 318 319 319 320 319 320 321 319 319 320 331 338
306 306 306 306 306 306 306 306 306 307 306 307 307 307 306 309 318 313 317 316 318 317 321 322 320 321 321 320 317 320 318 317 318 319 320 320 318 319 319 320 317 318 317 317 337
305 306 305 305 305 305 305 306 306 306 307 307 307 307 307 314 314 314 312 313 318 318 320 321 321 322 323 319 317 319 318 319 319 318 318 317 318 319 318 317 316 315 316 317 317
306 305 305 305 305 304 305 305 306 306 306 306 306 305 307 311 312 313 313 311 317 318 321 320 320 318 320 319 319 318 318 318 318 318 317 318 317 316 317 314 315 315 316 316 316
305 305 305 305 305 305 305 305 305 305 306 306 306 305 307 309 311 312 313 316 319 318 322 321 319 319 316 318 316 316 319 318 318 317 318 317 318 318 316 315 316 316 314 315 315
305 305 305 305 304 304 305 305 305 304 305 306 306 305 307 309 311 312 312 316 318 320 322 321 319 317 317 315 316 319 318 321 318 317 317 317 318 316 314 315 316 315 314 312 313
305 304 304 304 303 304 304 305 305 305 306 306 305 305 308 311 312 313 313 313 319 320 321 321 319 321 318 318 320 318 320 319 319 317 317 318 318 316 314 314 315 314 313 312 312
305 305 304 303 302 304 305 304 303 304 305 305 304 304 307 311 312 312 311 314 319 320 319 320 320 322 319 320 322 321 319 319 318 315 315 317 317 315 313 311 313 313 313 313 312
306 305 305 304 303 304 304 302 299 300 303 302 303 304 310 311 312 313 311 317 318 319 321 321 322 322 322 318 315 317 318 319 317 314 313 315 313 312 311 310 311 310 311 311 311
305 306 306 305 304 304 303 301 300 301 301 301 303 303 304 306 314 313 311 318 320 323 315 323 322 320 319 317 317 317 319 319 315 312 312 311 312 312 312 311 310 310 310 310 309
305 306 306 305 305 303 302 302 302 302 302 303 305 306 305 311 313 313 312 315 320 320 314 317 321 321 321 321 321 320 319 317 318 312 309 310 314 310 309 307 306 305 304 305 306
305 305 305 304 302 303 302 302 301 302 290 306 308 308 311 313 314 311 311 317 319 321 315 316 320 322 323 322 322 324 318 314 313 315 318 309 318 312 308 306 304 306 305 305 304
304 304 302 302 303 303 302 301 302 297 293 302 308 309 312 314 312 312 313 316 319 318 318 317 323 321 321 321 319 319 312 311 310 310 311 311 313 310 305 307 306 306 306 306 305
304 303 303 301 302 302 303 301 300 293 300 308 310 310 314 313 314 314 316 314 315 316 314 312 312 315 316 314 316 309 309 307 306 309 315 309 310 308 307 307 306 306 306 306 306
302 303 302 303 302 303 302 298 296 304 302 313 312 308 314 316 315 316 316 315 317 318 317 315 313 311 312 314 311 310 315 317 311 312 317 307 310 309 306 305 306 307 307 306 305
302 302 302 302 303 302 302 295 300 308 310 309 309 314 315 314 316 316 315 314 311 313 314 317 318 313 310 312 313 310 313 317 311 312 309 307 311 309 305 303 303 305 305 304 306
302 302 303 303 302 302 301 300 300 305 307 311 314 316 317 315 315 315 314 312 311 309 314 312 314 310 309 309 310 310 311 305 306 303 309 307 305 302 304 304 305 305 306 308 307
301 301 301 302 303 301 297 308 308 306 308 312 314 312 316 315 317 314 314 311 311 309 308 309 313 312 310 310 308 310 306 311 305 310 310 305 304 304 306 306 306 307 307 306 307
299 298 300 303 302 303 308 310 308 308 308 311 311 311 313 313 312 312 311 310 310 309 307 308 310 314 312 311 311 310 310 306 306 305 308 306 305 302 304 306 306 306 306 307 312
296 299 301 304 301 303 310 309 308 310 309 309 308 309 310 310 310 311 311 310 308 309 311 307 310 316 312 307 307 307 308 305 307 307 305 307 307 304 304 305 304 306 306 308 313
298 297 302 304 307 309 309 310 309 311 311 308 309 308 308 308 310 309 309 308 308 309 309 307 307 310 313 310 307 310 307 304 302 302 306 308 306 304 303 304 305 306 307 313 311
297 301 300 301 305 310 311 311 312 309 309 307 308 307 308 309 307 309 309 310 307 310 310 306 305 307 309 307 306 307 308 305 305 306 305 306 306 306 306 306 307 308 310 311 308
297 303 304 303 307 307 309 310 311 311 309 307 310 309 310 311 310 309 309 309 309 312 306 306 306 304 306 307 304 307 309 306 304 305 307 305 306 307 306 307 309 310 312 309 305
303 304 304 304 304 307 308 309 311 312 310 311 310 310 310 310 309 309 308 308 310 308 307 304 308 303 304 307 307 309 308 307 306 307 307 307 309 308 308 307 312 314 309 306 301
299 301 303 304 302 305 307 310 311 310 311 310 310 309 309 309 308 306 305 305 306 307 308 308 305 304 304 306 307 310 308 308 307 306 309 310 309 307 308 309 312 310 305 300 298

GFSSW_925_thetae_054.txt.gz
Theta_e
309 309 309 308 309 308 309 309 309 309 310 309 309 308 308 309 311 313 317 317 316 320 323 319 322 326 320 320 319 322 324 326 326 325 323 320 321 320 320 320 321 321 325 332 334
308 307 307 307 307 308 307 308 308 308 309 309 309 309 307 308 310 312 314 317 317 317 322 318 324 325 323 321 319 320 322 321 321 322 321 320 320 322 322 322 322 323 324 337 339
307 307 307 307 307 306 306 307 307 307 308 308 307 309 308 308 310 313 316 319 319 317 319 320 322 324 324 321 320 319 321 320 321 320 319 321 321 322 322 323 321 322 325 335 339
307 307 307 306 306 306 306 306 306 306 307 307 306 308 307 306 313 316 317 321 319 318 318 319 322 325 325 323 320 321 318 319 321 321 321 322 322 322 322 321 321 323 321 323 339
307 307 306 306 306 305 305 305 306 306 306 307 307 307 307 307 309 313 314 315 320 319 318 321 323 324 325 323 321 321 320 319 319 321 321 320 322 321 321 321 321 321 320 322 322
307 306 306 306 306 305 305 305 306 306 306 307 307 305 306 308 308 312 313 313 317 319 317 320 321 322 321 322 321 320 319 319 319 320 320 321 321 320 320 320 320 320 320 320 321
306 306 305 305 306 305 305 305 306 306 306 306 306 306 306 306 309 312 313 314 317 318 317 320 320 321 320 321 320 319 321 319 320 319 319 319 320 320 318 318 318 318 319 320 320
306 306 306 305 305 305 305 305 305 305 305 306 306 305 305 305 305 309 313 314 316 317 318 321 320 320 319 319 320 320 319 321 318 319 319 319 316 318 318 319 319 318 318 318 318
307 307 307 305 304 303 304 305 306 306 306 306 305 304 304 308 309 309 313 314 318 317 319 320 319 320 319 321 321 320 318 318 320 319 318 319 316 316 317 317 318 318 318 318 318
306 306 306 305 304 303 304 304 305 304 306 305 304 305 304 309 310 313 313 313 319 318 320 321 321 322 321 321 319 320 318 319 317 319 320 320 318 319 318 317 317 318 317 317 317
305 306 306 306 304 304 304 303 303 304 304 303 303 305 307 307 312 313 311 316 319 319 321 320 323 325 322 319 316 318 318 317 317 316 318 318 319 318 317 317 317 317 317 317 317
305 305 306 305 304 304 303 303 302 302 303 302 303 303 303 304 313 313 312 320 319 320 319 320 324 319 320 319 318 318 317 318 319 315 317 317 318 317 317 317 315 314 315 315 314
305 304 305 305 303 303 303 302 301 302 303 303 305 304 304 306 313 312 313 317 320 319 319 321 321 319 319 320 319 319 318 320 319 315 313 315 318 315 311 310 310 309 309 309 310
305 305 303 303 303 303 303 302 302 302 305 303 306 305 305 309 314 312 312 316 319 314 315 315 319 320 320 320 319 322 320 318 318 320 321 313 318 315 310 312 312 312 312 312 313
305 303 302 302 304 303 303 301 302 301 307 305 308 306 310 314 313 312 313 317 316 315 315 317 318 323 322 320 320 322 318 316 315 317 318 316 318 313 310 312 313 313 313 314 314
305 302 302 303 303 303 302 301 302 307 309 310 309 310 313 313 314 313 316 314 315 316 316 316 316 317 316 315 318 312 314 312 313 316 323 316 315 312 311 312 313 313 314 313 315
304 302 302 302 302 302 302 303 310 311 306 311 313 311 314 316 315 316 316 317 319 321 320 315 314 314 314 313 313 315 319 323 322 325 323 310 313 313 310 311 312 313 313 313 314
304 302 302 302 302 302 303 306 312 310 310 309 311 314 316 316 316 315 312 317 314 316 320 321 320 314 313 316 317 318 319 323 320 317 314 309 313 312 309 309 309 309 311 311 313
303 301 302 303 303 303 305 313 310 308 308 311 315 315 317 315 316 315 315 316 313 314 319 320 318 312 311 311 315 314 320 310 313 309 314 312 311 309 307 309 309 312 313 314 314
302 302 302 302 303 303 310 312 310 306 309 312 314 314 316 314 317 317 316 313 313 311 310 313 318 312 310 311 311 314 310 317 316 318 316 310 309 311 310 311 310 313 314 314 315
300 306 302 303 302 311 312 313 310 310 310 313 313 314 315 315 315 314 314 312 312 310 311 312 315 315 313 315 315 313 314 311 312 310 311 308 309 307 311 311 310 312 312 313 316
302 313 302 304 312 310 312 310 308 312 311 311 311 313 313 313 314 313 313 313 310 311 313 311 315 317 315 309 309 311 313 311 317 315 312 312 310 309 309 309 309 312 312 314 315
304 305 302 305 314 312 310 311 311 312 312 310 311 311 310 312 314 312 311 310 310 311 312 311 314 316 314 312 310 312 311 309 308 311 314 313 312 308 309 309 311 312 313 315 314
305 312 308 309 309 312 313 313 313 311 310 309 309 309 310 311 310 312 312 311 309 312 310 309 310 313 315 314 313 314 312 309 314 317 312 311 311 311 310 311 312 313 314 315 311
304 305 304 311 312 310 312 312 313 313 311 310 311 310 311 312 312 312 312 311 311 310 309 311 315 310 309 310 310 311 312 310 311 313 317 310 310 310 310 312 311 312 315 313 307
304 305 304 305 307 309 311 312 313 313 313 312 312 312 311 312 311 312 312 312 312 311 310 309 314 310 311 309 309 311 311 311 310 311 310 311 313 311 311 311 312 314 314 311 306
299 300 303 306 307 310 311 312 312 312 313 312 312 312 312 311 310 309 309 310 310 311 311 311 312 313 314 309 310 314 311 311 311 310 311 313 312 311 312 312 313 315 311 307 303

GFSSW_925_thetae_057.txt.gz
Theta_e
310 309 309 308 308 309 308 309 309 309 309 310 311 310 309 308 309 310 313 319 318 320 322 317 320 326 324 322 320 322 328 329 328 327 326 325 325 323 322 322 322 322 324 333 336
309 309 309 308 308 308 308 307 308 308 308 309 309 309 310 308 308 308 312 318 319 318 322 317 322 325 324 322 321 323 328 327 325 324 325 324 323 323 322 321 321 322 325 335 337
308 308 308 308 307 307 307 307 307 307 307 308 309 309 308 308 308 308 310 316 321 319 321 317 320 325 324 322 321 321 321 321 322 321 321 323 322 321 322 322 322 322 324 332 337
307 308 308 307 307 307 306 306 306 306 307 307 308 308 308 308 310 312 311 317 320 320 318 319 319 325 325 324 321 321 319 319 321 320 320 320 321 322 322 322 322 322 324 325 336
308 308 308 307 307 307 306 306 306 306 307 307 307 308 306 309 308 309 316 319 321 320 316 319 318 322 324 323 320 320 321 320 320 321 321 320 320 322 322 322 322 323 322 323 324
308 307 307 307 306 306 306 306 306 306 306 305 306 305 306 309 306 306 311 315 320 320 316 317 318 320 322 322 321 320 321 320 320 321 321 322 321 322 322 322 321 321 321 321 322
308 308 307 307 306 306 306 306 306 306 306 306 306 306 306 307 306 312 311 312 315 320 317 316 317 319 321 322 321 320 321 320 320 320 320 320 321 322 321 320 320 320 320 319 319
307 307 307 307 307 306 305 305 306 306 306 306 306 306 306 305 305 306 309 312 314 319 317 316 318 319 320 319 321 321 321 322 320 320 319 319 319 319 319 319 319 318 318 318 318
307 306 306 307 305 305 304 304 305 306 306 306 306 306 305 306 304 306 309 314 316 319 316 317 320 320 320 321 322 321 320 319 318 318 320 320 317 317 318 318 319 319 318 318 318
306 306 307 307 305 305 304 304 305 304 305 306 305 305 304 305 307 309 311 314 316 318 318 319 321 322 320 321 322 320 319 317 317 320 318 319 319 317 317 317 318 318 318 318 318
305 306 307 305 305 304 305 305 306 306 305 305 305 304 305 305 308 307 314 315 318 317 319 322 323 325 321 318 316 315 317 316 316 319 319 318 319 317 318 318 318 318 317 317 317
306 306 306 304 304 302 304 304 304 304 305 303 303 303 303 304 308 312 313 315 320 319 317 324 319 321 319 317 317 317 317 317 318 317 317 317 318 318 317 317 317 317 317 317 317
307 305 304 303 303 304 304 303 301 303 305 304 305 305 304 306 310 315 314 316 318 317 320 320 320 318 321 319 318 317 318 317 318 318 317 317 318 317 314 313 313 312 312 313 314
305 305 303 302 304 304 303 303 303 303 308 306 308 307 306 308 311 310 314 315 317 320 320 318 319 320 322 320 318 318 316 317 319 318 316 317 315 318 313 314 314 313 313 314 315
305 305 302 304 304 304 304 303 304 304 313 306 306 304 307 313 313 313 312 316 316 314 317 319 319 322 320 320 318 318 319 319 319 320 320 319 319 317 313 314 314 314 315 315 316
304 304 303 305 305 304 303 303 303 311 314 311 310 311 314 314 314 314 315 313 313 314 315 316 313 318 320 315 319 319 318 317 317 319 324 321 318 315 313 314 314 315 315 316 317
304 304 303 304 305 305 304 305 312 314 309 315 314 315 315 316 317 315 316 317 318 319 317 312 312 315 314 316 315 319 321 326 326 327 325 315 317 317 313 314 314 315 315 316 316
304 302 304 304 305 304 304 309 317 312 312 311 313 315 317 316 316 316 318 319 318 319 320 323 321 312 312 316 319 320 322 326 324 325 321 311 315 315 313 313 313 313 315 315 316
304 305 305 306 305 305 307 318 311 310 310 313 315 317 316 316 316 316 318 317 317 317 321 321 320 312 313 314 317 319 322 314 315 313 316 314 312 311 310 312 312 314 316 316 316
304 305 306 304 305 306 313 311 311 308 310 313 316 315 315 315 317 318 317 315 314 313 313 316 320 314 313 314 313 318 314 320 321 320 317 313 312 313 310 311 312 315 316 316 316
305 309 306 305 305 312 315 313 312 311 311 314 314 315 315 315 315 316 316 314 313 312 313 315 316 316 314 316 317 315 317 315 315 314 315 311 311 310 311 312 312 314 315 315 317
307 315 306 307 314 315 314 312 309 313 313 313 313 314 315 315 315 315 316 315 312 313 314 314 316 318 317 312 312 313 316 315 320 318 315 314 313 309 312 312 311 313 314 315 316
306 310 307 309 316 315 313 314 313 313 312 312 313 313 313 314 315 314 313 312 312 313 314 313 316 317 316 313 312 314 314 313 311 316 318 315 314 311 311 311 312 314 315 316 315
307 311 312 313 312 315 314 315 314 313 312 310 311 312 313 313 313 314 314 313 311 312 311 311 313 316 318 318 315 315 314 312 316 319 314 313 313 312 311 312 314 314 314 316 314
306 306 305 313 314 313 314 314 313 313 312 311 312 312 313 314 313 313 313 313 313 310 311 313 318 312 312 312 313 314 314 313 314 314 320 313 312 312 311 313 313 313 316 316 312
303 305 304 306 310 312 312 313 313 314 313 313 313 312 312 312 312 313 313 313 313 312 312 312 316 313 314 311 311 313 312 313 312 312 312 312 313 312 312 313 314 314 316 315 311
299 301 304 307 310 312 312 313 313 313 314 313 312 312 312 313 312 311 311 311 311 312 313 313 314 315 316 311 311 314 313 312 313 312 313 314 313 313 313 314 315 316 316 312 309

GFSSW_925_thetae_060.txt.gz
Theta_e
310 309 310 310 309 309 309 309 309 309 309 310 310 311 310 310 309 309 311 316 319 321 317 316 318 322 327 326 322 321 329 332 331 330 327 326 325 323 322 321 322 321 331 336 344
309 309 309 309 309 309 308 308 308 308 308 308 309 310 310 310 309 308 308 313 320 320 319 317 318 322 328 324 323 322 326 328 327 325 325 325 325 323 322 321 320 320 330 335 342
308 308 309 309 309 308 308 307 307 307 307 307 308 309 309 308 309 308 308 311 318 321 318 319 318 324 327 322 322 321 324 324 325 323 321 322 323 323 321 321 320 319 322 334 339
309 309 309 309 308 308 307 307 307 306 307 307 308 308 308 308 311 312 314 311 317 321 319 320 316 323 326 324 321 321 321 321 323 321 320 320 321 321 319 321 321 322 322 329 335
309 309 309 308 308 308 307 307 307 307 307 307 307 307 307 308 309 308 309 312 318 321 318 320 317 322 324 323 321 322 320 319 320 321 321 319 319 318 321 321 321 321 322 322 323
308 309 308 308 308 308 307 307 307 307 306 306 304 304 306 307 306 307 309 314 317 319 319 318 317 320 321 322 322 320 321 320 319 321 321 319 319 318 320 320 321 321 321 320 321
308 308 307 307 307 307 307 306 306 306 307 306 307 306 306 306 306 312 309 310 315 318 320 316 317 317 320 322 321 320 321 320 319 320 321 321 321 320 319 320 319 319 318 318 317
308 307 307 307 307 306 306 306 305 306 306 307 305 306 306 305 305 305 308 309 311 314 319 316 316 317 320 320 321 322 320 323 320 320 320 320 321 319 319 318 318 317 316 316 316
307 307 307 307 307 305 305 304 305 306 307 307 307 306 306 305 305 305 306 308 312 314 318 318 318 320 319 322 323 322 321 321 321 319 319 319 319 318 318 317 317 315 315 314 315
307 306 307 306 304 304 302 303 305 305 306 306 306 306 305 305 307 306 307 309 313 317 319 319 320 321 321 322 325 322 323 319 320 319 319 320 319 317 317 317 316 315 315 316 316
306 306 306 306 304 301 306 306 306 307 305 306 305 305 305 304 308 308 310 307 309 319 320 318 321 321 321 319 318 317 319 319 317 319 319 319 319 318 316 316 316 315 314 314 315
306 306 305 305 302 304 305 304 305 304 304 304 303 303 304 304 307 309 309 310 311 320 318 320 321 319 319 319 318 316 316 317 316 319 318 317 317 316 316 316 316 315 314 313 314
305 306 306 303 303 305 303 303 303 304 304 304 305 305 305 305 307 310 313 313 313 317 318 319 318 319 320 319 319 316 316 315 317 317 316 317 316 317 316 314 314 312 312 311 312
304 306 306 304 305 304 304 304 304 304 308 308 308 308 307 304 307 311 313 315 318 317 318 320 318 320 321 321 318 318 316 317 319 318 318 315 312 316 315 312 312 311 309 310 313
303 305 305 303 306 304 304 303 303 304 312 308 307 305 307 306 310 313 313 315 317 317 318 317 319 320 319 321 318 317 316 318 318 318 319 316 316 316 311 313 312 312 312 314 314
303 305 304 306 306 305 304 305 305 310 315 310 306 308 311 312 314 313 315 314 314 314 315 316 313 318 317 319 319 318 318 317 318 319 323 320 316 313 312 313 312 312 313 314 315
303 305 303 304 306 305 304 305 310 314 311 313 312 314 314 315 313 312 314 317 319 319 317 315 313 313 314 320 319 318 318 321 324 323 323 316 317 315 311 311 312 313 313 314 315
303 304 305 305 305 305 304 309 313 313 312 312 314 315 316 316 314 316 319 320 318 316 317 319 318 313 312 318 319 320 319 320 321 323 317 312 316 313 311 311 312 313 314 314 315
305 307 306 307 306 305 307 312 311 309 311 313 316 316 317 316 316 318 318 318 319 318 321 320 318 312 313 315 317 320 322 314 315 312 314 312 312 310 311 311 311 312 313 314 315
305 306 307 305 306 306 313 310 312 309 311 313 316 315 315 316 317 318 317 315 315 313 315 316 318 313 315 314 314 317 317 318 315 313 318 312 313 312 309 310 310 313 314 314 314
306 310 307 307 307 311 313 313 313 312 311 314 315 314 314 315 316 316 316 314 313 312 312 316 318 318 316 317 318 317 320 316 314 313 315 310 309 310 309 309 310 312 313 314 316
307 313 307 308 315 316 315 312 309 313 313 314 313 314 314 314 315 315 316 315 312 313 315 314 316 319 317 312 313 315 317 317 322 319 312 311 311 308 307 309 311 313 313 314 315
305 310 309 311 316 315 314 314 313 313 312 312 313 313 313 314 315 314 315 313 312 313 314 313 314 315 315 314 312 314 314 314 312 314 317 314 310 309 308 309 309 312 313 315 314
307 309 308 314 313 315 315 316 315 313 312 311 312 312 313 313 313 314 314 313 312 311 311 312 313 315 315 317 315 314 314 313 312 311 314 312 310 310 309 310 311 313 313 314 311
305 306 305 310 314 312 313 313 314 314 313 312 312 312 313 314 313 314 314 313 313 309 311 313 312 308 312 314 311 314 314 313 307 312 309 312 311 309 308 311 312 312 315 315 311
303 304 303 305 308 312 312 313 313 314 313 313 313 312 312 313 313 313 313 313 313 311 312 312 311 311 311 311 312 312 312 313 312 312 311 311 312 311 310 311 313 314 315 315 311
298 300 303 305 308 311 313 313 314 313 314 313 313 312 312 313 311 310 310 310 311 311 311 313 311 311 312 311 311 311 311 311 312 311 312 312 311 312 313 314 314 315 315 312 308

GFSSW_925_thetae_063.txt.gz
Theta_e
308 309 308 309 310 310 310 310 309 309 308 308 309 310 311 311 311 309 310 313 318 321 317 318 316 321 322 327 322 323 331 333 330 331 329 324 323 321 318 318 319 324 333 342 345
310 310 310 310 310 310 309 309 309 308 308 308 308 309 310 310 310 310 309 310 315 320 319 317 317 319 325 326 323 322 326 329 326 327 325 322 323 322 320 319 318 331 341 344 343
310 310 310 310 310 309 309 308 308 307 307 307 308 308 309 309 309 308 308 310 312 319 320 319 315 320 325 322 323 322 322 323 324 325 320 321 322 321 318 320 319 323 335 339 342
310 309 310 309 309 309 309 308 308 307 307 307 307 308 307 307 308 309 310 313 312 316 319 319 316 322 325 324 323 320 321 320 323 322 323 320 319 320 319 319 319 317 330 334 336
309 309 308 308 308 308 308 307 307 307 307 307 306 305 305 307 307 308 308 312 312 317 319 319 318 322 325 324 321 322 320 319 319 319 319 319 318 318 317 318 318 319 318 325 331
308 308 308 308 308 308 308 306 307 307 306 305 306 304 306 307 304 305 307 308 313 317 318 319 316 318 321 322 321 320 320 320 319 320 320 318 319 318 317 317 318 317 319 319 319
308 307 307 307 308 308 307 307 307 306 305 307 307 305 306 305 305 306 309 310 313 316 318 318 318 317 318 321 320 320 321 320 319 320 321 319 320 319 317 317 318 319 317 317 316
307 307 307 307 307 305 305 305 305 306 306 306 306 306 305 303 304 305 305 307 310 315 317 317 317 316 318 319 321 321 319 322 319 319 319 318 321 318 316 317 317 315 315 313 315
307 307 306 306 306 305 303 303 304 306 306 307 306 306 305 304 305 304 305 306 311 312 315 317 316 318 317 320 322 322 321 320 320 318 320 318 319 317 316 315 316 315 313 312 311
306 306 306 306 305 303 304 305 304 305 306 306 306 306 305 305 304 304 305 308 312 314 316 318 318 317 319 320 324 324 320 319 319 318 319 319 318 316 315 314 314 314 312 311 312
305 306 307 305 304 304 304 305 303 304 305 306 305 305 305 303 306 308 309 308 309 313 321 318 320 320 318 319 317 319 320 318 317 317 318 319 318 318 315 314 313 312 312 312 312
304 305 306 306 304 304 303 304 304 303 304 304 305 303 304 304 306 308 308 307 309 311 318 320 320 317 317 318 319 316 318 319 316 317 318 318 319 317 315 313 313 313 313 312 312
303 304 306 305 304 304 303 304 302 303 304 305 305 306 305 305 307 309 308 309 308 311 319 320 318 317 319 318 320 318 314 315 317 316 314 315 315 315 313 314 313 312 311 311 311
303 304 305 305 305 305 304 303 304 304 308 310 308 306 307 304 308 308 305 310 307 315 315 318 317 318 319 319 317 319 314 315 317 316 317 314 315 311 313 312 311 310 308 308 311
303 304 305 305 305 304 303 303 303 304 310 309 307 305 307 307 309 308 311 312 309 317 315 319 318 320 322 320 319 317 315 317 316 315 316 316 314 312 311 312 310 310 307 307 310
302 304 305 305 305 305 305 304 305 306 313 310 306 309 309 310 312 313 315 314 314 316 314 316 315 318 317 317 319 319 316 315 315 316 318 318 314 312 311 313 310 310 311 312 313
301 305 305 305 305 305 304 304 303 309 310 314 312 313 314 314 313 314 315 317 317 314 316 315 314 313 316 319 317 320 315 315 317 314 317 312 317 314 310 309 310 311 311 312 313
302 306 304 304 305 305 304 304 306 310 310 311 314 314 315 315 314 316 318 319 314 312 315 314 321 316 313 315 321 321 314 314 316 317 316 311 318 314 308 309 310 311 311 312 313
304 306 305 307 306 305 305 305 310 307 311 312 314 316 316 317 316 317 317 319 316 317 314 315 314 312 313 315 317 320 317 314 312 310 308 311 311 311 310 311 311 312 312 311 313
304 306 306 306 305 305 303 309 309 307 310 313 317 316 315 316 318 318 316 315 317 316 314 315 315 314 314 315 315 317 316 316 307 311 315 310 311 311 312 311 311 312 311 311 313
305 305 307 306 306 307 307 307 312 310 310 313 315 313 314 315 315 315 314 313 312 311 313 316 314 316 316 317 319 317 318 315 313 310 312 310 309 307 312 310 310 311 311 311 312
302 306 307 307 306 309 308 311 310 313 311 313 313 314 313 313 313 315 315 313 311 311 315 313 315 317 318 315 315 316 318 315 313 315 307 306 310 306 307 308 308 311 312 311 311
303 302 307 309 313 311 312 313 313 313 311 311 312 312 312 313 314 313 313 311 311 311 312 312 312 312 313 311 312 315 315 317 312 311 309 308 309 305 306 309 309 311 311 313 310
302 304 301 307 308 312 313 313 315 312 312 310 311 310 312 312 311 313 313 312 311 309 311 311 312 312 311 312 312 312 315 311 311 312 313 310 310 308 308 308 308 310 311 312 308
298 303 304 307 309 306 309 313 313 314 311 310 311 311 312 312 312 313 312 312 311 309 310 311 308 307 312 313 309 313 313 311 307 310 308 310 309 309 307 308 308 310 313 311 308
298 299 299 302 304 306 310 313 313 314 312 313 312 311 310 313 311 312 311 311 312 310 311 309 308 306 308 311 310 310 311 312 310 310 310 310 310 307 307 309 311 311 314 313 309
296 297 300 301 306 309 310 309 312 312 313 312 312 311 312 312 309 309 307 307 308 309 309 310 307 306 309 310 310 310 310 310 311 310 310 310 309 309 310 312 312 312 314 312 307

GFSSW_925_thetae_066.txt.gz
Theta_e
309 311 311 311 311 310 311 311 310 310 309 309 309 309 310 311 310 311 309 311 315 319 321 319 317 319 323 324 324 325 330 330 329 329 329 326 324 319 316 320 326 330 338 341 344
310 310 311 310 310 310 310 309 310 309 308 308 308 309 309 309 310 310 310 310 312 318 320 317 316 320 324 326 322 326 331 330 326 325 326 327 327 324 319 322 331 343 342 343 343
310 310 310 309 309 308 309 308 308 308 308 308 307 308 309 308 309 308 305 312 312 314 319 317 316 320 324 323 323 322 327 325 325 324 324 326 326 323 317 319 325 342 342 340 340
309 309 308 308 308 309 308 308 307 308 308 307 307 307 306 306 306 310 308 312 313 313 317 319 314 321 324 325 324 324 322 324 323 324 325 324 322 323 316 320 318 331 338 338 337
309 308 307 308 308 309 308 308 306 307 307 305 306 306 305 306 306 305 308 306 308 314 316 318 315 319 323 323 324 323 321 321 321 323 324 323 323 321 317 318 317 325 333 336 336
308 308 307 308 308 308 308 307 306 306 307 304 305 304 305 306 303 306 305 310 311 313 315 318 317 317 321 322 323 322 321 321 320 319 320 324 322 317 317 316 317 317 318 320 331
307 308 307 307 307 307 307 307 307 306 305 307 307 304 306 304 304 306 305 308 312 312 317 317 317 318 318 321 320 319 322 321 321 319 319 317 320 318 315 316 317 315 315 316 315
306 307 307 306 306 305 305 305 305 305 306 306 306 306 304 303 304 304 305 306 308 314 316 317 318 315 317 318 320 321 320 324 320 319 319 317 320 317 316 316 317 316 314 314 313
306 306 307 306 306 305 306 305 305 305 306 307 306 305 303 304 306 305 305 305 310 312 316 317 316 316 316 320 322 321 321 320 321 318 320 317 319 317 315 314 316 315 313 312 311
304 305 306 307 304 306 307 305 305 305 306 306 306 305 304 305 304 304 304 307 310 313 317 318 319 316 318 321 324 322 320 319 321 318 319 319 318 316 316 313 314 314 313 312 311
304 304 305 306 304 304 303 305 303 303 303 305 305 304 305 304 303 308 306 306 307 310 317 320 320 319 318 318 318 320 318 321 318 317 319 319 318 318 316 314 313 312 312 312 312
303 303 305 305 306 304 302 304 303 302 303 303 303 304 304 304 305 308 306 307 307 313 315 321 319 315 316 318 319 320 319 318 316 317 318 318 319 317 316 314 312 312 311 311 311
303 303 304 305 305 304 303 303 302 303 304 305 305 305 305 305 305 308 308 309 308 311 311 318 316 316 317 319 320 318 319 317 316 315 314 316 316 316 315 312 312 311 310 310 309
303 303 304 305 305 305 303 303 303 303 306 307 307 306 306 305 307 307 307 310 309 312 310 319 316 317 318 319 317 319 313 314 316 316 319 314 318 311 314 313 311 310 308 307 309
303 303 305 305 305 304 303 303 304 303 312 309 308 305 306 307 308 307 306 309 312 313 313 318 317 318 319 318 315 317 313 314 315 315 314 315 315 312 310 312 310 308 306 304 309
302 304 304 305 305 305 304 304 304 302 312 310 307 310 309 309 308 307 312 310 311 315 316 316 314 316 317 317 318 317 314 314 314 315 316 314 313 311 311 312 312 308 305 306 309
301 304 305 304 304 304 304 304 301 310 307 315 314 313 313 310 313 313 310 310 317 316 317 316 315 314 315 317 317 318 314 317 322 322 316 313 314 314 309 309 309 309 310 310 311
301 306 304 303 305 305 304 301 304 309 309 311 314 314 315 315 315 315 316 317 313 313 316 318 321 316 313 316 320 319 313 312 317 318 316 311 317 315 309 306 308 311 311 311 311
304 306 305 306 305 305 303 301 303 300 307 312 313 315 316 316 317 318 316 317 316 313 313 313 315 313 314 315 316 319 317 312 308 307 307 311 310 309 310 309 309 310 311 312 312
304 305 305 306 305 305 300 307 304 306 309 311 316 313 317 318 318 316 316 316 316 315 311 311 315 313 314 315 315 318 315 315 306 310 314 311 309 311 312 312 312 312 312 311 313
305 305 306 306 306 302 301 302 308 310 309 312 314 313 314 314 316 314 313 312 312 315 313 311 311 315 315 317 319 318 318 314 311 308 312 311 309 304 311 312 313 312 311 310 312
300 304 306 306 306 304 307 310 310 312 310 311 312 313 313 312 312 313 314 312 310 310 316 314 312 317 315 315 315 316 317 313 313 311 304 304 307 304 307 309 311 310 310 310 311
301 301 305 307 313 307 310 312 312 312 312 311 311 311 311 312 312 312 312 310 310 311 312 312 310 309 314 313 313 318 315 315 310 305 303 306 306 305 305 307 309 311 311 312 310
300 299 300 305 306 310 310 313 314 311 311 309 310 309 311 311 310 313 312 311 309 309 312 310 311 309 310 311 311 313 316 314 312 308 311 309 309 308 308 310 310 310 310 312 309
296 299 301 301 305 305 307 312 313 314 311 310 310 310 311 312 312 313 312 311 311 309 310 308 305 306 312 312 308 311 314 312 309 315 314 314 308 308 308 309 308 309 310 311 308
296 296 296 298 302 304 310 311 313 313 312 312 312 311 311 312 310 312 311 310 311 309 310 307 307 304 307 311 309 310 311 312 310 309 310 310 311 307 306 307 308 309 312 312 309
296 296 298 298 302 308 306 305 310 312 312 311 312 311 312 311 308 307 307 307 308 308 309 308 306 304 306 309 309 308 309 310 311 309 310 311 309 307 307 309 310 310 312 312 308

GFSSW_925_thetae_069.txt.gz
Theta_e
310 310 311 311 311 310 310 310 310 308 309 310 309 309 309 310 311 310 312 310 312 317 318 319 319 317 323 323 325 325 329 329 328 328 328 325 326 323 319 319 329 336 338 340 342
310 310 310 309 309 309 309 309 310 307 308 309 308 308 309 309 309 310 310 312 312 316 318 317 316 320 324 324 326 327 329 327 324 325 327 325 325 324 318 316 339 342 341 341 341
310 310 308 308 309 309 309 309 309 307 306 308 308 308 308 308 307 307 306 310 313 314 315 318 317 318 325 323 323 326 329 325 325 326 325 326 324 321 318 318 329 344 342 339 339
309 309 307 308 308 309 309 309 308 306 306 307 307 308 307 306 303 309 310 311 313 314 314 317 316 319 322 324 322 325 325 324 326 326 326 327 324 322 318 316 317 328 338 337 338
309 308 307 307 307 309 309 309 307 305 306 305 304 305 305 305 305 304 306 308 309 308 313 315 316 318 321 321 323 321 322 321 325 325 325 324 324 321 321 321 316 331 336 335 335
308 308 308 306 306 307 308 307 307 307 306 304 304 304 305 304 304 306 305 306 307 311 313 315 314 315 319 321 323 322 321 322 323 323 320 323 323 320 322 314 318 333 335 334 333
307 307 307 307 306 305 305 306 307 307 305 307 306 304 305 303 304 304 305 306 306 310 314 315 317 315 317 321 320 321 322 322 321 320 322 323 322 323 321 320 316 318 322 322 328
305 305 306 307 306 306 306 305 305 305 306 307 307 306 303 302 304 304 305 305 307 313 313 315 317 314 316 317 319 321 321 324 322 321 320 322 325 323 321 321 315 315 314 314 313
304 304 305 306 307 306 307 308 305 305 306 306 306 304 303 304 306 305 306 306 307 312 313 316 317 314 316 318 319 321 323 322 321 320 319 320 319 321 320 319 315 314 313 312 312
303 304 304 305 306 306 306 304 304 306 306 306 305 304 303 304 304 304 305 305 309 310 315 317 320 316 315 318 320 322 321 320 321 320 319 319 317 316 315 314 314 313 312 312 311
304 303 304 305 306 306 304 306 302 302 303 304 304 303 304 303 303 306 306 306 306 309 316 318 317 316 317 316 317 317 318 320 318 318 320 320 318 318 314 312 311 311 311 311 311
304 303 303 305 306 305 302 302 302 301 302 302 302 304 304 304 304 307 306 307 305 310 314 321 314 313 315 317 318 318 318 319 317 317 319 318 319 317 317 315 312 311 310 310 310
304 303 303 305 305 304 302 302 302 303 304 305 305 305 304 304 305 307 307 307 306 308 311 317 317 315 317 318 319 318 317 317 318 315 314 317 318 317 315 313 313 311 309 309 308
304 303 304 305 305 304 303 303 303 303 306 308 307 305 305 305 307 307 307 308 308 310 312 318 315 316 318 319 317 319 315 315 316 317 320 316 320 313 314 314 312 311 308 308 306
303 303 304 304 304 304 303 303 304 303 303 310 308 305 306 308 308 307 306 310 308 310 309 317 317 317 318 318 315 317 313 314 315 316 315 314 316 313 309 313 314 312 307 306 305
303 304 304 304 305 305 304 304 304 299 305 310 309 310 310 309 307 307 308 310 311 312 314 317 313 315 317 316 315 316 313 313 313 314 316 315 315 313 309 309 312 309 305 304 308
303 304 305 305 304 304 304 304 299 308 307 312 313 310 309 310 311 312 312 313 314 316 317 318 316 315 314 316 317 315 314 316 319 320 318 312 314 317 310 308 308 308 305 303 307
302 305 305 303 305 304 304 298 304 309 310 311 313 313 315 314 313 313 312 315 313 314 315 319 320 316 313 315 316 315 312 312 318 319 316 311 316 314 310 308 306 306 306 307 309
304 305 305 305 305 304 300 299 301 299 305 311 312 317 314 315 316 317 316 316 314 313 314 314 316 314 316 315 315 317 319 309 307 305 308 310 309 307 309 309 307 309 310 311 311
305 304 305 306 305 304 298 304 300 304 308 310 314 312 317 318 317 315 316 316 316 313 310 310 316 313 315 315 315 317 313 315 304 309 314 311 310 311 311 309 308 310 311 311 311
304 304 305 305 305 301 300 300 306 308 308 311 313 313 313 315 315 313 313 312 313 314 310 308 311 314 316 317 318 319 319 314 310 307 312 312 310 304 305 308 310 311 312 311 311
299 302 305 306 301 300 306 309 309 311 308 310 311 312 312 311 313 313 313 311 309 312 314 311 311 315 316 313 315 317 318 311 310 310 303 304 307 304 302 307 310 311 311 310 311
300 300 304 306 304 304 309 312 311 311 311 311 311 310 310 311 313 312 311 310 310 311 312 311 311 315 315 313 314 318 317 313 307 303 303 307 309 304 304 307 309 309 310 310 311
297 299 299 302 303 309 308 312 313 310 311 309 309 309 310 311 309 312 311 311 308 309 312 311 309 308 310 309 312 317 318 313 309 307 308 306 309 308 308 307 309 309 310 311 310
294 298 298 299 305 305 306 310 312 313 310 309 310 309 310 311 311 312 311 311 309 309 309 308 310 306 311 311 307 310 314 316 308 315 313 315 310 309 307 307 308 309 309 311 309
294 295 294 296 299 304 306 309 311 311 311 312 311 311 310 310 310 311 310 310 310 308 309 305 306 303 306 310 309 309 310 314 314 312 313 312 310 307 307 307 308 309 310 311 310
295 295 295 297 297 305 302 305 309 309 311 310 311 310 311 310 307 306 306 306 307 307 308 307 305 303 304 308 307 308 307 309 311 308 311 312 314 307 305 307 307 306 309 311 309

GFSSW_925_thetae_072.txt.gz
Theta_e
311 311 310 309 309 310 310 310 310 310 309 308 308 309 309 310 309 310 312 311 310 315 317 318 319 318 323 322 325 324 328 328 327 328 327 324 325 322 321 316 331 338 338 338 343
310 309 310 308 309 309 310 310 310 310 308 307 309 308 308 309 307 309 308 312 314 314 316 316 316 318 322 322 325 326 327 326 323 324 327 324 323 322 321 316 334 339 339 339 343
309 310 309 308 308 309 309 309 309 309 307 306 308 308 308 307 306 304 309 309 313 314 315 316 315 317 322 321 322 326 327 324 324 326 325 326 325 321 320 319 317 317 336 338 341
309 309 309 306 307 308 309 309 309 306 306 306 307 307 307 305 302 307 310 310 312 314 314 316 317 316 320 323 321 325 325 324 325 327 326 326 324 323 320 319 318 318 327 335 339
308 308 308 308 306 306 308 308 308 306 305 304 305 306 305 304 303 304 306 311 311 313 309 314 317 316 320 321 322 322 321 324 325 325 324 322 323 321 320 318 317 318 334 334 335
306 307 307 308 306 306 305 307 307 307 305 304 306 306 304 303 303 305 305 305 307 308 310 313 315 314 318 321 322 321 321 323 326 324 320 322 321 320 320 316 317 318 333 332 333
305 306 306 306 307 307 306 305 307 307 307 307 305 304 304 302 303 303 305 305 306 306 310 313 315 314 317 321 319 320 324 323 324 322 322 322 323 322 320 317 318 317 322 331 331
306 304 305 305 307 307 307 308 303 304 306 307 307 305 303 302 304 304 305 305 307 310 310 313 316 313 316 317 319 321 321 324 322 322 321 320 324 321 319 319 320 318 312 313 315
306 304 304 304 306 307 307 307 306 303 306 306 305 304 302 304 305 304 305 305 305 310 313 314 316 315 316 317 318 321 323 320 323 320 323 323 323 319 322 320 320 318 313 311 311
305 304 303 304 305 306 306 305 305 305 306 306 305 302 303 304 303 303 305 305 306 309 313 315 317 315 314 316 321 321 318 319 323 322 322 323 322 320 322 321 320 318 311 311 311
305 304 303 304 305 306 305 305 302 303 303 303 303 303 304 303 303 305 305 306 305 310 313 313 314 315 317 315 316 315 317 319 317 320 320 321 321 317 321 320 320 319 311 311 311
305 304 303 303 305 306 302 300 301 301 302 302 302 302 303 303 304 306 306 306 306 312 309 317 314 312 314 317 316 316 316 317 317 319 320 319 321 320 318 316 314 314 312 311 310
304 304 303 304 305 304 301 302 302 303 304 305 304 305 304 303 305 306 306 305 307 309 310 316 315 314 316 318 317 316 316 316 317 316 315 318 321 321 319 319 313 310 308 308 308
304 303 303 304 305 303 302 303 303 302 305 307 306 305 305 305 306 306 306 307 306 310 311 317 313 316 317 319 316 319 314 314 315 317 321 317 323 318 319 318 316 316 309 308 306
303 303 304 304 303 303 303 303 303 303 310 309 307 305 305 307 307 307 306 308 308 310 310 318 314 318 319 318 315 317 313 314 315 314 315 315 319 317 309 315 317 316 311 307 305
303 304 304 304 304 304 303 304 303 297 305 310 309 309 307 307 307 306 308 309 309 310 310 313 314 316 316 314 314 312 312 314 313 314 318 315 316 316 311 310 310 311 310 309 305
303 304 304 304 303 304 304 304 298 304 305 311 310 308 309 310 309 308 310 311 313 314 314 317 317 314 313 316 316 312 313 315 318 316 318 311 314 317 311 307 308 308 307 305 304
303 305 304 303 304 304 304 299 304 307 307 311 313 312 314 311 312 311 311 313 313 309 315 320 319 316 312 314 315 315 314 311 317 317 316 310 316 315 310 308 305 306 306 302 306
304 305 305 304 304 304 300 296 302 300 305 310 312 312 314 315 315 314 313 313 312 314 314 316 318 314 315 314 314 316 318 308 306 304 306 311 309 307 306 306 306 305 306 304 307
305 303 305 305 305 303 296 304 299 302 307 310 312 312 314 315 315 315 316 315 315 313 309 311 318 314 315 314 314 314 310 316 304 309 313 310 309 310 308 308 307 307 308 307 308
304 303 304 305 305 300 298 301 305 306 308 311 313 312 313 315 313 311 312 312 313 312 307 308 312 316 315 315 315 318 315 311 309 307 312 312 310 304 306 304 304 307 309 309 310
299 301 304 305 305 298 304 308 309 310 307 309 311 311 311 310 312 312 312 311 310 310 312 309 309 316 316 313 313 316 316 309 308 309 302 304 308 304 303 302 304 308 310 310 309
298 299 303 305 302 303 307 311 310 311 311 310 310 309 309 310 312 311 311 309 309 311 311 310 309 314 314 313 313 316 316 313 306 304 302 309 311 303 303 308 309 309 309 309 310
296 299 298 300 301 307 307 310 312 310 310 309 309 308 309 310 308 311 311 310 307 309 311 309 307 308 309 308 311 316 317 316 311 318 310 308 309 307 306 308 308 308 308 308 309
292 297 297 298 302 303 305 308 311 312 309 307 309 310 309 311 311 311 310 310 308 310 308 308 310 306 308 310 307 311 314 317 317 315 317 315 311 311 308 306 305 306 307 309 308
293 294 293 294 297 303 304 305 310 309 310 311 310 310 309 309 309 311 309 309 310 307 308 304 307 305 308 309 308 309 309 313 315 315 315 314 314 308 307 306 307 308 308 310 309
293 294 293 295 297 304 301 302 307 307 310 309 311 309 309 309 307 305 305 305 307 307 307 306 304 304 305 307 307 307 307 309 312 312 314 316 315 307 306 306 308 307 308 309 309

GFSSW_925_thetae_075.txt.gz
Theta_e
310 310 311 309 309 309 310 311 311 311 310 310 308 308 308 308 308 309 310 311 312 313 317 317 320 318 322 323 324 324 329 328 327 326 326 324 326 323 320 319 332 339 339 338 341
309 310 310 308 307 307 309 310 310 310 310 308 307 307 307 308 306 307 307 310 310 315 315 317 317 317 323 323 325 327 329 327 324 325 327 324 324 323 323 321 321 320 320 339 340
308 309 309 310 306 307 308 309 309 309 307 307 307 307 306 305 305 303 309 310 310 314 314 316 315 316 322 322 324 326 328 323 324 325 325 326 325 321 322 320 321 320 320 330 340
307 308 308 309 307 306 307 308 308 308 307 307 306 305 305 305 301 306 308 312 311 312 314 315 316 317 321 324 322 327 325 324 327 326 326 326 324 323 321 321 319 318 322 331 339
306 307 307 307 308 306 306 307 307 307 307 306 306 306 304 303 302 304 306 310 311 312 311 315 317 316 320 322 321 322 324 324 325 325 323 323 322 321 322 319 317 318 320 333 335
307 305 305 306 308 307 307 305 307 307 307 306 306 305 304 302 302 304 305 306 307 311 309 313 316 313 317 321 322 320 321 324 325 325 321 323 322 321 320 318 319 319 319 323 335
308 305 304 304 307 307 307 308 305 306 307 307 304 303 303 302 303 304 304 305 306 308 309 311 315 315 316 320 319 321 324 324 325 324 324 321 325 324 321 319 319 319 319 316 324
307 305 304 305 305 306 307 307 307 303 305 307 306 304 301 302 305 304 305 305 306 308 308 312 313 314 315 316 319 322 322 326 323 324 323 322 328 322 320 320 321 320 319 317 314
306 305 304 304 304 305 306 305 307 303 305 306 304 303 301 304 304 304 304 305 306 308 311 312 314 315 315 318 321 321 323 322 325 322 323 321 323 320 320 320 321 321 319 317 315
306 304 304 303 303 304 306 306 306 305 305 305 305 301 303 303 303 304 305 305 307 308 312 314 312 317 315 318 320 321 321 320 322 322 322 321 322 320 320 320 321 321 319 315 314
305 304 303 303 303 305 305 305 301 302 304 303 302 302 303 303 303 305 305 305 305 308 312 312 313 317 317 315 314 316 318 320 320 321 322 323 321 321 321 321 323 322 319 317 315
304 303 303 303 304 305 303 300 300 300 301 301 302 301 303 303 304 306 305 305 305 311 312 313 316 313 315 316 315 318 317 319 317 320 321 321 321 319 321 320 322 322 319 316 313
304 303 303 304 304 304 301 301 302 303 302 304 304 304 303 303 304 306 305 304 306 309 313 315 315 313 316 317 317 315 316 316 317 319 316 319 321 321 319 318 318 319 317 316 311
303 303 303 304 304 302 302 302 302 302 300 306 305 304 305 304 305 306 305 305 305 311 313 316 314 314 316 318 315 319 314 315 316 320 323 318 323 321 320 320 320 320 319 317 310
304 303 303 304 303 302 303 302 303 302 303 309 306 305 304 306 305 305 306 307 308 310 312 316 316 315 317 318 315 317 312 314 314 315 316 316 321 318 317 321 319 320 319 316 311
304 304 303 304 304 303 302 304 303 297 304 310 308 307 306 306 307 306 307 309 308 311 311 313 314 316 316 315 313 311 313 314 313 316 323 317 320 319 313 318 319 317 316 316 311
304 304 304 304 303 303 303 303 299 304 304 312 309 308 307 307 307 307 310 310 308 314 315 317 317 315 313 318 315 312 315 321 321 322 320 311 315 318 313 309 310 311 311 312 308
303 305 304 304 304 304 304 298 302 307 310 311 312 309 312 309 311 309 310 310 309 311 317 318 319 317 313 315 316 314 312 315 318 319 318 310 316 316 311 308 307 306 307 306 305
304 304 304 304 304 304 300 296 300 298 304 311 312 315 316 312 312 313 311 313 311 309 315 318 318 315 315 314 314 316 315 307 307 304 311 312 310 308 307 308 307 307 306 307 305
304 303 304 304 304 303 298 304 299 301 306 310 313 312 315 314 316 316 314 312 312 311 310 312 319 314 315 314 314 314 309 315 307 313 315 310 309 311 309 308 306 305 307 307 307
304 302 304 304 304 302 297 302 305 304 307 310 312 311 312 314 312 310 312 313 312 311 308 309 314 317 315 315 317 316 314 310 310 308 313 313 312 305 307 305 304 304 305 308 309
300 301 303 304 306 300 303 305 308 309 306 309 310 310 310 310 311 311 311 310 310 309 311 309 312 317 318 313 312 314 314 309 313 311 303 306 311 304 303 303 303 306 308 309 309
298 299 302 305 301 302 305 310 310 310 310 310 309 308 308 309 311 310 310 308 309 310 310 309 308 315 315 313 310 315 315 309 305 304 305 314 313 302 304 307 308 309 310 310 310
295 299 297 298 299 306 307 309 312 309 309 308 308 307 308 309 307 310 310 309 307 309 311 308 307 308 309 308 310 314 314 312 311 316 311 311 310 310 307 306 307 309 309 310 311
292 296 296 297 301 302 305 307 311 311 308 307 308 309 308 310 310 311 310 309 307 311 306 307 307 304 307 308 309 311 313 314 313 314 315 313 311 311 310 308 306 306 307 308 310
293 294 292 293 296 302 303 306 308 308 308 310 310 309 307 308 307 310 309 309 310 307 307 303 305 305 307 309 308 310 309 312 314 314 313 313 314 311 308 305 306 306 307 308 309
292 293 293 295 297 302 299 301 306 305 309 307 309 308 308 308 306 304 304 304 306 306 306 305 304 305 307 306 307 308 308 308 311 312 314 316 314 310 311 310 310 308 307 309 309

GFSSW_925_thetae_078.txt.gz
Theta_e
310 311 310 311 308 308 309 310 310 310 311 311 310 308 308 307 307 309 309 310 313 314 316 317 318 319 323 326 327 327 331 330 329 327 326 326 327 325 322 323 336 328 337 340 344
308 310 310 310 309 307 309 309 310 309 309 308 307 307 307 306 307 307 307 311 309 314 316 317 318 318 323 325 327 328 331 329 326 326 327 326 327 326 325 329 328 326 331 338 343
307 308 309 309 309 307 307 309 309 308 308 306 307 306 306 304 306 304 310 311 311 312 314 316 317 318 322 324 326 327 329 325 325 325 326 327 327 324 324 327 325 324 327 329 343
309 306 307 308 309 307 306 308 308 308 307 307 305 304 305 306 305 307 308 310 312 312 313 315 317 319 320 323 325 327 326 325 326 327 327 327 326 326 325 325 322 322 326 326 341
310 308 305 306 308 308 308 306 308 307 306 306 304 305 304 304 303 304 306 309 312 311 312 315 318 317 319 321 324 326 325 325 325 326 326 325 326 325 325 323 321 322 323 335 338
309 308 306 304 307 308 308 308 307 307 307 307 306 304 304 304 303 304 304 308 309 311 311 314 317 314 317 319 323 323 324 325 326 325 324 327 325 325 323 322 323 323 324 324 336
308 307 306 305 306 307 308 308 306 305 307 307 304 304 304 304 304 304 305 306 307 310 311 312 315 316 316 319 320 322 323 325 325 326 326 324 326 326 324 322 323 323 323 323 322
308 307 306 304 305 305 307 308 308 302 305 307 305 304 303 303 304 305 305 306 306 307 309 310 312 316 317 319 321 322 322 327 325 326 325 325 329 325 324 323 324 323 323 324 322
307 306 305 304 304 304 305 306 307 302 305 306 305 304 304 304 304 304 305 306 306 307 309 310 314 316 318 320 321 322 322 322 324 324 324 325 328 324 323 323 323 323 323 323 322
306 304 304 304 303 304 306 306 306 305 306 305 305 305 304 304 303 303 306 306 307 306 311 311 313 318 318 319 321 322 322 321 323 325 324 325 324 321 321 322 323 323 323 323 321
305 304 303 303 303 304 305 305 304 306 305 304 304 304 304 304 303 306 305 306 307 308 312 312 314 319 317 316 315 319 319 320 321 323 324 324 323 322 321 321 322 323 322 323 322
304 303 303 303 305 304 304 304 303 302 304 303 304 303 303 303 305 306 305 306 308 310 312 314 316 316 316 316 316 318 320 321 320 322 323 323 323 321 320 321 321 321 322 323 323
304 303 303 303 304 304 302 302 302 302 305 305 305 305 305 304 305 306 305 305 308 309 312 315 316 314 317 317 317 318 318 320 321 323 321 321 323 322 320 320 320 320 321 323 323
303 303 303 303 304 303 303 302 302 302 310 308 306 305 305 305 306 305 305 306 308 311 313 315 314 315 317 316 316 320 317 319 320 322 322 320 321 321 320 321 321 321 321 323 323
303 303 303 303 304 304 303 302 302 303 314 308 307 306 305 307 306 307 306 308 310 312 314 317 315 315 317 317 316 316 316 317 318 318 320 321 322 319 319 321 320 320 320 322 324
303 304 303 303 304 303 302 303 304 310 315 310 308 307 306 306 307 306 308 309 309 313 313 316 313 313 315 317 316 315 317 317 318 319 323 320 320 319 319 319 319 319 319 320 322
304 304 304 303 305 303 303 305 312 316 307 312 310 308 307 306 307 308 311 311 313 318 316 317 315 316 315 318 315 317 319 323 323 323 321 317 321 318 318 316 315 318 319 319 319
305 304 304 304 304 304 304 306 318 312 314 311 310 307 309 309 309 310 310 311 311 315 319 320 319 316 316 318 318 319 318 320 319 320 318 315 320 318 315 313 312 312 313 316 318
305 303 304 304 304 304 305 314 315 311 310 313 311 313 313 311 311 311 312 312 312 312 318 319 318 315 316 316 316 317 320 311 316 311 319 317 316 314 312 313 312 312 311 312 312
304 305 305 304 304 303 307 311 309 304 309 312 314 314 313 314 313 313 315 313 314 311 312 316 320 316 316 315 315 317 313 319 319 321 318 315 315 314 313 312 311 310 309 310 311
304 308 304 304 304 305 313 310 309 306 308 312 313 314 315 315 314 315 315 313 313 313 313 313 317 317 316 318 319 318 318 316 315 315 316 315 314 313 312 311 311 312 311 310 312
305 311 303 304 307 305 311 309 308 311 308 311 312 312 313 315 314 314 315 313 313 312 314 311 316 320 320 315 315 317 317 317 320 318 314 314 314 310 310 310 311 314 313 312 312
307 306 303 304 313 312 310 311 311 312 311 311 311 310 310 312 315 313 312 310 313 312 313 312 315 319 318 315 314 317 317 315 314 314 318 317 315 308 309 311 313 314 314 314 313
304 309 303 304 304 310 311 312 313 310 310 309 310 309 310 312 311 313 313 311 311 311 311 311 313 315 318 316 315 316 316 316 317 322 317 316 314 312 311 312 312 312 313 315 314
299 304 302 310 307 307 308 310 312 313 310 310 311 311 311 313 312 313 312 310 310 311 310 312 317 311 310 310 314 314 316 316 317 317 319 316 314 313 313 313 313 311 311 313 315
300 300 297 301 301 307 306 311 311 311 311 313 312 310 310 311 310 313 312 312 313 310 311 308 315 312 314 312 312 313 313 314 316 316 316 316 317 314 313 312 312 313 312 311 314
293 294 302 298 303 308 306 305 307 307 310 309 311 311 311 310 308 307 308 308 310 311 312 311 312 313 315 309 311 313 313 313 314 314 315 317 315 314 313 313 313 314 314 313 312

GFSSW_925_thetae_081.txt.gz
Theta_e
308 309 311 311 311 309 308 310 310 310 310 311 310 310 310 308 307 309 310 308 312 314 315 316 317 319 320 324 326 328 333 333 329 329 328 327 325 326 324 325 335 330 338 341 345
309 308 308 310 310 309 307 310 309 309 309 309 307 308 307 307 307 308 307 308 311 313 314 315 318 318 321 323 327 330 333 334 328 326 327 326 325 327 325 328 330 330 333 340 344
312 309 307 308 309 309 307 308 309 309 309 307 306 307 306 306 307 306 309 310 311 312 314 315 316 318 320 321 326 328 331 327 325 324 327 327 328 326 325 328 328 328 329 335 345
310 310 308 305 308 309 308 307 308 308 307 307 306 306 305 307 309 307 308 309 311 312 313 315 318 320 320 322 323 326 326 326 326 326 327 327 326 327 327 327 324 325 331 334 344
309 309 308 306 306 308 309 309 308 307 307 307 306 306 305 306 305 304 306 308 311 311 311 315 318 319 319 320 321 324 323 324 325 327 327 326 325 327 327 325 323 325 330 337 341
309 309 308 306 305 307 308 308 307 307 308 307 305 303 306 306 304 305 305 308 311 311 311 312 316 316 317 318 320 322 323 323 326 326 326 328 327 324 325 325 324 324 327 332 337
309 308 308 307 305 306 307 308 308 303 307 307 305 305 306 305 305 305 306 307 308 311 311 311 313 317 315 318 320 321 324 325 327 327 327 326 327 325 324 324 325 325 326 327 327
308 308 307 307 305 305 307 307 308 306 304 307 304 305 305 304 305 305 306 307 307 306 310 310 312 315 317 316 321 323 323 328 326 325 326 326 329 326 322 325 325 324 325 326 325
307 307 305 306 304 303 305 305 307 306 305 306 306 305 304 305 305 304 306 306 307 305 308 310 312 316 318 319 323 322 324 323 325 325 327 326 326 326 323 324 324 324 324 325 325
307 305 304 304 303 303 305 306 306 304 305 305 305 306 304 306 304 304 306 306 307 306 309 311 312 315 319 320 322 321 320 321 324 325 325 327 327 325 324 324 325 324 323 324 324
306 304 304 304 303 305 305 306 306 307 306 306 305 305 305 304 304 306 306 306 307 306 313 310 313 317 318 316 314 316 317 318 319 322 324 325 325 324 323 323 324 323 323 324 324
304 304 303 303 304 304 305 306 305 305 306 304 305 304 304 304 304 306 305 307 308 310 313 313 316 317 316 316 318 318 321 321 321 321 323 322 322 321 322 322 322 322 323 323 324
304 303 303 303 304 304 305 304 304 303 308 307 305 306 305 305 305 305 306 306 309 309 312 317 316 315 317 317 320 318 319 320 321 321 321 321 322 322 322 321 320 322 322 322 323
303 303 303 303 304 305 305 303 304 305 312 309 307 306 306 306 308 304 305 307 309 309 312 315 314 316 317 316 315 318 317 318 321 323 324 320 320 320 321 321 320 321 321 322 323
304 303 303 303 306 306 305 304 304 305 316 309 308 306 306 307 307 305 305 308 311 310 313 317 315 317 317 316 315 316 317 318 320 321 318 322 322 319 320 320 320 320 321 321 321
304 304 303 304 306 305 304 304 306 310 315 310 309 307 307 307 307 308 310 308 310 314 315 316 314 315 317 316 316 317 318 317 317 318 322 319 320 317 320 319 318 319 319 320 321
304 304 305 306 306 304 305 306 312 317 310 312 309 308 307 308 309 310 312 314 314 316 317 316 315 314 317 318 317 316 318 322 322 323 321 318 319 318 318 317 317 317 319 319 320
304 304 305 305 304 305 306 308 318 314 316 311 309 308 310 310 309 311 312 314 314 315 318 320 319 318 317 318 319 317 317 319 318 319 317 317 319 318 317 316 315 315 316 317 319
304 307 307 304 304 305 307 316 316 315 313 313 311 313 312 311 311 311 312 313 314 315 317 319 319 314 316 318 318 319 321 315 318 317 319 318 316 316 314 315 315 314 314 315 315
307 308 307 304 304 305 310 313 313 310 312 313 316 315 312 312 312 313 313 313 315 313 314 317 320 316 317 317 317 319 316 317 321 321 316 316 316 316 314 314 314 313 312 312 314
307 309 305 304 305 308 314 314 312 309 311 313 315 315 313 314 312 314 314 314 314 314 314 315 318 318 317 319 320 318 319 318 317 317 317 315 314 315 314 315 315 315 314 313 312
308 310 304 304 309 308 314 313 310 312 311 313 314 314 315 316 316 315 315 315 313 314 315 314 317 320 319 317 316 318 318 318 320 318 316 316 316 314 313 314 315 315 316 315 314
310 307 304 304 312 314 312 313 313 313 313 313 313 312 312 315 316 315 314 313 314 313 315 314 317 320 320 318 316 318 318 317 317 318 323 318 315 313 312 312 315 315 314 315 314
309 309 306 305 309 312 313 313 314 312 312 311 312 311 313 313 313 315 315 313 314 314 312 312 315 317 320 318 317 317 317 317 318 323 318 317 315 313 312 314 314 314 314 314 315
305 310 309 311 311 311 312 313 313 313 312 311 313 313 313 314 314 315 314 313 313 313 312 314 319 314 313 312 316 316 316 316 319 318 320 316 315 314 314 314 314 314 313 313 315
304 304 303 307 307 311 309 313 313 313 313 313 313 312 312 313 313 314 314 314 315 313 314 313 318 315 316 314 313 314 314 314 316 316 317 316 316 314 315 314 314 313 313 313 313
298 298 305 304 308 311 311 311 312 311 312 312 313 312 313 312 309 309 310 311 312 314 314 314 315 315 317 311 312 313 313 314 314 314 315 317 316 315 314 314 314 313 314 314 314

GFSSW_925_thetae_084.txt.gz
Theta_e
311 310 309 309 311 311 309 308 311 310 310 310 310 310 310 310 309 309 310 310 310 313 315 314 315 317 319 321 325 327 331 333 332 327 330 324 325 325 324 329 330 335 338 343 345
311 312 310 308 309 310 309 307 310 309 309 309 309 309 308 307 308 308 308 310 309 312 313 314 315 317 319 320 325 328 332 331 328 327 328 326 324 325 325 330 330 334 341 344 345
310 311 311 308 307 309 310 309 309 309 308 308 308 308 307 306 307 308 308 310 311 311 312 312 315 317 320 320 324 327 328 328 325 326 327 326 327 325 326 329 327 327 339 339 345
309 310 310 308 307 307 309 309 308 308 307 307 307 307 304 308 309 307 308 308 310 311 312 312 315 318 320 321 321 326 324 325 325 326 327 326 325 326 327 326 325 327 335 339 345
309 310 309 308 307 306 308 309 309 308 308 308 307 306 306 307 306 304 305 306 310 310 311 313 315 317 320 318 319 324 325 325 324 327 326 326 325 326 326 323 324 327 336 339 342
308 310 308 308 306 305 307 308 309 307 307 308 306 303 306 307 304 305 305 307 310 311 311 312 315 316 319 317 319 322 322 325 325 323 326 328 327 324 325 322 323 325 332 338 339
309 309 309 307 307 305 306 308 308 308 304 307 308 307 306 306 305 305 306 308 308 309 310 311 313 313 316 318 317 320 322 323 327 325 327 327 329 327 324 323 324 324 326 332 337
307 308 308 306 306 305 305 307 308 308 304 305 306 306 306 305 304 305 306 308 307 306 308 311 311 311 315 317 318 322 322 325 325 326 326 327 328 325 323 323 324 324 324 326 324
307 308 306 305 305 304 304 305 307 308 303 305 306 306 305 305 305 304 306 306 307 307 305 309 309 312 316 319 321 323 324 324 326 325 325 327 327 324 322 323 324 323 323 325 324
307 306 304 304 303 304 304 304 306 303 305 305 305 305 306 306 304 304 306 306 307 307 309 308 310 310 317 320 323 322 323 322 323 326 327 326 326 324 324 324 322 321 321 322 323
306 305 304 304 304 304 305 306 307 307 306 306 305 304 304 304 304 305 305 306 307 307 310 309 311 315 319 318 317 320 319 321 321 324 326 326 325 324 324 323 322 321 321 321 321
306 304 304 303 304 304 304 307 305 305 308 305 305 304 304 304 305 306 306 307 308 309 306 313 315 315 318 317 316 317 319 321 323 324 324 324 323 323 322 323 322 322 322 321 320
305 304 304 303 304 304 306 305 304 304 308 307 306 305 305 305 305 306 305 307 309 309 313 316 315 314 318 318 317 316 316 322 325 322 320 320 321 320 319 318 319 320 319 320 321
304 304 303 304 304 306 305 304 305 305 312 309 308 307 307 306 308 305 306 307 308 312 313 315 313 315 319 319 319 321 318 319 321 321 323 319 319 318 318 319 319 318 317 318 319
304 304 304 304 306 306 305 304 304 305 315 309 308 306 307 308 306 307 305 309 309 311 313 315 316 318 319 318 318 319 319 320 321 321 321 320 320 315 318 319 319 317 316 317 317
304 304 304 304 306 305 305 305 306 312 312 308 308 307 307 308 309 308 310 308 310 313 314 315 313 315 317 317 317 318 319 318 317 318 318 319 319 316 317 317 317 316 316 316 317
304 304 305 306 307 305 306 307 312 315 310 310 309 308 308 309 310 311 312 313 315 316 316 315 315 314 316 319 317 317 317 319 319 316 319 316 317 317 316 315 316 316 316 315 315
304 305 306 306 305 306 306 309 316 314 315 309 309 308 311 310 310 311 313 315 313 316 315 318 317 316 317 319 318 317 317 319 317 317 316 317 317 315 315 313 313 314 314 314 313
306 307 307 305 304 306 308 314 314 315 313 312 310 312 312 310 311 311 313 314 315 315 319 319 317 315 317 318 318 317 317 314 319 316 316 317 315 315 314 313 313 312 313 314 314
307 308 307 304 304 307 310 312 312 312 313 312 316 314 311 311 311 313 314 313 315 314 314 316 316 315 318 318 317 318 316 317 317 316 315 316 315 314 312 312 312 311 311 311 313
307 309 305 304 306 308 314 314 313 310 312 314 315 314 311 312 312 313 314 314 314 314 313 315 316 318 318 317 318 318 318 318 316 315 317 314 313 311 312 313 312 312 313 312 311
308 310 305 306 310 309 314 313 310 312 311 313 314 314 314 314 313 314 313 315 313 313 316 314 316 317 317 316 316 317 320 316 316 317 313 314 314 311 311 313 313 314 314 313 313
309 307 304 306 313 314 312 313 313 313 313 313 314 313 312 315 316 314 314 314 314 314 315 314 317 319 317 316 315 317 317 318 317 315 315 314 312 310 309 310 313 313 313 312 313
309 308 306 305 307 311 314 314 314 312 312 312 312 312 313 313 313 315 315 314 314 314 312 312 315 316 316 316 316 316 316 315 316 315 317 315 315 312 311 311 312 312 311 311 312
306 310 307 308 310 311 313 313 314 313 312 312 313 313 313 313 314 315 314 314 314 314 312 313 316 310 313 311 315 317 316 315 313 315 313 315 315 313 310 311 310 310 311 311 312
305 306 305 309 310 311 311 313 312 313 313 313 314 312 312 313 312 314 314 313 314 313 313 312 315 312 311 313 312 313 313 313 314 315 317 316 316 313 313 311 312 311 312 311 311
300 300 304 307 308 311 311 311 312 313 312 313 313 313 313 312 309 308 309 310 311 313 313 314 314 312 313 311 310 311 312 313 313 313 314 316 315 313 312 312 312 311 311 311 311

GFSSW_925_thetae_087.txt.gz
Theta_e
311 311 312 310 308 308 311 310 309 310 309 310 310 310 310 310 309 309 309 308 310 312 313 314 313 315 316 319 323 326 331 329 329 326 328 322 325 324 323 330 336 335 340 345 345
310 310 312 311 308 307 310 310 308 309 308 309 309 309 309 307 307 307 308 310 311 311 312 313 313 314 316 319 324 327 331 328 326 327 328 324 324 324 325 329 339 343 342 345 345
309 310 312 311 309 307 308 311 309 309 308 308 308 307 306 305 308 308 309 309 309 311 311 311 312 314 317 318 321 326 328 327 327 327 328 326 326 324 325 327 325 339 346 344 344
309 310 311 310 309 307 306 309 310 308 308 308 308 307 305 306 308 307 307 308 306 310 310 311 311 315 317 319 319 325 324 324 325 327 328 328 325 325 325 325 324 333 340 342 343
309 309 311 308 308 307 306 309 309 309 307 308 307 306 304 307 307 305 306 305 307 308 309 311 311 313 317 317 319 324 324 324 325 328 327 326 327 325 323 323 328 337 340 343 342
309 309 309 309 308 306 306 307 309 309 307 308 308 305 305 308 305 304 305 307 306 308 310 310 310 313 316 317 318 319 323 323 324 326 325 326 328 326 323 321 326 337 339 340 341
309 308 309 307 306 305 305 306 308 308 308 306 308 307 307 306 304 304 306 308 306 306 309 310 309 313 314 318 315 318 323 323 326 325 325 327 328 328 322 321 322 332 336 337 340
308 308 308 306 305 305 305 305 307 308 308 304 307 306 305 305 303 304 305 307 306 305 304 305 311 311 313 315 318 319 321 325 326 324 323 319 323 327 322 320 321 323 330 332 336
308 307 307 305 304 304 304 305 306 307 306 302 305 306 305 305 305 304 305 306 306 307 307 305 310 311 314 318 320 321 323 323 327 324 325 322 322 326 322 320 321 319 322 322 322
308 307 305 304 304 304 304 304 306 304 306 305 306 305 305 305 304 304 305 306 307 307 307 306 309 309 314 319 322 323 323 322 326 324 323 325 326 325 323 320 320 320 319 321 320
307 306 305 304 304 304 304 306 305 305 306 306 305 305 304 304 303 306 305 305 306 307 309 306 312 314 313 314 317 319 321 321 322 324 326 326 325 324 323 322 320 319 319 319 320
307 305 304 304 304 304 305 306 305 304 307 304 305 305 304 304 305 306 305 307 308 309 306 311 314 313 314 314 318 320 321 321 322 322 321 323 324 322 321 321 319 318 318 318 318
306 304 304 303 304 303 304 306 304 305 307 307 306 306 305 305 306 307 305 308 308 309 310 312 315 315 317 318 318 318 319 321 322 324 323 323 323 322 320 320 319 318 317 317 317
305 304 303 304 304 305 306 304 303 305 309 309 308 307 306 305 306 305 306 307 308 311 313 312 313 317 317 317 317 318 318 321 323 323 324 321 324 319 319 318 319 318 315 316 315
304 304 303 303 306 306 305 304 304 304 299 309 308 305 307 308 306 305 306 309 312 313 314 316 316 317 320 319 318 319 318 321 323 321 322 319 319 316 315 317 316 314 314 313 313
304 303 304 304 305 305 305 304 305 303 307 307 308 308 309 309 309 308 310 308 309 314 313 314 313 314 316 318 317 319 319 319 319 317 315 319 317 315 315 317 316 315 313 313 314
303 304 304 306 306 305 305 305 308 303 307 309 306 309 309 311 312 311 311 313 314 308 312 312 313 312 315 316 317 320 315 319 319 315 317 314 317 315 314 313 313 313 312 312 312
304 305 306 306 304 305 306 303 303 311 309 308 308 308 310 310 310 313 313 314 312 312 315 310 309 316 314 318 318 319 315 313 318 317 314 314 315 314 312 312 312 311 311 311 312
305 306 306 305 304 306 306 301 305 307 310 310 309 310 310 310 310 310 312 313 314 314 312 312 316 315 316 317 316 316 312 312 315 312 311 314 314 311 311 311 311 311 312 312 311
307 307 306 304 304 306 306 309 306 310 312 311 314 311 310 310 310 311 313 312 314 313 312 313 318 314 317 316 316 317 315 313 308 314 316 314 314 312 310 309 309 309 309 309 310
307 309 305 304 306 307 308 308 311 310 312 313 314 313 309 311 310 312 314 313 313 313 312 313 312 316 316 316 318 317 317 316 313 312 315 313 310 307 309 310 311 311 311 310 309
307 308 305 305 308 307 308 311 311 311 310 312 312 313 310 310 311 312 315 315 312 312 314 312 312 316 316 315 315 316 318 317 311 315 309 310 311 310 309 310 311 312 313 312 312
307 305 304 306 306 306 310 312 312 312 312 313 313 312 311 313 315 313 313 313 313 312 313 312 310 308 314 313 313 316 316 317 314 311 311 312 310 308 309 311 311 311 310 310 310
303 306 305 305 305 308 310 312 313 311 312 311 311 311 312 312 312 313 314 314 313 313 312 311 312 309 307 311 313 315 315 315 313 310 315 313 313 311 308 308 308 310 310 309 310
304 304 304 307 304 306 309 312 313 312 311 310 312 312 312 312 313 314 314 314 314 313 311 311 311 305 311 311 312 314 315 314 310 313 312 315 314 313 310 309 310 308 308 309 310
302 305 303 304 307 307 309 311 312 312 311 312 312 312 310 311 310 313 312 312 313 312 312 310 310 308 307 311 311 312 311 311 312 313 314 313 314 311 310 311 310 309 309 308 308
300 300 301 305 306 307 308 310 313 311 311 312 311 311 311 310 308 307 306 308 310 312 311 311 310 307 308 310 308 309 309 311 311 311 313 314 314 312 311 311 310 309 309 308 308

GFSSW_925_thetae_090.txt.gz
Theta_e
310 311 310 313 311 308 308 311 310 309 309 309 310 310 310 309 308 308 309 306 310 313 314 312 313 314 314 316 320 324 331 328 328 321 323 322 324 323 324 335 338 336 342 343 340
311 309 310 312 311 309 307 309 311 309 309 308 308 308 308 308 306 307 306 310 312 311 311 312 312 313 314 317 320 325 329 327 325 327 327 325 324 322 330 334 340 344 344 344 343
310 310 310 312 310 309 308 307 310 310 309 308 308 308 307 306 307 306 309 308 307 309 310 309 310 313 315 316 319 321 328 327 328 327 327 327 325 323 325 327 328 345 345 343 342
310 310 309 311 309 309 307 307 310 310 309 308 308 308 305 305 306 307 308 307 309 307 305 308 309 312 314 317 318 323 323 326 327 326 327 327 324 324 324 324 328 340 342 342 342
310 309 310 310 310 307 307 306 308 309 309 307 308 307 305 306 306 305 305 305 307 307 307 308 309 311 313 314 316 320 322 321 324 327 327 327 326 325 323 324 331 339 340 340 339
310 309 308 309 308 306 307 306 307 309 309 307 308 307 305 306 304 304 305 306 307 305 307 308 310 310 311 314 316 318 320 321 325 326 325 326 326 325 323 324 336 339 339 340 340
310 309 308 309 308 306 306 306 306 308 309 308 307 307 306 305 305 304 305 307 306 304 308 305 309 310 312 315 315 317 323 321 325 326 326 324 327 328 323 321 336 337 336 337 339
310 308 308 308 306 305 305 305 307 307 308 308 306 306 305 304 304 304 304 307 306 305 305 306 306 307 313 314 316 318 321 327 326 325 325 323 329 323 322 320 326 333 333 334 335
310 308 307 306 305 304 304 305 307 308 308 306 305 306 305 304 305 303 303 306 306 307 306 306 307 310 312 317 318 319 323 324 329 324 324 323 323 321 321 322 319 324 329 331 332
309 307 306 305 304 304 305 305 304 304 306 305 305 304 303 305 303 303 305 305 307 307 308 308 310 310 311 316 319 322 322 321 325 324 323 323 324 323 322 322 322 319 322 321 327
309 306 305 304 304 304 305 306 304 305 305 305 304 305 304 303 303 305 304 305 306 308 308 308 311 313 312 315 316 318 319 321 323 323 322 324 323 322 323 323 321 317 317 319 320
307 306 305 304 304 304 305 305 304 304 306 305 304 304 304 304 305 306 304 307 308 309 307 311 312 311 310 314 316 317 320 321 324 322 322 323 324 324 324 324 323 318 317 317 317
307 305 304 303 304 303 304 306 304 304 306 307 305 305 305 305 306 306 306 307 307 309 310 314 314 314 315 317 319 319 320 320 323 323 322 320 322 321 320 321 321 317 316 316 316
306 304 304 304 304 305 305 305 303 305 299 307 307 306 306 306 305 305 306 307 307 309 312 315 314 316 317 318 317 320 318 319 323 324 327 322 324 319 318 318 319 319 315 315 315
305 304 303 304 305 306 304 304 304 303 297 304 306 305 307 308 306 305 306 309 313 314 314 314 318 318 319 318 317 319 319 321 322 322 321 324 322 318 313 318 317 316 317 314 313
305 304 303 304 304 305 304 304 305 297 301 303 307 308 309 309 309 308 310 308 309 313 312 314 312 315 316 317 317 318 320 320 321 320 323 320 321 317 314 317 317 313 313 314 313
304 303 304 304 306 304 304 304 299 300 304 305 305 308 309 311 312 311 312 313 315 310 312 313 313 313 315 318 317 318 319 322 323 320 319 316 320 318 313 311 314 313 312 311 310
303 304 305 306 304 305 306 299 301 308 307 307 307 307 309 309 309 312 312 313 312 311 314 311 316 315 314 317 319 318 317 317 321 317 314 314 319 314 310 311 311 311 311 310 310
304 305 306 305 305 306 303 298 303 305 308 308 308 310 308 309 310 309 311 313 313 312 312 309 313 314 315 315 316 318 313 312 312 309 310 312 312 311 311 311 310 310 310 311 310
306 306 305 304 305 305 301 306 304 308 309 309 310 309 309 309 310 310 312 312 313 312 311 312 311 313 315 314 315 314 313 312 308 312 316 313 314 311 310 311 309 309 309 307 306
307 306 305 304 306 304 300 303 309 309 310 312 313 312 308 309 309 310 313 312 311 312 311 311 310 313 313 313 318 316 315 314 310 310 312 313 311 305 307 307 308 310 311 310 309
305 307 304 305 306 304 305 309 310 310 310 311 311 312 307 309 310 312 314 313 311 311 312 311 310 312 316 314 315 315 317 313 309 312 306 308 309 307 308 308 309 310 311 311 310
304 305 304 306 307 305 306 311 311 311 310 311 313 311 310 312 313 312 313 312 312 311 312 311 308 314 311 311 311 315 315 316 311 308 308 309 309 306 308 310 310 310 310 309 310
303 307 306 305 305 306 309 311 312 310 311 311 310 310 311 312 311 313 313 313 312 311 312 310 309 307 307 309 311 315 315 315 312 308 313 311 313 311 308 308 306 308 308 307 308
302 302 305 306 304 305 308 311 312 312 310 309 311 311 311 312 312 314 313 313 313 312 310 310 310 304 310 311 311 313 314 313 309 313 312 314 313 312 310 308 309 309 308 307 306
303 302 301 301 303 304 307 310 310 311 310 311 311 310 310 310 311 312 312 312 312 312 311 308 308 305 307 310 310 312 310 310 311 312 312 313 313 311 309 307 309 308 308 308 306
299 300 301 304 304 306 307 309 311 310 310 310 309 309 309 308 306 306 306 307 310 311 310 310 308 306 308 308 307 308 308 309 311 310 312 313 312 310 311 310 310 308 308 307 307

GFSSW_925_thetae_093.txt.gz
Theta_e
312 311 310 311 313 311 308 308 310 310 310 309 308 309 309 310 308 307 308 305 309 312 313 311 312 313 314 315 316 322 326 328 325 321 321 321 324 323 328 334 337 337 339 339 338
311 310 310 311 313 311 310 308 308 311 310 308 308 308 308 308 307 306 305 310 312 311 310 310 310 311 312 315 316 320 323 327 323 324 322 326 322 323 333 338 340 344 341 341 341
312 311 310 310 312 310 309 308 307 310 310 308 308 308 308 306 307 306 309 308 308 308 305 309 308 310 313 313 316 319 322 321 324 327 326 327 324 322 328 331 338 346 343 341 340
312 311 310 310 311 310 309 308 307 310 310 308 308 307 306 305 303 306 308 307 307 309 306 306 309 310 312 314 314 320 319 320 326 326 327 326 325 323 323 326 326 344 342 340 339
312 311 310 310 310 309 307 307 307 308 309 308 308 308 305 305 305 305 306 305 305 307 306 306 308 309 311 312 312 317 319 317 320 323 326 325 326 325 323 326 335 341 342 342 340
312 311 310 308 309 307 307 306 306 307 308 308 307 307 305 303 304 304 304 305 306 305 306 306 307 308 309 312 313 315 317 319 319 322 325 327 325 323 322 329 337 338 339 339 339
312 311 310 308 309 307 306 307 306 306 308 308 307 307 305 304 304 304 304 306 306 305 306 305 308 308 308 312 311 313 319 320 318 322 327 325 327 327 321 325 336 337 336 336 337
312 311 309 308 308 305 306 304 306 307 308 308 307 306 305 303 304 304 303 306 306 305 305 306 306 308 309 310 314 315 317 321 321 322 323 325 331 323 319 320 331 334 334 336 336
311 311 308 308 306 304 304 305 307 307 308 307 305 305 305 304 304 304 303 305 306 306 305 307 306 308 309 311 316 315 320 320 323 320 320 325 328 322 319 320 320 319 328 331 333
311 310 307 307 305 304 305 304 305 305 306 304 305 304 303 304 303 303 304 304 306 306 307 307 309 308 307 314 316 316 321 321 323 324 321 324 324 322 321 320 320 319 319 323 330
311 309 306 306 304 304 304 305 304 304 305 304 304 304 304 303 303 305 304 304 306 306 310 307 311 311 310 314 314 315 318 321 320 321 320 320 322 323 322 322 321 319 317 318 323
311 309 306 305 303 304 304 304 304 304 306 305 303 303 304 303 305 305 304 306 308 308 308 310 312 310 311 311 314 317 318 319 322 322 320 321 320 324 324 323 322 321 318 316 318
310 307 305 304 304 304 304 305 303 303 305 307 305 304 304 305 306 306 306 306 308 308 310 312 312 311 310 312 318 318 320 322 323 322 320 320 320 320 321 322 319 319 317 315 316
309 306 304 303 303 303 304 305 303 304 295 303 307 305 306 306 304 305 305 306 306 310 312 315 313 312 311 318 316 319 319 322 323 324 328 322 324 321 319 320 319 317 316 314 314
307 305 304 304 305 305 305 304 303 302 293 302 306 305 306 308 307 305 306 308 311 314 314 316 316 314 317 319 317 319 319 321 321 321 322 324 322 320 315 318 316 314 313 313 312
306 305 303 305 305 305 304 304 304 294 294 301 306 307 308 308 309 309 310 308 309 314 315 315 313 315 316 316 318 318 319 319 319 320 322 324 322 320 313 315 316 314 311 313 313
304 305 303 304 305 304 303 302 299 294 302 303 304 307 308 309 311 311 312 313 315 316 314 315 314 314 314 317 318 318 318 323 322 322 322 318 321 318 315 313 310 314 311 310 311
304 304 304 305 304 304 305 298 295 304 304 307 307 307 308 308 308 311 311 311 312 310 309 315 311 316 314 317 319 317 316 318 322 319 315 316 321 317 310 308 309 311 311 309 309
304 305 305 304 304 305 300 297 299 304 305 307 307 309 308 309 309 309 311 312 311 311 313 310 316 313 315 315 316 316 318 311 311 309 311 314 310 310 310 310 309 309 308 308 308
305 305 304 305 305 304 299 305 303 305 307 307 309 307 308 308 309 310 310 311 312 311 309 311 314 311 315 314 315 314 311 314 312 318 314 311 312 310 312 312 310 309 307 306 305
305 304 304 304 306 303 301 302 306 309 308 309 309 309 308 309 309 311 312 311 311 311 309 309 308 312 312 314 317 316 314 311 310 309 311 314 312 306 307 309 309 309 310 309 308
304 306 304 305 305 303 304 305 309 310 310 311 310 311 306 308 310 312 314 313 310 311 312 310 309 308 315 313 313 314 317 309 308 311 304 307 309 305 306 307 309 310 309 308 308
306 305 304 305 302 303 304 310 309 310 310 311 312 311 309 310 312 312 313 311 311 311 311 310 307 304 307 308 310 314 314 312 308 306 307 308 308 306 308 309 309 310 309 307 308
303 307 306 305 305 304 308 311 311 310 310 310 309 309 310 311 309 312 313 313 312 311 312 309 307 306 306 309 309 314 314 314 310 305 311 309 311 310 309 309 306 307 308 307 305
301 302 304 306 306 306 307 310 311 311 310 309 310 310 310 312 311 313 313 313 312 311 309 308 309 303 309 310 310 313 314 313 306 313 312 314 312 311 310 309 306 306 307 306 305
303 302 299 300 302 304 306 309 310 310 309 310 310 309 308 310 310 312 311 311 312 311 310 306 307 304 307 308 310 311 310 310 310 312 311 311 312 311 310 307 307 307 307 307 307
298 300 301 303 302 304 305 308 310 309 310 308 308 308 308 308 306 306 305 307 309 310 309 309 307 306 308 306 307 307 309 308 309 309 311 312 309 309 308 309 308 308 307 306 306

GFSSW_925_thetae_096.txt.gz
Theta_e
313 313 312 311 312 313 311 309 309 309 311 310 308 308 309 309 308 306 307 305 308 312 313 310 311 311 313 313 315 317 323 325 326 324 322 318 320 322 328 331 331 329 330 334 336
312 313 312 311 311 313 311 310 308 308 311 309 308 309 308 308 306 306 304 309 312 312 310 308 309 309 310 313 313 319 320 320 322 323 319 321 322 321 335 338 339 339 340 335 332
313 313 312 311 310 312 311 310 308 307 311 309 308 308 308 307 305 305 310 310 308 308 306 307 308 309 311 312 313 316 318 317 321 323 324 327 324 321 329 336 338 336 340 335 333
316 313 313 312 311 311 310 309 308 307 310 309 308 308 308 305 301 305 308 308 307 308 307 306 308 309 310 311 312 315 315 317 318 322 324 326 325 322 325 328 325 335 339 337 337
316 313 311 312 310 310 309 308 308 307 309 309 307 309 304 305 305 304 307 305 305 307 306 305 307 307 309 309 311 313 314 317 317 323 322 325 327 324 323 322 335 339 339 336 334
317 314 312 311 309 309 307 308 308 306 308 309 307 307 305 303 303 304 304 304 305 306 305 305 306 306 308 308 311 310 312 314 318 319 320 326 326 323 323 319 335 340 340 337 336
318 314 312 310 309 309 307 306 306 306 307 308 307 307 305 301 304 304 304 304 306 305 305 304 304 307 306 309 309 311 315 313 316 320 319 317 327 326 319 321 333 338 339 338 337
318 314 311 309 308 308 306 305 305 306 307 308 307 306 302 302 304 304 303 304 306 305 305 305 305 308 308 308 310 311 313 318 316 320 319 314 325 321 319 325 325 330 335 337 339
318 314 311 309 307 306 304 305 306 307 307 307 305 304 304 303 303 304 303 304 306 306 305 305 305 307 308 311 311 312 314 317 322 319 318 314 321 321 319 320 321 319 327 333 335
319 313 311 308 307 305 304 306 305 304 306 306 304 304 302 304 303 303 303 304 305 306 307 307 305 309 309 311 311 313 315 316 319 321 318 317 312 314 319 320 320 318 319 324 331
317 313 310 306 306 304 305 304 303 303 305 303 303 304 303 303 303 304 304 304 305 306 308 307 308 310 307 310 309 311 316 319 320 321 319 318 316 317 321 320 320 321 319 319 323
314 312 308 306 305 304 304 303 303 303 305 304 304 303 303 303 304 305 305 305 307 307 306 309 311 309 308 311 312 313 317 320 322 319 319 319 319 317 318 321 321 321 320 318 318
313 311 307 305 305 305 304 305 303 303 304 306 304 304 304 304 306 306 304 305 306 308 305 310 311 310 311 313 316 314 318 321 322 319 320 320 320 319 317 318 319 318 319 317 317
310 309 305 304 304 303 303 305 303 304 294 300 306 305 306 305 304 305 306 306 306 309 311 312 311 310 310 316 316 318 315 319 321 322 326 321 323 321 319 318 318 316 316 316 316
310 308 305 303 304 303 304 304 303 300 292 299 305 305 306 307 306 306 306 308 310 313 312 315 314 313 314 318 314 318 318 319 320 322 323 323 323 320 317 318 316 314 313 313 313
311 307 304 304 305 304 304 303 303 295 292 299 306 306 307 308 309 309 310 308 310 313 315 313 305 310 316 316 317 316 317 317 318 318 320 323 321 320 316 316 316 313 311 312 312
310 305 304 304 305 303 303 301 299 293 299 302 304 306 306 308 309 311 312 314 313 313 313 315 316 315 314 317 317 316 314 316 318 320 319 319 320 318 315 312 312 311 309 309 310
307 304 305 304 304 303 303 300 297 302 302 306 306 307 307 307 308 309 310 312 311 308 306 305 315 316 315 317 319 317 314 314 321 320 316 317 321 315 310 307 308 309 309 308 308
305 305 304 305 304 304 300 299 298 301 304 306 307 308 306 307 309 308 309 311 311 310 308 310 318 313 314 316 316 318 312 310 310 309 313 316 312 308 309 309 307 306 304 305 305
305 305 304 303 304 303 301 305 302 303 306 306 308 307 308 307 308 309 308 310 311 309 309 310 318 312 315 314 314 313 311 313 309 313 313 311 311 312 308 310 308 307 306 305 304
305 306 304 304 305 303 303 301 306 307 307 309 308 308 307 308 308 311 312 311 310 310 308 308 309 313 311 314 316 313 314 310 309 308 312 313 310 307 306 305 308 307 307 306 305
304 305 304 305 305 305 305 304 308 309 309 310 309 308 306 308 309 312 313 312 308 309 311 309 307 312 315 311 312 313 315 308 309 312 303 306 309 304 306 307 308 308 308 307 307
305 304 304 305 305 305 303 308 309 309 309 310 311 310 307 309 312 311 312 311 309 310 310 309 306 304 307 308 309 313 314 309 306 305 306 306 308 305 306 308 306 308 307 306 305
305 306 304 305 303 302 307 310 310 309 309 310 309 309 309 310 309 312 312 312 310 311 311 307 305 306 305 308 309 314 313 313 308 305 310 308 310 309 308 307 305 305 306 305 305
302 303 304 306 306 305 306 309 310 311 309 308 310 309 309 311 311 312 312 312 311 310 308 306 308 302 308 310 309 312 313 312 305 310 309 311 310 310 308 308 307 305 305 306 306
302 301 299 300 303 306 306 309 309 309 309 310 309 309 308 310 309 311 311 311 311 309 308 305 306 303 306 306 308 311 309 309 310 311 311 311 311 309 308 307 307 306 306 306 305
298 299 299 304 301 307 304 307 309 308 309 308 307 307 308 308 306 305 304 305 308 309 308 307 306 305 307 305 305 306 308 308 308 308 310 311 308 305 305 305 306 306 306 305 305

GFSSW_925_thetae_099.txt.gz
Theta_e
319 316 313 314 312 312 313 312 310 309 310 311 309 308 309 308 308 305 306 305 307 312 313 310 310 310 311 314 315 317 321 322 322 323 323 320 321 320 324 330 329 327 328 327 331
322 317 314 313 312 312 313 312 310 309 309 310 309 309 308 308 305 305 303 309 311 313 310 306 306 308 310 313 315 316 318 318 319 321 322 321 321 321 328 332 333 329 337 335 331
323 318 315 313 312 312 312 312 310 309 308 310 309 308 308 307 304 303 311 311 309 308 306 306 307 308 310 311 313 315 316 315 316 318 323 325 326 324 324 330 333 331 337 332 331
319 320 316 314 311 312 311 311 309 308 308 309 309 308 306 304 300 305 309 308 310 308 307 305 307 308 309 310 311 313 312 314 315 316 321 323 324 326 322 327 323 330 335 332 332
317 320 317 314 311 310 307 310 309 308 308 308 308 308 304 304 304 304 308 306 304 305 306 305 306 307 306 308 309 312 312 313 315 316 319 322 325 325 326 323 321 331 333 332 331
313 317 318 314 311 309 307 308 308 308 307 308 307 306 304 300 301 304 304 304 304 306 305 305 306 305 306 307 309 309 309 310 312 316 319 321 323 321 324 319 320 331 335 331 330
312 316 318 314 311 308 308 308 307 307 306 308 307 305 304 301 302 304 304 304 304 305 305 305 303 304 305 307 307 308 311 312 311 312 319 318 321 321 320 320 324 329 336 335 333
312 315 317 313 310 307 308 307 305 306 306 307 307 305 302 301 303 304 303 304 304 305 305 305 305 305 305 307 308 309 309 314 312 312 318 318 322 320 314 319 322 327 335 335 335
309 312 316 313 308 307 306 304 305 307 307 308 304 303 303 303 303 303 304 303 304 305 306 306 305 305 307 310 308 309 312 315 316 314 317 317 319 319 314 316 321 322 332 335 335
308 311 316 311 307 306 305 305 305 306 307 305 304 303 301 303 303 303 302 303 305 305 306 306 306 308 308 311 309 312 311 314 318 318 316 316 316 313 314 316 321 321 323 334 335
308 311 313 309 306 305 305 304 303 303 304 302 303 303 303 303 303 303 304 304 304 305 305 306 307 309 307 307 308 312 311 313 317 319 318 318 316 316 315 315 318 322 323 327 333
307 309 312 308 305 304 305 304 303 302 304 303 303 303 303 303 304 304 304 304 306 305 306 307 310 309 307 307 309 308 311 317 318 319 319 319 319 318 316 316 318 321 323 321 323
305 308 310 307 305 304 305 304 303 302 303 305 304 304 303 303 305 306 304 305 305 305 306 308 310 310 309 310 311 307 314 318 318 320 319 319 321 319 318 318 317 319 319 320 320
304 307 308 305 305 304 303 304 303 303 294 300 305 305 305 305 304 304 305 306 307 309 309 309 309 312 310 311 313 315 314 318 320 322 325 321 323 321 320 320 318 317 317 318 318
305 306 307 304 303 303 304 304 303 300 293 298 305 304 305 308 308 308 306 307 310 310 308 314 313 310 314 314 315 315 317 319 320 322 322 322 322 320 317 322 320 316 316 316 315
304 306 306 303 304 304 304 303 301 295 292 299 305 306 307 309 309 309 309 307 309 309 308 309 308 311 315 316 314 316 317 318 318 318 321 322 319 318 320 319 316 314 316 315 316
304 308 305 303 305 304 303 300 300 294 298 302 304 306 306 307 309 311 312 313 312 312 313 313 313 315 314 318 316 314 314 318 318 320 320 314 319 317 314 315 313 313 310 309 311
305 307 305 304 304 303 302 299 297 301 300 305 305 306 306 307 308 308 310 309 309 306 310 315 320 316 315 317 318 316 312 315 319 321 318 317 320 316 308 309 307 307 307 308 309
305 305 304 305 304 303 299 297 299 300 303 306 305 306 306 306 308 307 308 309 309 309 310 316 318 314 316 316 316 316 313 309 311 309 318 314 313 308 308 308 307 306 305 306 307
305 304 304 305 303 302 299 304 301 301 305 305 305 306 308 306 308 308 308 309 310 308 308 311 320 314 314 315 315 314 310 312 311 314 314 312 311 312 309 307 307 308 307 306 305
303 304 304 303 304 300 299 301 305 305 306 308 307 307 306 308 308 309 310 310 309 309 306 307 311 314 312 314 316 316 315 309 308 308 313 312 312 306 307 306 308 308 308 307 307
304 305 303 304 302 301 304 303 306 308 307 309 308 306 307 307 309 311 312 311 308 308 310 308 308 314 314 310 310 312 314 307 311 312 304 308 311 304 306 307 308 309 308 306 306
303 305 304 304 305 304 303 307 308 309 309 310 311 309 306 308 311 311 311 310 308 309 310 308 306 306 309 308 308 312 312 307 306 306 308 310 311 305 306 307 305 306 307 306 305
304 305 304 305 302 302 306 308 309 308 309 309 308 308 309 309 308 311 312 311 309 310 310 306 305 305 305 308 308 313 312 310 307 308 311 308 310 309 308 308 308 306 304 305 305
303 305 304 305 306 303 305 308 309 310 308 307 309 309 309 310 310 312 311 310 310 308 306 306 308 302 306 308 308 312 312 311 305 309 310 310 310 309 308 307 307 305 305 306 306
303 303 299 301 304 304 307 308 308 309 309 309 308 308 308 309 308 310 310 310 310 307 307 304 306 302 307 305 306 310 308 308 310 311 311 311 312 306 304 303 306 305 305 306 305
298 299 299 304 304 307 306 306 308 307 308 307 306 306 308 308 306 305 304 303 306 308 307 306 305 305 307 305 305 307 307 307 308 308 309 310 307 304 306 307 306 305 304 305 304

GFSSW_925_thetae_102.txt.gz
Theta_e
318 321 320 316 314 313 313 314 313 311 309 310 311 309 309 309 307 306 306 306 308 310 313 311 310 311 312 313 315 317 321 320 317 318 319 319 322 323 323 323 325 330 328 328 326
317 319 323 317 315 312 313 313 312 310 309 309 310 309 309 308 305 304 304 307 311 313 310 308 308 308 311 312 313 316 317 316 315 315 318 318 321 322 322 323 324 328 328 329 327
316 317 319 319 316 313 312 312 312 310 309 309 310 309 308 307 304 304 308 310 312 308 307 307 306 306 309 310 312 313 315 313 314 315 317 319 321 321 321 324 324 325 328 331 327
313 316 316 320 316 313 313 309 310 309 309 309 309 308 307 305 303 305 311 308 310 308 307 307 307 306 307 308 308 312 311 312 312 314 317 319 321 322 324 322 323 325 329 331 330
309 312 316 320 317 313 311 307 309 308 308 308 309 308 305 305 303 304 309 309 307 305 304 306 306 306 305 305 306 308 308 309 311 312 314 316 320 322 324 323 324 323 325 332 331
308 311 314 316 316 312 308 308 308 307 308 307 308 306 304 303 300 304 306 304 305 306 306 307 306 306 306 306 306 305 307 307 310 312 314 315 318 320 322 320 323 324 326 331 331
307 309 311 317 315 311 307 309 307 307 306 306 308 306 305 304 302 304 304 305 305 305 305 306 306 306 306 306 306 306 307 308 309 309 313 314 318 321 319 318 322 323 324 327 331
306 308 311 312 313 309 308 308 305 304 305 308 308 306 304 301 303 303 304 306 306 306 306 306 306 306 306 306 307 309 307 308 308 312 312 317 316 315 318 319 320 321 324 328 331
305 307 310 312 312 307 305 305 304 305 307 308 307 304 303 303 305 304 305 304 305 306 307 306 306 307 305 308 312 308 307 307 308 312 314 319 318 318 317 317 318 320 320 323 332
304 307 310 314 309 305 303 304 305 306 307 305 304 305 305 304 304 303 303 303 304 305 306 307 307 307 309 309 311 307 308 306 310 312 315 318 320 318 317 316 317 318 320 324 328
304 305 311 310 308 304 304 305 304 306 305 305 305 305 304 304 303 304 304 304 305 305 305 305 308 309 309 309 309 310 308 309 312 311 316 316 318 317 318 317 318 318 320 324 329
304 304 307 308 306 303 305 304 304 304 307 305 305 305 304 304 305 305 305 305 306 307 305 308 309 308 308 308 308 311 311 311 315 316 316 319 320 319 319 318 317 318 320 323 328
304 304 307 308 305 304 305 304 304 303 307 307 306 306 306 304 306 307 305 306 306 307 307 308 309 307 310 307 308 310 311 313 317 319 319 320 321 322 320 319 318 319 319 321 326
304 304 310 306 305 305 305 303 304 303 309 306 307 307 306 306 308 305 305 306 307 310 309 310 308 310 311 309 310 311 309 314 318 321 324 322 324 321 321 320 320 320 320 322 321
303 303 308 305 305 304 304 303 304 302 311 303 307 305 307 309 309 309 306 306 308 309 307 314 311 310 311 311 311 312 311 318 320 321 322 321 322 321 319 323 322 320 320 321 321
303 303 307 304 303 304 304 304 302 308 307 307 307 308 309 310 310 310 309 307 308 307 310 310 310 312 315 313 313 316 317 318 319 320 324 320 321 323 322 321 321 319 319 318 319
303 303 306 304 305 304 303 303 311 311 302 308 309 308 309 310 310 311 313 314 315 318 316 313 315 314 315 317 317 318 320 323 322 324 322 318 320 318 317 318 317 316 314 313 316
303 306 305 304 304 303 303 306 312 304 307 306 307 307 311 310 310 310 313 316 313 312 317 320 321 316 316 318 318 318 316 320 320 320 321 320 325 318 312 310 310 310 311 313 313
303 305 304 304 304 302 305 312 311 307 306 309 308 310 311 309 310 311 312 315 313 312 317 319 320 315 315 317 318 318 318 311 316 318 320 317 313 313 312 311 311 311 312 312 312
304 304 304 304 303 303 308 310 310 303 306 307 309 309 311 311 312 312 313 313 314 312 310 313 322 315 314 316 316 316 312 318 318 320 319 315 315 316 313 312 313 312 312 312 312
303 305 302 303 303 304 309 308 308 306 307 309 309 310 310 311 312 314 314 313 313 313 310 311 317 318 315 318 319 318 317 313 313 313 316 315 316 311 311 310 313 313 312 312 312
304 306 303 303 305 305 307 306 307 308 309 311 309 309 310 310 313 314 314 314 312 311 313 311 315 320 318 314 312 315 315 313 319 315 312 315 316 311 312 312 313 313 312 312 311
305 305 304 304 307 306 305 308 309 310 311 311 312 310 308 312 314 313 314 313 312 312 313 310 313 319 317 314 312 317 315 314 312 315 315 317 316 311 312 312 312 312 311 311 311
306 305 305 306 304 305 308 311 310 309 311 310 310 310 311 312 312 313 314 313 312 311 310 309 311 312 316 315 313 316 315 314 314 324 315 316 314 313 312 311 310 310 310 311 311
306 306 305 308 306 305 307 310 310 311 310 309 311 311 312 312 312 314 313 312 312 309 310 312 314 310 311 311 312 314 315 314 316 313 317 314 314 311 310 310 310 310 310 310 310
306 306 304 304 305 306 308 311 310 311 311 311 312 310 310 312 311 312 312 312 313 311 311 310 314 310 313 310 311 312 311 311 313 314 314 314 313 310 310 310 308 309 309 309 309
300 300 305 304 304 307 309 310 310 311 309 308 309 311 312 310 309 308 308 308 309 311 312 311 312 313 315 309 309 312 309 310 310 310 311 312 311 309 310 309 308 309 308 308 308

GFSSW_925_thetae_105.txt.gz
Theta_e
315 317 319 320 320 317 315 314 314 313 311 310 312 311 310 309 308 307 307 308 308 308 311 311 310 310 311 313 314 316 319 319 317 317 316 317 319 322 322 325 324 324 326 330 330
311 314 317 318 320 317 314 314 313 312 310 309 311 310 309 305 306 305 305 304 310 312 311 309 309 309 311 311 313 315 318 316 314 315 315 316 317 318 320 324 323 324 326 330 329
309 310 315 317 320 318 314 313 311 311 310 309 310 310 307 306 306 305 305 308 313 312 309 308 307 307 309 310 312 313 315 314 313 314 314 315 316 319 320 322 323 324 324 330 329
308 309 310 315 317 318 314 313 310 310 309 309 309 309 307 305 307 308 312 312 311 309 308 307 307 306 306 308 309 311 311 312 312 312 314 317 318 319 321 322 320 322 326 327 330
307 308 309 312 315 318 314 309 310 309 308 308 309 309 306 307 306 306 310 311 310 307 305 305 306 305 305 304 305 306 308 309 310 311 312 313 316 318 319 320 322 324 324 326 330
306 306 308 311 314 317 313 308 308 307 308 308 309 308 306 308 302 305 307 307 306 305 305 305 306 306 306 306 305 305 305 306 307 308 311 312 313 315 318 319 323 323 324 325 328
306 306 307 311 313 315 310 309 307 306 307 307 308 308 308 308 302 304 305 305 305 305 305 305 305 306 306 306 306 306 307 306 305 307 310 311 313 314 315 319 321 321 322 323 324
306 306 306 310 312 311 309 309 307 303 305 304 308 308 308 303 303 304 304 305 306 305 305 305 306 306 306 306 307 308 309 310 306 306 308 309 314 312 313 320 320 321 323 322 323
305 305 306 308 310 310 309 307 304 306 307 308 308 308 306 303 303 303 304 305 305 306 306 306 306 307 307 307 308 308 310 309 308 305 309 311 315 313 316 319 320 320 321 320 323
304 304 305 310 312 308 305 304 307 308 308 307 305 305 305 305 305 304 305 304 305 305 307 307 308 307 307 308 310 312 311 307 307 305 309 312 315 317 319 320 320 320 320 321 324
305 304 305 312 309 306 304 306 305 306 305 306 306 306 305 304 304 305 305 305 305 305 307 306 308 308 307 308 309 310 309 308 308 305 311 312 315 315 317 319 319 319 319 322 324
305 305 304 308 306 305 306 305 306 307 308 305 306 306 306 306 306 306 305 307 307 308 307 307 308 307 310 310 312 313 310 310 309 309 312 313 316 315 317 317 318 319 319 321 323
304 304 304 307 306 305 305 305 304 304 308 308 307 307 307 306 308 308 306 307 309 310 310 310 310 308 310 311 310 311 311 310 314 313 313 314 317 319 319 319 318 318 318 320 323
304 304 307 308 306 306 305 304 304 304 314 309 309 309 307 306 309 308 305 307 309 310 310 311 308 310 311 311 309 310 309 310 316 316 321 318 322 321 321 322 320 318 321 322 324
303 304 308 306 306 306 305 305 304 304 317 307 309 307 308 309 311 311 306 306 309 311 308 314 311 311 312 310 308 312 313 312 318 319 323 324 327 322 321 323 322 323 320 323 323
302 305 307 305 305 304 304 305 304 317 314 311 309 311 311 311 312 312 310 307 306 309 310 311 310 311 313 313 311 312 315 316 320 322 322 321 323 325 320 321 322 319 322 323 323
302 303 306 305 306 304 304 305 316 317 304 311 311 310 312 312 312 313 315 315 317 318 320 316 316 314 315 315 313 312 320 325 325 326 323 321 322 323 316 313 318 317 313 321 321
302 306 307 305 304 303 304 308 318 308 310 308 310 310 313 312 313 312 315 318 314 315 319 321 319 314 316 318 320 315 320 323 327 325 323 320 322 320 316 314 313 313 313 315 318
305 305 304 304 304 303 307 316 314 310 308 311 310 313 313 312 312 313 315 316 315 314 320 321 321 316 317 318 318 319 318 313 319 318 321 321 317 317 314 314 315 315 313 314 314
305 305 303 303 303 304 311 312 311 306 308 309 311 311 313 313 314 314 315 315 315 313 312 317 320 317 317 318 318 316 313 320 323 322 320 320 320 320 315 314 314 314 313 313 313
304 305 303 303 303 306 313 311 309 307 309 311 310 311 312 312 314 314 314 315 314 314 313 314 319 320 318 318 319 319 318 316 315 316 317 318 317 313 313 314 314 313 313 313 313
305 307 303 303 308 308 309 309 308 309 311 312 311 312 312 313 314 314 315 315 313 313 315 313 318 320 319 315 313 316 317 315 323 316 317 317 317 313 314 314 314 313 313 313 313
305 305 303 305 310 309 309 311 310 310 312 312 312 311 312 313 315 314 314 314 313 314 314 312 315 321 319 317 315 316 315 315 315 321 318 319 317 313 314 313 313 313 313 313 312
307 307 305 306 306 308 310 311 309 311 312 311 312 312 313 313 313 314 314 314 313 312 311 313 314 316 320 318 316 317 315 315 318 326 317 316 316 313 312 312 312 312 312 312 311
309 306 306 308 308 307 308 311 310 311 312 311 312 312 312 312 312 313 314 313 312 311 312 314 315 314 313 313 314 314 314 315 317 316 319 316 314 313 312 311 311 311 311 311 310
309 307 306 306 307 308 309 312 310 311 312 311 312 312 312 313 312 313 313 313 314 313 313 313 315 313 313 312 313 312 312 313 314 315 315 314 314 311 311 310 310 310 310 310 309
304 305 308 306 307 308 310 311 310 311 311 311 312 312 313 312 311 311 311 311 311 313 313 313 314 315 316 311 311 313 310 311 312 311 312 314 313 311 311 310 310 310 309 307 305

GFSSW_925_thetae_108.txt.gz
Theta_e
310 311 313 316 319 322 319 316 315 315 312 310 310 312 310 309 306 309 309 309 309 310 309 312 311 310 311 312 314 316 318 319 318 317 316 315 314 315 320 321 320 322 324 331 331
309 309 310 313 317 320 319 315 314 314 312 310 310 312 310 305 308 307 306 305 309 311 311 311 310 309 310 311 312 314 318 317 315 314 314 314 314 314 315 319 321 322 323 331 330
307 308 310 310 314 317 319 315 313 313 311 309 309 311 308 305 307 308 308 308 312 312 311 308 307 307 307 309 310 312 315 314 314 313 313 313 315 314 316 319 320 322 321 330 330
307 307 307 310 313 315 319 314 313 310 310 309 309 310 308 307 308 312 309 312 313 309 308 306 306 306 307 306 307 309 310 311 312 312 312 313 313 314 317 318 318 321 324 325 328
308 307 307 307 310 314 317 314 311 311 307 308 308 309 307 308 307 311 311 311 311 308 305 305 305 305 305 304 304 304 306 307 307 310 310 311 311 313 314 315 317 321 323 324 326
306 307 307 307 310 312 316 313 311 309 309 307 309 308 307 308 304 308 308 309 307 306 305 305 305 306 306 305 305 304 305 305 305 306 306 309 311 311 311 312 314 320 323 323 325
307 306 307 307 309 313 313 311 309 309 308 308 309 308 308 306 303 304 306 305 305 305 305 305 305 306 306 306 306 306 307 307 307 306 306 307 308 311 310 311 314 320 321 322 323
307 306 306 306 308 313 312 309 307 305 307 308 308 309 309 304 304 304 304 304 305 305 305 305 305 306 306 306 306 307 307 308 307 308 306 306 308 310 309 310 312 317 319 322 323
308 306 306 305 307 309 312 308 305 305 307 308 310 309 307 303 302 303 304 305 305 305 305 305 305 307 307 307 307 307 308 307 308 308 307 305 307 307 308 310 311 316 317 319 319
307 306 306 306 309 310 309 305 306 309 309 308 307 307 305 306 305 305 305 305 305 306 306 307 308 308 308 308 305 307 309 311 310 308 307 306 309 309 310 312 311 316 317 318 319
306 306 305 308 311 309 305 308 308 308 307 306 307 306 305 305 304 305 305 305 305 305 306 306 307 307 306 307 306 306 310 309 309 308 307 305 311 310 315 317 317 317 317 318 320
306 305 305 306 307 306 305 306 306 307 307 305 306 306 306 306 307 306 306 306 307 308 306 308 309 307 306 308 309 310 310 310 310 309 309 308 311 311 313 315 316 317 317 317 320
305 305 305 306 306 306 305 306 305 305 309 307 306 308 308 307 308 308 306 307 309 311 311 311 310 309 309 309 309 311 310 310 312 312 310 311 313 314 314 314 314 315 317 317 320
304 304 305 308 307 305 306 305 306 305 315 308 309 309 308 307 309 308 307 308 309 310 310 310 308 310 310 310 309 310 310 310 311 313 317 313 315 316 318 320 319 316 317 318 322
304 306 308 307 306 305 306 305 306 305 319 308 309 307 309 310 311 310 306 306 310 311 308 313 312 309 309 310 309 308 310 317 312 317 316 316 320 321 321 322 321 320 320 323 324
304 304 306 306 306 305 305 305 305 312 311 308 310 311 311 311 312 310 309 307 308 310 310 311 310 311 311 313 313 312 314 315 313 316 324 322 323 322 319 316 320 317 322 323 324
302 305 307 305 306 304 305 305 312 316 305 310 312 311 312 314 313 314 315 314 315 317 313 315 315 313 313 316 314 313 315 322 324 325 326 321 322 319 318 315 316 316 316 323 323
304 305 305 305 304 303 304 310 312 308 311 310 311 311 314 312 313 313 317 317 315 315 317 318 313 316 316 315 315 317 319 323 326 327 326 319 321 321 315 316 316 315 316 320 320
305 305 303 304 304 303 308 315 313 311 309 311 311 313 314 312 312 314 315 316 315 313 318 322 319 316 316 317 318 319 319 315 322 318 322 324 319 317 314 314 315 316 317 318 316
305 303 303 304 304 305 312 312 310 307 310 310 312 311 313 313 314 314 316 314 315 313 313 316 320 317 317 317 318 318 314 318 320 326 325 323 319 320 315 313 314 314 313 314 312
305 305 303 303 303 307 314 311 309 308 310 312 312 312 312 313 313 314 315 315 313 314 313 315 319 318 318 317 317 318 316 316 314 315 316 320 320 315 315 314 314 313 312 311 310
305 306 303 303 309 309 311 309 308 310 311 312 312 312 313 313 314 314 314 315 313 313 315 313 316 318 319 315 313 314 314 314 316 319 314 316 319 312 312 312 312 312 311 310 310
305 305 303 304 313 310 309 310 310 312 312 313 313 312 312 313 315 314 313 314 313 313 312 312 314 315 318 316 314 315 314 314 316 317 315 316 318 312 309 310 310 310 310 310 310
307 307 305 306 308 308 311 311 310 311 312 312 312 312 312 312 312 314 313 314 313 311 312 312 313 314 314 316 315 314 314 314 317 314 315 315 313 311 310 310 310 309 308 308 308
309 306 306 309 308 309 310 311 310 312 311 311 312 312 312 312 312 313 313 313 312 312 312 313 313 309 312 313 313 312 313 313 313 314 314 312 313 311 308 309 308 308 308 308 307
311 308 306 307 307 309 309 312 310 311 312 311 313 312 312 313 313 313 312 312 312 312 312 312 313 312 312 311 311 310 310 312 312 313 313 312 312 309 308 308 308 308 307 305 304
306 306 307 307 307 308 310 312 310 311 311 311 311 312 312 311 310 310 310 310 311 311 312 311 312 312 314 311 309 312 309 310 310 310 312 314 311 309 309 310 309 308 306 303 300

GFSSW_925_thetae_111.txt.gz
Theta_e
309 310 310 311 313 318 320 320 317 315 314 312 310 313 310 308 305 308 309 309 311 311 307 311 311 310 310 310 310 312 317 318 317 317 316 312 313 312 312 312 314 319 326 329 332
309 309 309 310 311 315 318 320 317 315 314 311 309 312 310 308 307 308 306 310 309 306 308 311 307 308 307 308 309 312 315 316 314 313 313 312 311 311 313 314 315 318 330 330 329
307 308 308 308 309 313 316 318 316 315 313 310 309 310 309 306 308 307 309 309 310 311 312 307 307 306 306 305 307 309 313 313 313 312 313 312 311 310 312 315 316 319 322 329 328
308 308 308 308 308 310 313 317 316 314 312 309 309 309 308 307 309 309 309 311 313 308 307 305 305 305 305 304 304 306 307 309 311 311 310 310 310 310 310 311 313 314 322 323 327
308 308 307 307 308 310 314 316 315 312 311 309 307 309 307 308 308 313 312 313 309 306 305 304 304 304 304 303 303 303 303 304 305 306 306 305 306 309 309 309 310 312 316 321 323
308 308 307 307 308 309 311 317 314 311 309 307 310 307 307 304 310 310 309 310 307 305 304 305 305 305 304 304 304 303 305 305 306 306 305 305 305 306 307 307 309 310 312 320 321
308 308 307 307 307 311 313 313 313 310 309 310 307 308 308 302 305 306 308 306 305 305 305 305 305 305 305 305 304 305 305 305 305 306 307 306 306 305 305 307 309 310 311 319 320
308 308 307 307 307 310 314 312 310 309 309 309 308 309 307 305 305 304 304 304 305 305 305 304 304 305 305 304 305 305 304 305 305 306 306 307 307 304 304 306 308 308 309 315 319
308 308 307 306 307 308 312 308 306 307 307 308 309 308 306 303 303 304 304 304 305 305 305 305 305 305 305 306 306 305 304 306 307 306 307 307 307 305 304 305 307 307 308 312 315
307 307 306 305 306 310 307 305 307 308 308 309 308 306 305 306 303 303 303 305 305 306 307 306 305 304 305 308 304 300 306 307 308 307 307 308 307 305 304 305 305 305 307 313 316
306 306 302 312 311 309 307 310 308 308 308 305 306 306 305 304 304 304 304 304 304 304 305 306 305 305 304 305 304 305 306 306 306 308 309 308 307 306 305 308 308 310 306 313 316
306 305 303 309 308 307 307 307 305 305 306 306 306 306 306 306 307 306 305 305 306 305 306 306 307 306 305 306 306 309 310 309 308 307 309 310 308 307 307 309 309 312 313 314 316
305 304 302 309 307 306 306 306 305 305 306 307 306 308 307 306 308 307 305 307 308 309 308 308 307 309 309 309 310 309 309 309 307 309 309 309 309 307 307 309 309 311 313 314 314
305 303 304 306 307 306 307 306 305 304 307 308 308 308 307 306 310 307 307 308 309 308 310 308 308 309 310 311 310 310 308 311 313 311 307 309 313 311 310 310 312 311 313 313 316
307 308 307 307 306 306 306 305 305 304 305 307 309 307 308 310 310 309 306 306 311 311 309 312 311 312 309 308 308 310 308 310 311 314 313 312 315 319 317 318 317 316 312 313 318
306 306 307 307 306 305 306 305 305 307 300 303 309 310 310 310 312 309 308 307 308 310 310 310 310 310 311 311 312 314 312 314 314 315 317 317 316 320 317 316 315 317 317 319 322
306 307 306 306 304 305 305 304 304 299 302 307 308 311 311 313 313 313 314 313 315 314 309 314 313 311 311 316 315 314 314 318 317 317 323 318 319 318 314 316 316 317 314 321 324
306 307 305 304 303 304 305 302 301 307 307 309 311 311 312 312 312 314 316 316 315 314 312 315 308 314 316 315 315 314 316 321 324 323 324 319 320 316 314 315 316 316 318 320 318
305 304 303 304 304 304 302 302 303 308 309 311 310 311 312 311 311 312 313 314 313 311 314 317 313 314 315 316 318 319 321 315 321 321 318 320 317 315 311 314 316 318 316 315 314
304 304 303 303 304 304 302 307 305 307 309 309 311 310 311 311 312 313 314 313 313 312 312 315 318 316 317 317 317 319 316 318 317 323 324 320 319 318 312 313 315 315 314 314 312
304 305 303 303 303 301 303 306 308 308 310 311 311 310 310 311 311 312 313 313 312 312 311 313 317 315 316 316 315 315 316 314 313 315 321 321 321 309 310 315 314 312 313 312 309
303 305 303 303 302 303 305 308 308 309 310 311 310 310 311 311 312 312 314 314 311 311 313 311 313 311 316 313 312 312 314 312 312 317 313 315 318 313 312 313 311 311 311 309 308
303 304 304 304 302 303 307 309 310 311 311 311 311 311 311 312 313 312 313 312 312 312 311 310 310 309 310 309 309 314 312 313 313 310 312 313 319 310 309 309 309 309 309 308 307
302 305 301 301 302 305 309 309 310 310 311 310 311 310 310 311 311 312 312 312 312 310 312 311 310 310 310 311 312 311 312 311 311 308 313 312 311 309 309 309 308 307 306 305 305
303 302 301 300 304 307 307 309 310 312 310 310 311 310 311 311 311 311 310 310 311 311 311 310 310 306 311 312 311 309 311 311 308 311 308 310 311 308 308 307 307 306 305 303 302
307 302 301 302 304 307 308 310 309 310 311 311 311 310 309 311 311 312 311 310 311 309 310 308 309 310 311 309 309 308 308 310 311 311 310 310 311 306 305 306 306 305 303 301 299
307 305 302 303 303 305 306 310 310 311 310 309 310 310 310 310 308 306 306 308 309 310 309 309 308 307 312 309 308 309 308 309 309 309 310 312 309 307 308 308 307 306 303 300 298

GFSSW_925_thetae_114.txt.gz
Theta_e
309 310 309 309 311 312 316 319 319 317 316 313 310 310 311 308 304 307 309 309 310 312 308 310 310 310 309 309 309 311 316 316 316 317 317 311 311 310 310 311 311 315 329 329 331
308 308 309 309 309 311 315 317 320 317 315 313 310 310 310 307 306 308 307 311 312 307 309 309 306 307 306 307 308 311 314 315 313 313 313 312 311 310 310 310 314 314 317 329 330
308 308 309 309 308 309 312 317 319 316 315 312 308 311 310 306 308 307 310 310 311 310 308 307 306 305 305 305 306 308 312 311 311 311 312 312 310 309 310 311 310 313 314 323 327
307 308 308 309 308 308 310 314 318 316 314 311 307 312 308 307 310 308 310 311 311 308 305 304 303 304 304 304 302 304 305 306 308 308 308 306 307 306 307 308 309 309 313 316 323
308 307 308 307 308 308 310 314 318 316 313 310 309 310 306 307 308 310 313 311 307 305 304 304 303 303 303 303 303 303 303 305 305 306 305 304 304 304 304 306 307 308 310 310 317
307 307 308 308 307 308 310 313 318 314 312 309 310 308 307 304 312 312 312 307 304 304 304 304 304 304 303 304 304 303 304 304 305 305 305 306 305 304 304 303 306 308 308 309 314
306 307 308 308 307 309 310 316 313 311 310 311 308 308 305 302 310 309 307 306 305 304 305 305 304 304 304 304 304 304 304 303 303 304 305 305 305 305 303 303 304 306 307 309 310
306 306 308 308 307 309 313 313 310 308 311 310 308 308 305 304 306 307 305 305 304 304 304 304 304 304 304 303 304 304 303 304 303 305 306 306 305 303 302 301 303 303 306 308 309
307 308 306 305 306 307 312 311 309 310 310 309 308 307 305 303 304 304 304 304 305 305 305 305 305 304 304 304 301 302 302 303 305 306 306 306 306 306 304 302 303 303 304 306 308
307 305 302 306 308 310 308 307 308 308 308 308 308 304 304 305 302 303 303 304 305 305 306 305 302 301 302 298 300 299 300 303 304 304 304 305 307 307 307 303 302 302 302 303 306
306 303 311 311 309 306 308 308 307 307 307 305 305 305 305 304 304 304 304 304 304 304 305 305 303 303 300 304 303 303 304 305 305 305 306 307 308 307 308 305 301 302 304 305 304
304 310 310 309 308 308 307 306 305 305 305 305 305 305 305 305 306 305 304 305 305 303 304 303 305 303 304 304 305 306 308 307 306 307 307 307 308 308 308 305 304 304 304 308 306
303 306 309 308 307 307 306 305 305 305 304 306 305 307 306 306 307 306 305 306 307 308 308 306 304 308 308 307 307 307 307 307 307 307 308 308 308 308 306 307 306 305 307 309 310
302 306 308 307 308 307 307 305 305 304 300 307 308 308 307 306 308 306 307 307 308 308 308 308 306 307 309 310 308 309 307 308 309 313 307 306 307 308 314 312 307 305 305 308 311
302 303 306 307 306 307 306 304 304 304 300 306 309 307 307 309 309 309 306 307 310 310 307 309 310 310 311 309 308 309 309 310 312 316 314 310 306 313 316 316 313 312 311 308 310
307 307 306 306 306 305 305 305 304 301 301 302 309 309 309 310 310 308 308 307 308 310 309 309 309 310 310 309 309 310 314 313 315 315 313 313 311 319 316 314 312 312 313 312 313
306 306 305 305 303 304 305 303 301 301 301 305 308 310 310 312 313 312 313 312 314 312 304 312 312 310 310 313 315 314 314 316 316 315 315 319 317 316 311 311 316 316 315 317 318
306 305 303 303 303 304 305 299 301 305 305 307 310 310 311 311 312 315 316 315 312 315 311 314 309 313 314 316 314 314 315 320 322 320 322 321 319 315 312 317 317 317 316 316 316
305 305 303 303 304 304 299 300 302 307 307 310 309 311 310 310 311 314 313 312 312 311 313 314 311 312 313 316 315 320 321 316 320 321 316 319 317 313 311 312 315 315 314 315 314
304 304 303 304 304 303 301 306 305 306 309 309 310 309 311 311 311 311 312 312 312 311 310 314 317 314 316 316 316 318 316 319 316 323 319 317 318 315 311 310 311 312 314 313 312
304 301 303 304 304 300 302 305 307 307 309 310 311 310 310 311 310 312 312 313 311 312 310 312 315 315 314 314 314 314 315 314 314 318 320 320 320 310 309 309 312 313 312 311 309
302 300 303 304 302 299 305 308 308 308 309 311 309 310 311 311 311 311 313 312 311 311 313 310 311 311 313 312 310 311 313 311 312 315 313 317 317 312 312 312 312 310 308 307 306
300 300 303 304 302 302 306 308 309 310 311 310 310 310 310 311 312 311 312 311 311 311 310 310 309 308 305 306 308 312 310 310 310 307 312 315 317 310 310 309 308 307 306 305 303
299 299 298 298 300 304 308 308 308 309 310 309 310 309 309 309 309 312 311 311 311 310 311 309 308 309 304 309 310 311 310 309 308 305 311 310 312 310 309 308 306 305 302 300 299
299 300 300 300 303 305 306 308 310 310 309 308 310 309 310 310 310 310 310 309 309 309 310 308 309 305 309 310 310 308 308 309 308 309 309 310 309 307 307 306 306 304 301 299 298
303 304 300 301 301 304 305 309 309 309 310 310 310 309 308 311 310 310 309 309 310 308 308 306 308 309 310 308 307 308 307 309 309 310 309 309 310 306 305 304 305 303 301 299 297
306 303 300 302 302 303 304 309 309 310 309 309 309 310 309 309 308 306 305 304 306 309 308 307 307 306 311 305 306 308 308 308 308 309 309 311 308 305 307 307 306 304 301 298 296

GFSSW_925_thetae_117.txt.gz
Theta_e
309 310 310 310 309 311 313 318 320 318 317 314 310 309 310 308 304 306 308 311 310 312 308 310 308 309 309 308 308 310 315 315 315 317 316 311 311 309 309 310 309 313 319 327 329
309 309 309 309 310 309 312 316 318 319 317 314 310 310 310 307 307 308 310 312 311 309 308 306 305 307 305 306 307 311 312 314 312 312 312 311 310 310 309 308 311 310 310 312 329
308 308 308 309 310 309 310 315 317 319 317 313 309 312 309 306 307 307 311 310 312 309 307 306 305 304 305 304 305 308 311 311 310 310 309 311 309 308 308 308 309 309 309 310 315
308 307 308 308 309 308 309 311 315 318 316 312 308 311 307 307 309 308 311 311 309 306 305 303 302 303 303 303 301 303 304 303 305 305 305 304 304 303 305 305 306 308 309 310 310
309 308 308 308 307 308 309 311 316 318 315 312 312 309 306 305 310 310 312 310 305 303 303 303 303 302 303 303 302 302 302 304 304 305 305 304 303 302 303 302 302 306 308 309 309
307 307 308 308 308 308 308 310 315 317 312 312 312 307 306 307 311 313 308 305 304 304 304 303 304 303 303 303 303 302 303 302 303 304 304 304 303 303 302 302 303 303 304 306 308
306 306 307 308 308 308 310 311 316 314 312 312 308 306 303 307 311 309 310 305 304 304 304 304 304 303 303 303 303 303 302 302 302 302 303 304 304 303 301 301 302 303 303 305 306
306 307 308 307 305 311 313 314 311 310 312 311 307 306 304 304 309 307 305 304 304 304 304 304 303 303 302 303 302 303 302 303 302 303 304 304 305 303 302 300 301 301 302 304 305
307 307 306 305 303 312 311 310 309 309 311 308 307 304 304 304 306 305 304 304 304 304 305 305 304 303 303 301 298 300 301 302 303 304 305 305 305 305 304 304 304 304 302 301 304
306 305 304 310 310 311 309 310 308 309 308 307 305 301 303 303 303 304 303 304 305 305 304 304 300 300 299 297 299 298 297 301 303 303 303 304 305 305 304 304 304 303 303 300 303
305 306 306 309 309 309 307 308 307 307 305 305 305 304 304 303 303 303 304 304 303 303 305 304 299 302 300 302 302 303 303 304 304 304 305 306 306 306 306 305 304 302 302 300 302
310 312 306 308 309 308 307 305 305 305 304 304 304 304 304 305 305 304 304 304 304 303 304 303 304 302 302 303 304 303 306 305 304 305 305 306 307 307 307 307 306 303 301 300 302
309 308 307 306 308 305 305 305 304 304 303 306 305 306 305 305 306 306 304 306 307 307 307 308 303 307 307 307 308 307 307 307 306 306 306 307 307 305 309 306 304 302 301 303 305
308 309 307 307 307 306 306 304 304 304 302 307 307 307 306 306 307 306 307 307 308 307 308 307 305 307 307 308 308 307 306 307 308 310 311 308 312 306 311 312 308 306 305 303 304
307 307 307 307 306 306 305 304 304 302 305 305 308 306 306 309 308 309 306 306 309 309 307 305 308 309 310 310 308 307 308 310 313 315 316 311 312 307 312 312 312 309 310 311 309
306 306 306 306 306 304 304 304 303 299 300 303 308 308 309 309 310 308 309 308 308 311 310 310 308 309 310 309 308 308 311 313 315 315 312 312 310 312 314 313 312 311 311 312 314
305 306 306 305 303 304 304 302 300 302 301 305 308 309 310 312 312 312 312 313 314 312 305 312 311 309 309 312 314 313 313 312 310 307 313 317 315 316 312 312 315 316 317 317 317
304 303 303 303 303 304 303 299 302 305 304 306 308 309 310 310 312 314 315 316 311 314 314 312 310 311 311 314 315 315 315 319 320 320 315 317 317 317 312 312 314 316 315 317 317
305 304 304 304 304 304 298 300 302 305 306 309 309 310 309 309 311 315 313 311 310 309 311 312 311 310 312 315 315 318 320 316 319 320 313 317 316 314 311 308 312 313 314 315 316
304 303 303 304 304 303 300 304 304 303 308 308 310 308 310 310 310 310 311 311 312 310 308 311 315 313 314 314 315 318 316 319 314 321 319 316 318 315 311 307 307 309 310 312 310
303 300 304 303 305 299 302 303 306 306 308 310 310 310 309 310 310 311 311 311 311 311 309 311 313 311 312 313 314 312 314 315 313 317 317 318 318 315 311 308 308 308 309 308 306
301 300 304 304 301 298 304 307 308 309 308 310 309 309 310 310 310 311 312 310 309 310 312 310 309 310 311 310 310 310 312 310 310 315 312 313 317 313 312 311 311 308 306 303 301
299 299 303 303 302 302 305 307 308 310 310 310 310 309 309 310 311 311 310 310 310 310 310 309 307 306 305 305 307 311 309 309 308 309 311 313 315 309 310 312 306 304 300 299 298
297 300 299 297 298 303 305 306 307 307 309 308 309 308 308 309 308 310 309 309 308 309 311 308 307 307 304 307 308 309 307 308 307 304 310 310 313 310 308 306 305 301 298 297 296
297 300 299 300 302 303 304 306 308 308 307 307 308 308 309 310 309 310 309 307 308 308 308 307 308 305 306 307 308 308 307 307 305 308 308 310 309 307 306 305 304 302 299 297 296
302 301 298 299 300 303 303 307 307 308 308 309 310 308 308 309 309 309 309 308 309 306 307 305 307 307 309 307 305 307 306 307 309 309 308 307 308 304 304 304 304 302 300 297 296
304 302 299 301 300 302 304 307 308 309 308 308 308 309 308 308 307 305 304 304 305 307 307 306 306 306 308 304 303 304 305 307 308 308 308 309 307 303 305 305 304 303 301 297 296